[[{"header":{"parameterUnit":"m.s-1","parameterCategory":1,"la1":30.6,"la2":28.766,"lo1":-90.7593,"lo2":-88.6598,"dy":0.0162,"dx":0.0183,"nx":116,"ny":114,"refTime":"2024-05-12T18:00:00:Z","depth":0,"parameterNumber":2,"parameterNumberName":"U-component_of_WINDS"},"data":[0.0,0.0,0.0,0.0,0.0,0.0,0.0,0.0,0.0,0.0,0.0,0.0,0.0,0.0,0.0,0.0,0.0,0.0,0.0,0.0,0.0,0.0,0.0,0.0,0.0,0.0,0.0,0.0,0.0,0.0,0.0,0.0,0.0,0.0,0.0,0.0,0.0,0.0,0.0,0.0,0.0,0.0,0.0,0.0,0.0,0.0,0.0,0.0,0.0,0.0,0.0,0.0,0.0,0.0,0.0,0.0,0.0,0.0,0.0,0.0,0.0,0.0,0.0,0.0,0.0,0.0,0.0,0.0,0.0,0.0,0.0,0.0,0.0,0.0,0.0,0.0,0.0,0.0,0.0,0.0,0.0,0.0,0.0,0.0,0.0,0.0,0.0,0.0,0.0,0.0,0.0,0.0,0.0,0.0,0.0,0.0,0.0,0.0,0.0,0.0,0.0,0.0,0.0,0.0,0.0,0.0,0.0,0.0,0.0,0.0,0.0,0.0,0.0,0.0,0.0,0.0,0.0,0.0,0.0,0.0,0.0,0.0,0.0,0.0,0.0,0.0,0.0,0.0,0.0,0.0,0.0,0.0,0.0,0.0,0.0,0.0,0.0,0.0,0.0,0.0,0.0,0.0,0.0,0.0,0.0,0.0,0.0,0.0,0.0,0.0,0.0,0.0,0.0,0.0,0.0,0.0,0.0,0.0,0.0,0.0,0.0,0.0,0.0,0.0,0.0,0.0,0.0,0.0,0.0,0.0,0.0,0.0,0.0,0.0,0.0,0.0,0.0,0.0,0.0,0.0,0.0,0.0,0.0,0.0,0.0,0.0,0.0,0.0,0.0,0.0,0.0,0.0,0.0,0.0,0.0,0.0,0.0,0.0,0.0,0.0,0.0,0.0,0.0,0.0,0.0,0.0,0.0,0.0,0.0,0.0,0.0,0.0,0.0,0.0,0.0,0.0,0.0,0.0,0.0,0.0,0.0,0.0,0.0,0.0,0.0,0.0,0.0,0.0,0.0,0.0,0.0,0.0,0.0,0.0,0.0,0.0,0.0,0.0,0.0,0.0,0.0,0.0,0.0,0.0,0.0,0.0,0.0,0.0,0.0,0.0,0.0,0.0,0.0,0.0,0.0,0.0,0.0,0.0,0.0,0.0,0.0,0.0,0.0,0.0,0.0,0.0,0.0,0.0,0.0,0.0,0.0,0.0,0.0,0.0,0.0,0.0,0.0,0.0,0.0,0.0,0.0,0.0,0.0,0.0,0.0,0.0,0.0,0.0,0.0,0.0,0.0,0.0,0.0,0.0,0.0,0.0,0.0,0.0,0.0,0.0,0.0,0.0,0.0,0.0,0.0,0.0,0.0,0.0,0.0,0.0,0.0,0.0,0.0,0.0,0.0,0.0,0.0,0.0,0.0,0.0,0.0,0.0,0.0,0.0,0.0,0.0,0.0,0.0,0.0,0.0,0.0,0.0,0.0,0.0,0.0,0.0,0.0,0.0,0.0,0.0,0.0,0.0,0.0,0.0,0.0,0.0,0.0,0.0,0.0,0.0,0.0,0.0,0.0,0.0,0.0,0.0,0.0,0.0,0.0,0.0,0.0,0.0,0.0,0.0,0.0,0.0,0.0,0.0,0.0,0.0,0.0,0.0,0.0,0.0,0.0,0.0,0.0,0.0,0.0,0.0,0.0,0.0,0.0,0.0,0.0,0.0,0.0,0.0,0.0,0.0,0.0,0.0,0.0,0.0,0.0,0.0,0.0,0.0,0.0,0.0,0.0,0.0,0.0,0.0,0.0,0.0,0.0,0.0,0.0,0.0,0.0,0.0,0.0,0.0,0.0,0.0,0.0,0.0,0.0,0.0,0.0,0.0,0.0,0.0,0.0,0.0,0.0,0.0,0.0,0.0,0.0,0.0,0.0,0.0,0.0,0.0,0.0,0.0,0.0,0.0,0.0,0.0,0.0,0.0,0.0,0.0,0.0,0.0,0.0,0.0,0.0,0.0,0.0,0.0,0.0,0.0,0.0,0.0,0.0,0.0,0.0,0.0,0.0,0.0,0.0,0.0,0.0,0.0,0.0,0.0,0.0,0.0,0.0,0.0,0.0,0.0,0.0,0.0,0.0,0.0,0.0,0.0,0.0,0.0,0.0,0.0,0.0,0.0,0.0,0.0,0.0,0.0,0.0,0.0,0.0,0.0,0.0,0.0,0.0,0.0,0.0,0.0,0.0,0.0,0.0,0.0,0.0,0.0,0.0,0.0,0.0,0.0,0.0,0.0,0.0,0.0,0.0,0.0,0.0,0.0,0.0,0.0,0.0,0.0,0.0,0.0,0.0,0.0,0.0,0.0,0.0,0.0,0.0,0.0,0.0,0.0,0.0,0.0,0.0,0.0,0.0,0.0,0.0,0.0,0.0,0.0,0.0,0.0,0.0,0.0,0.0,0.0,0.0,0.0,0.0,0.0,0.0,0.0,0.0,0.0,0.0,0.0,0.0,0.0,0.0,0.0,0.0,0.0,0.0,0.0,0.0,0.0,0.0,0.0,0.0,0.0,0.0,0.0,0.0,0.0,0.0,0.0,0.0,0.0,0.0,0.0,0.0,0.0,0.0,0.0,0.0,0.0,0.0,0.0,0.0,0.0,0.0,0.0,0.0,0.0,0.0,0.0,0.0,0.0,0.0,0.0,0.0,0.0,0.0,0.0,0.0,0.0,0.0,0.0,0.0,0.0,0.0,0.0,0.0,0.0,0.0,0.0,0.0,0.0,0.0,0.0,0.0,0.0,0.0,0.0,0.0,0.0,0.0,0.0,0.0,0.0,0.0,0.0,0.0,0.0,0.0,0.0,0.0,0.0,0.0,0.0,0.0,0.0,0.0,0.0,0.0,0.0,0.0,0.0,0.0,0.0,0.0,0.0,0.0,0.0,0.0,0.0,0.0,0.0,0.0,0.0,0.0,0.0,0.0,0.0,0.0,0.0,0.0,0.0,0.0,0.0,0.0,0.0,0.0,0.0,0.0,0.0,0.0,0.0,0.0,0.0,0.0,0.0,0.0,0.0,0.0,0.0,0.0,0.0,0.0,0.0,0.0,0.0,0.0,0.0,0.0,0.0,0.0,0.0,0.0,0.0,0.0,0.0,0.0,0.0,0.0,0.0,0.0,0.0,0.0,0.0,0.0,0.0,0.0,0.0,0.0,0.0,0.0,0.0,0.0,0.0,0.0,0.0,0.0,0.0,0.0,0.0,0.0,0.0,0.0,0.0,0.0,0.0,0.0,0.0,0.0,0.0,0.0,0.0,0.0,0.0,0.0,0.0,0.0,0.0,0.0,0.0,0.0,0.0,0.0,0.0,0.0,0.0,0.0,0.0,0.0,0.0,0.0,0.0,0.0,0.0,0.0,0.0,0.0,0.0,0.0,0.0,0.0,0.0,0.0,0.0,0.0,0.0,0.0,0.0,0.0,0.0,0.0,0.0,0.0,0.0,0.0,0.0,0.0,0.0,0.0,0.0,0.0,0.0,0.0,0.0,0.0,0.0,0.0,0.0,0.0,0.0,0.0,0.0,0.0,0.0,0.0,0.0,0.0,0.0,0.0,0.0,0.0,0.0,0.0,0.0,0.0,0.0,0.0,0.0,0.0,0.0,0.0,0.0,0.0,0.0,0.0,0.0,0.0,0.0,0.0,0.0,0.0,0.0,0.0,0.0,0.0,0.0,0.0,0.0,0.0,0.0,0.0,0.0,0.0,0.0,0.0,0.0,0.0,0.0,0.0,0.0,0.0,0.0,0.0,0.0,0.0,0.0,0.0,0.0,0.0,0.0,0.0,0.0,0.0,0.0,0.0,0.0,0.0,0.0,0.0,0.0,0.0,0.0,0.0,0.0,0.0,0.0,0.0,0.0,0.0,0.0,0.0,0.0,0.0,0.0,0.0,0.0,0.0,0.0,0.0,0.0,0.0,0.0,0.0,0.0,0.0,0.0,0.0,0.0,0.0,0.0,0.0,0.0,0.0,0.0,0.0,0.0,0.0,0.0,0.0,0.0,0.0,0.0,0.0,0.0,0.0,0.0,0.0,0.0,0.0,0.0,0.0,0.0,0.0,0.0,0.0,0.0,0.0,0.0,0.0,0.0,0.0,0.0,0.0,0.0,0.0,0.0,0.0,0.0,0.0,0.0,0.0,0.0,0.0,0.0,0.0,0.0,0.0,0.0,0.0,0.0,0.0,0.0,0.0,0.0,0.0,0.0,0.0,0.0,0.0,0.0,0.0,0.0,0.0,0.0,0.0,0.0,0.0,0.0,0.0,0.0,0.0,0.0,0.0,0.0,0.0,0.0,0.0,0.0,0.0,0.0,0.0,0.0,0.0,0.0,0.0,0.0,0.0,0.0,0.0,0.0,0.0,0.0,0.0,0.0,0.0,0.0,0.0,0.0,0.0,0.0,0.0,0.0,0.0,0.0,0.0,0.0,0.0,0.0,0.0,0.0,0.0,0.0,0.0,0.0,0.0,0.0,0.0,0.0,0.0,0.0,0.0,0.0,0.0,0.0,0.0,0.0,0.0,0.0,0.0,0.0,0.0,0.0,0.0,0.0,0.0,0.0,0.0,0.0,0.0,0.0,0.0,0.0,0.0,0.0,0.0,0.0,0.0,0.0,0.0,0.0,0.0,0.0,0.0,0.0,0.0,0.0,0.0,0.0,0.0,0.0,0.0,0.0,0.0,0.0,0.0,0.0,0.0,0.0,0.0,0.0,0.0,0.0,0.0,0.0,0.0,0.0,0.0,0.0,0.0,0.0,0.0,0.0,0.0,0.0,0.0,0.0,0.0,0.0,0.0,0.0,0.0,0.0,0.0,0.0,0.0,0.0,0.0,0.0,0.0,0.0,0.0,0.0,0.0,0.0,0.0,0.0,0.0,0.0,0.0,0.0,0.0,0.0,0.0,0.0,0.0,0.0,0.0,0.0,0.0,0.0,0.0,0.0,0.0,0.0,0.0,0.0,0.0,0.0,0.0,0.0,0.0,0.0,0.0,0.0,0.0,0.0,0.0,0.0,0.0,0.0,0.0,0.0,0.0,0.0,0.0,0.0,0.0,0.0,0.0,0.0,0.0,0.0,0.0,0.0,0.0,0.0,0.0,0.0,0.0,0.0,0.0,0.0,0.0,0.0,0.0,0.0,0.0,0.0,0.0,0.0,0.0,0.0,0.0,0.0,0.0,0.0,0.0,0.0,0.0,0.0,0.0,0.0,0.0,0.0,0.0,0.0,0.0,0.0,0.0,0.0,0.0,0.0,0.0,0.0,0.0,0.0,0.0,0.0,0.0,0.0,0.0,0.0,0.0,0.0,0.0,0.0,0.0,0.0,0.0,0.0,0.0,0.0,0.0,0.0,0.0,0.0,0.0,0.0,0.0,0.0,0.0,0.0,0.0,0.0,0.0,0.0,0.0,0.0,0.0,0.0,0.0,0.0,0.0,0.0,0.0,0.0,0.0,0.0,0.0,0.0,0.0,0.0,0.0,0.0,0.0,0.0,0.0,0.0,0.0,0.0,0.0,0.0,0.0,0.0,0.0,0.0,0.0,0.0,0.0,0.0,0.0,0.0,0.0,0.0,0.0,0.0,0.0,0.0,0.0,0.0,0.0,0.0,0.0,0.0,0.0,0.0,0.0,0.0,0.0,0.0,0.0,0.0,0.0,0.0,0.0,0.0,0.0,0.0,0.0,0.0,0.0,0.0,0.0,0.0,0.0,0.0,0.0,0.0,0.0,0.0,0.0,0.0,0.0,0.0,0.0,0.0,0.0,0.0,0.0,0.0,0.0,0.0,0.0,0.0,0.0,0.0,0.0,0.0,0.0,0.0,0.0,0.0,0.0,0.0,0.0,0.0,0.0,0.0,0.0,0.0,0.0,0.0,0.0,0.0,0.0,0.0,0.0,0.0,0.0,0.0,0.0,0.0,0.0,0.0,0.0,0.0,0.0,0.0,0.0,0.0,0.0,0.0,0.0,0.0,0.0,0.0,0.0,0.0,0.0,0.0,0.0,0.0,0.0,0.0,0.0,0.0,0.0,0.0,0.0,0.0,0.0,0.0,0.0,0.0,0.0,0.0,0.0,0.0,-2.8402,-2.7383,0.0,0.0,0.0,0.0,0.0,0.0,0.0,0.0,0.0,0.0,0.0,0.0,0.0,0.0,0.0,0.0,0.0,0.0,0.0,0.0,0.0,0.0,0.0,-2.3111,-2.3572,-2.4441,-2.4622,-2.5152,-2.6155,0.0,0.0,0.0,0.0,0.0,0.0,0.0,-2.6657,-2.6855,-2.6855,-2.6765,-2.6567,-2.7086,-2.6945,-2.6317,0.0,0.0,0.0,0.0,0.0,0.0,0.0,0.0,0.0,0.0,0.0,0.0,0.0,0.0,0.0,0.0,0.0,0.0,0.0,0.0,0.0,0.0,0.0,0.0,0.0,0.0,0.0,0.0,0.0,0.0,0.0,0.0,0.0,0.0,0.0,0.0,0.0,0.0,0.0,0.0,0.0,0.0,0.0,0.0,0.0,0.0,0.0,0.0,0.0,0.0,0.0,0.0,0.0,0.0,0.0,0.0,0.0,0.0,0.0,0.0,0.0,0.0,0.0,0.0,0.0,0.0,0.0,0.0,0.0,0.0,-2.8684,-2.7877,0.0,0.0,0.0,0.0,0.0,0.0,0.0,0.0,0.0,0.0,0.0,0.0,0.0,0.0,0.0,0.0,0.0,0.0,0.0,0.0,0.0,-2.0113,-2.1554,-2.1745,-2.2348,-2.3862,-2.4059,-2.4337,-2.4984,-2.4617,-2.4655,-2.5245,-2.4917,-2.4753,-2.4818,-2.4818,-2.4884,-2.4999,-2.5087,-2.5142,-2.5332,-2.6842,-2.7341,-2.6918,-2.7266,0.0,0.0,0.0,0.0,0.0,0.0,0.0,0.0,0.0,0.0,0.0,0.0,0.0,0.0,0.0,0.0,0.0,0.0,0.0,0.0,0.0,0.0,0.0,0.0,0.0,0.0,0.0,0.0,0.0,0.0,0.0,0.0,0.0,0.0,0.0,0.0,0.0,0.0,0.0,0.0,0.0,0.0,0.0,0.0,0.0,0.0,0.0,0.0,0.0,0.0,0.0,0.0,0.0,0.0,0.0,0.0,0.0,0.0,0.0,0.0,0.0,0.0,0.0,-3.0469,-3.0723,-3.0976,-3.1016,-3.0957,-3.082,-2.9998,-2.9384,-2.8888,-2.8146,0.0,0.0,0.0,0.0,0.0,0.0,0.0,0.0,0.0,0.0,0.0,0.0,0.0,0.0,0.0,0.0,0.0,0.0,0.0,-2.0194,-2.0402,-2.0693,-2.0992,-2.1218,-2.1451,-2.2228,-2.3746,-2.3368,-2.3791,-2.5261,-2.4917,-2.4867,-2.5238,-2.5238,-2.5551,-2.6175,-2.6579,-2.7068,-2.7535,-2.754,-2.7146,-2.6537,-2.6406,-2.5918,-2.5091,0.0,0.0,0.0,0.0,0.0,0.0,0.0,0.0,0.0,0.0,0.0,0.0,0.0,0.0,0.0,0.0,0.0,0.0,0.0,0.0,0.0,0.0,0.0,0.0,0.0,0.0,0.0,0.0,0.0,0.0,0.0,0.0,0.0,0.0,0.0,0.0,0.0,0.0,0.0,0.0,0.0,-2.795,-2.7904,0.0,0.0,0.0,0.0,0.0,0.0,0.0,0.0,0.0,0.0,0.0,0.0,0.0,-3.1894,-3.2207,-3.3359,-3.3594,-3.293,-3.4082,-3.4434,-3.4101,-3.4101,-3.3906,-3.3598,-3.345,0.0,-2.947,-2.9545,0.0,0.0,0.0,0.0,0.0,0.0,0.0,0.0,0.0,0.0,0.0,0.0,0.0,0.0,0.0,0.0,0.0,0.0,0.0,0.0,0.0,-2.0017,-1.9793,-1.9858,-1.9484,-1.9703,-2.1043,-2.1018,-2.1537,-2.2871,-2.2772,-2.2772,-2.2965,-2.3271,-2.3946,-2.4973,-2.567,-2.5981,-2.6082,-2.709,-2.7054,-2.6182,-2.5993,-2.5452,-2.4522,-2.3431,0.0,0.0,0.0,0.0,0.0,0.0,0.0,0.0,0.0,0.0,0.0,0.0,0.0,0.0,0.0,0.0,0.0,0.0,0.0,0.0,0.0,0.0,0.0,0.0,0.0,0.0,0.0,0.0,0.0,0.0,0.0,0.0,0.0,0.0,0.0,0.0,0.0,0.0,0.0,-2.7812,-2.8828,-2.8359,-2.8711,-2.8555,0.0,0.0,0.0,0.0,0.0,0.0,0.0,0.0,0.0,-3.3262,-3.3984,-3.4531,-3.498,-3.5762,-3.6094,-3.5957,-3.6543,-3.6719,-3.6504,-3.6504,-3.6289,-3.5879,-3.5644,-3.4648,-3.309,-3.1442,-2.9857,-2.852,0.0,0.0,0.0,0.0,-2.9742,-2.9202,0.0,0.0,0.0,0.0,0.0,0.0,0.0,0.0,0.0,0.0,0.0,0.0,-2.0349,-1.9352,-1.8692,-1.8816,-1.8161,-1.802,-1.8696,-1.9127,-1.9717,-2.0516,-2.0922,-2.1149,-2.1216,-2.2031,-2.306,-2.4329,-2.5064,-2.5384,-2.5317,-2.6701,-2.6858,-2.6099,-2.5855,-2.5167,-2.4186,-2.3528,-2.2583,-2.1655,0.0,0.0,0.0,0.0,0.0,0.0,0.0,0.0,0.0,0.0,0.0,0.0,0.0,0.0,0.0,0.0,0.0,0.0,0.0,0.0,0.0,0.0,0.0,0.0,0.0,0.0,0.0,0.0,0.0,0.0,0.0,0.0,0.0,0.0,0.0,0.0,0.0,-2.9199,-3.0156,-2.9082,-2.9776,-2.9508,0.0,0.0,0.0,0.0,0.0,0.0,-3.0892,-3.3039,-3.4746,-3.582,-3.6601,-3.7226,-3.7656,-3.7969,-3.8223,-3.8437,-3.8437,-3.8359,-3.8242,-3.8242,-3.7969,-3.7441,-3.7129,-3.668,-3.5976,-3.3281,-3.1543,-3.0564,-3.0394,-2.9962,-2.9547,-3.0641,-3.037,-2.9525,0.0,0.0,0.0,0.0,0.0,0.0,0.0,0.0,0.0,0.0,0.0,-1.9192,-1.9416,-1.8352,-1.7663,-1.7784,-1.7701,-1.7611,-1.7375,-1.8541,-1.9207,-1.9107,-2.0412,-2.1243,-2.1588,-2.3008,-2.4396,-2.5929,-2.6172,-2.66,-2.7121,-2.6934,-2.664,-2.6383,-2.5805,-2.5235,-2.4487,-2.1964,-2.1194,-2.1697,-2.0847,0.0,0.0,0.0,0.0,0.0,0.0,0.0,0.0,0.0,0.0,0.0,0.0,0.0,0.0,0.0,0.0,0.0,0.0,0.0,0.0,0.0,0.0,0.0,0.0,0.0,0.0,0.0,0.0,0.0,0.0,0.0,0.0,0.0,0.0,0.0,0.0,0.0,0.0,-3.0957,-3.1596,0.0,0.0,0.0,0.0,-2.9988,-3.0223,-3.1854,-3.5452,-3.6181,-3.7266,-3.8926,-3.9453,-3.9902,-4.0332,-4.0351,-4.0176,-3.9805,-3.9805,-3.957,-3.9141,-3.9141,-3.8672,-3.7891,-3.7871,-3.7402,-3.6504,-3.4687,-3.3672,-3.3105,-3.1896,-3.1387,-3.1289,-3.1034,-3.1074,-3.1231,0.0,0.0,0.0,-1.943,-1.9613,-1.9867,-2.0054,-2.0414,-2.0362,-1.9385,-1.926,-1.893,-1.8124,-1.7285,-1.6781,-1.6841,-1.6221,-1.5973,-1.6432,-1.7604,-1.8683,-1.9794,-2.1196,-2.1858,-2.1691,-2.13,-2.159,-2.2644,-2.477,-2.5762,-2.5762,-2.7233,-2.7709,-2.7215,-2.6814,-2.6324,-2.5681,-2.3593,-2.2198,-2.1374,-2.1727,-2.1481,0.0,0.0,0.0,0.0,0.0,0.0,0.0,0.0,0.0,0.0,0.0,0.0,0.0,0.0,0.0,0.0,0.0,0.0,0.0,0.0,0.0,0.0,0.0,0.0,0.0,0.0,0.0,0.0,0.0,0.0,0.0,0.0,0.0,0.0,0.0,0.0,0.0,-2.9705,-3.0613,0.0,-2.8774,-2.8472,-2.9135,-3.0795,-3.2897,-3.5047,-3.7371,-3.8855,-3.9961,-4.084,-4.0762,-4.0781,-4.0937,-4.0937,-4.0859,-4.0723,-4.0723,-4.0488,-4.0039,-3.9766,-3.9316,-3.8711,-3.8164,-3.7598,-3.7012,-3.6113,-3.5156,-3.4141,-3.3144,-3.2578,-3.2285,-3.1875,-3.1816,-3.1894,0.0,-1.943,0.0,-1.943,-1.9613,-1.9893,-2.0187,-2.0481,-2.0242,-1.8894,-1.8761,-1.8341,-1.7118,-1.6318,-1.5973,-1.6026,-1.5187,-1.4839,-1.5257,-1.6318,-1.7322,-1.8373,-1.9979,-2.0918,-2.1129,-2.0334,-2.0294,-2.1094,-2.3246,-2.4074,-2.374,-2.6216,-2.7106,-2.6729,-2.731,-2.7295,-2.6747,-2.5491,-2.3861,-2.2177,-2.2622,-2.221,-2.1419,0.0,0.0,0.0,0.0,0.0,0.0,0.0,0.0,0.0,0.0,0.0,0.0,0.0,0.0,0.0,0.0,0.0,0.0,0.0,0.0,0.0,0.0,0.0,0.0,0.0,0.0,0.0,0.0,0.0,0.0,0.0,0.0,0.0,0.0,-2.8926,-2.9747,-2.9081,-3.0209,-3.0369,-2.8804,-2.9671,-3.0943,-3.2452,-3.5305,-3.7763,-3.9613,-4.0933,-4.1719,-4.2012,-4.1601,-4.1387,-4.1387,-4.125,-4.1172,-4.1172,-4.1172,-4.0859,-4.0293,-4.0019,-3.957,-3.8965,-3.8398,-3.7812,-3.7266,-3.6992,-3.6113,-3.4863,-3.4141,-3.3594,-3.3184,-3.2754,-3.2598,-3.2559,-1.9301,-1.9301,-1.9243,-1.9243,-1.9482,-1.9774,-2.0066,-2.0358,-2.0182,-1.9252,-1.8249,-1.7295,-1.6422,-1.5503,-1.5038,-1.5181,-1.4923,-1.4496,-1.3892,-1.4754,-1.513,-1.4827,-1.6628,-1.8319,-1.959,-2.016,-2.0783,-2.1472,-2.168,-2.1661,-2.1409,-2.3675,-2.4765,-2.4702,-2.694,-2.7808,-2.7433,-2.7237,-2.5976,-2.4017,-2.33,-2.2739,-2.2432,0.0,0.0,0.0,0.0,0.0,0.0,0.0,0.0,0.0,0.0,0.0,0.0,0.0,0.0,0.0,0.0,0.0,0.0,0.0,0.0,0.0,0.0,0.0,0.0,0.0,0.0,0.0,0.0,0.0,0.0,0.0,0.0,0.0,-2.674,-2.918,-3.0469,-2.9409,-3.0574,-3.0699,-2.8933,-3.0638,-3.2897,-3.5312,-3.7636,-3.9956,-4.23,-4.2441,-4.2441,-4.2441,-4.2012,-4.1797,-4.1797,-4.1387,-4.1172,-4.1172,-4.1172,-4.0723,-3.9922,-3.9902,-3.9414,-3.8594,-3.8574,-3.8086,-3.7305,-3.7305,-3.6543,-3.5332,-3.4883,-3.4434,-3.4023,-3.3574,-3.3418,-3.3281,-1.7406,-1.6646,-1.5821,-1.588,-1.6171,-1.6839,-1.8313,-1.77,-1.713,-1.7271,-1.6545,-1.5616,-1.4843,-1.5048,-1.535,-1.5499,-1.5235,-1.4808,-1.4211,-1.4998,-1.6189,-1.7643,-1.7378,-1.7698,-1.8564,-1.7341,-1.6926,-1.7261,-1.904,-1.9706,-1.9458,-2.1681,-2.2568,-2.2336,-2.2848,-2.3082,-2.3016,-2.295,-2.2569,-2.2184,-2.3846,-2.4035,-2.3356,0.0,0.0,0.0,0.0,0.0,0.0,0.0,0.0,0.0,0.0,0.0,0.0,0.0,0.0,0.0,0.0,0.0,0.0,0.0,0.0,0.0,0.0,0.0,0.0,0.0,0.0,0.0,0.0,0.0,0.0,0.0,-2.4716,-2.5576,-2.6962,-2.7633,-2.8194,-2.8697,-3.089,-3.2339,-3.2204,-3.5752,-3.8432,-3.9409,-4.1304,-4.2785,-4.3828,-4.2949,-4.2578,-4.2891,-4.1894,-4.1484,-4.1797,-4.1387,-4.1172,-4.1172,-4.1172,-4.0879,-4.0332,-4.0039,-3.957,-3.9004,-3.8711,-3.8086,-3.7305,-3.7305,-3.6348,-3.4883,-3.4746,-3.4434,-3.4023,-3.3574,-3.3223,-3.2891,-1.6494,-1.5358,-1.431,-1.4476,-1.4628,-1.5181,-1.6481,-1.6053,-1.5574,-1.5602,-1.5469,-1.5116,-1.4325,-1.4889,-1.5377,-1.5527,-1.5147,-1.4652,-1.4061,-1.439,-1.5302,-1.6892,-1.6467,-1.6522,-1.7185,-1.6142,-1.5615,-1.573,-1.7069,-1.7614,-1.7305,-1.9388,-2.0252,-1.9971,-2.0801,-2.1221,-2.1221,-2.1221,-2.1221,-2.1312,-2.2876,-2.3666,-2.396,-2.3648,-2.3407,-2.31,-2.2218,-2.1951,-2.1871,-2.0815,0.0,0.0,0.0,0.0,0.0,0.0,0.0,0.0,0.0,0.0,0.0,0.0,0.0,0.0,0.0,0.0,0.0,0.0,0.0,0.0,0.0,0.0,0.0,0.0,-2.5316,-2.6378,-2.7535,-2.7607,-2.7963,-2.9032,-3.0696,-3.2368,-3.3828,-3.633,-3.8421,-3.9687,-4.1592,-4.281,-4.2885,-4.2186,-4.2239,-4.334,-4.0422,-3.9493,-4.0735,-3.9258,-3.8487,-3.8487,-3.8487,-3.8176,-3.7627,-3.8251,-3.7745,-3.6382,-3.6884,-3.6267,-3.4845,-3.4681,-3.3857,-3.2753,0.0,0.0,0.0,0.0,-3.2891,-3.248,-1.6287,-1.5086,-1.4065,-1.43,-1.4167,-1.4259,-1.4882,-1.4809,-1.4583,-1.4218,-1.4833,-1.5062,-1.4496,-1.4821,-1.5153,-1.5323,-1.4814,-1.4265,-1.3736,-1.3464,-1.3702,-1.455,-1.4916,-1.5343,-1.5866,-1.6029,-1.6035,-1.5879,-1.5859,-1.5642,-1.5322,-1.7165,-1.7887,-1.7712,-1.9618,-2.0462,-2.0443,-2.0443,-2.0443,-2.0443,-2.0702,-2.2033,-2.3888,-2.4334,-2.4661,-2.4713,-2.3896,-2.3458,-2.309,-2.2185,0.0,0.0,0.0,0.0,0.0,0.0,0.0,0.0,0.0,0.0,0.0,0.0,0.0,0.0,0.0,0.0,0.0,0.0,0.0,0.0,0.0,0.0,0.0,0.0,-2.6453,-2.7629,-2.8341,-2.8631,-2.9112,-2.9833,-3.0465,-3.1854,-3.4306,-3.4623,-3.5617,-3.7858,-3.9859,-4.0856,-4.0413,-4.0479,0.0,0.0,0.0,-3.6724,-3.8822,-3.6076,-3.4732,-3.4732,-3.4732,-3.4305,-3.3706,-3.5487,-3.4915,-3.2614,-3.4066,-3.35,-3.1366,-3.1148,-3.048,-2.996,-3.2873,-3.3649,-3.3044,-3.268,-3.2396,-3.2109,-1.606,-1.4798,-1.3674,-1.3838,-1.285,-1.2641,-1.4421,-1.2535,-1.1703,-1.3904,-1.3483,-1.3202,-1.3858,-1.4272,-1.4577,-1.4848,-1.4543,-1.4292,-1.4177,-1.4224,-1.4496,-1.5031,-1.5574,-1.592,-1.6035,-1.6185,-1.6191,-1.6035,-1.5913,-1.575,-1.5547,-1.5734,-1.5618,-1.5314,-1.5689,-1.572,-1.5601,-1.5601,-1.5601,-1.5778,-1.7676,-1.9627,-2.144,-2.1325,-2.1026,-2.0596,-1.9933,-2.1101,-2.2769,-2.1707,-2.2752,-2.4195,-2.302,-2.1951,0.0,0.0,0.0,0.0,0.0,0.0,0.0,0.0,0.0,0.0,0.0,0.0,0.0,0.0,0.0,0.0,0.0,0.0,0.0,-2.5932,-2.7375,-2.8631,-2.9459,-3.0034,-3.0261,-2.9953,-3.2138,-3.3943,-3.4725,-3.6798,-3.8233,-3.8778,-3.8858,-3.8853,-3.8769,-3.8129,-3.804,-3.8493,-3.6608,-3.5808,-3.6392,-3.526,-3.4732,-3.4732,-3.4732,0.0,-3.3911,-3.4104,-3.3659,-3.2824,-3.2693,-3.21,-3.1366,-3.1148,-3.0331,-2.9303,-2.9615,-3.0399,-3.1249,-3.0864,-3.137,-3.2109,-1.7265,-1.5183,-1.3452,-1.3552,-1.2974,-1.2861,-1.3973,-1.2972,-1.2766,-1.4539,-1.4525,-1.4662,-1.5575,-1.5051,-1.4721,-1.4957,-1.4098,-1.3641,-1.3946,-1.438,-1.493,-1.5601,-1.6137,-1.6415,-1.6415,-1.649,-1.6422,-1.6198,-1.6117,-1.5927,-1.5635,-1.5323,-1.5025,-1.4726,-1.4509,-1.4367,-1.4299,-1.4299,-1.4299,-1.4387,-1.5601,-1.6673,-1.7793,-1.9913,-2.0587,-2.0283,-1.998,-2.0714,-2.1938,-2.2179,-2.3033,-2.4047,-2.4148,-2.3688,-2.2832,0.0,0.0,0.0,0.0,0.0,0.0,0.0,0.0,0.0,0.0,0.0,0.0,0.0,0.0,-2.31,-2.3834,0.0,-2.6119,-2.7308,-2.8497,-2.9472,-3.006,-3.0648,-3.0902,-3.0608,-3.2038,-3.355,-3.4977,-3.5234,-3.5881,-3.7067,-3.6911,-3.6738,-3.6474,-3.5973,-3.625,-3.7304,-3.4009,-3.2804,-3.406,-3.2305,-3.149,-3.149,-3.149,-3.1153,-3.0659,-3.152,-3.1101,-2.9658,-3.0236,-2.9743,-2.8402,-2.7818,-2.7173,-2.6474,-2.6076,-2.7407,-2.9422,-2.8978,-2.9186,-2.9563,-1.8901,-1.6586,-1.4733,-1.4916,-1.4789,-1.4625,-1.4473,-1.4547,-1.4769,-1.5177,-1.5734,-1.6381,-1.7165,-1.601,-1.5127,-1.5113,-1.3953,-1.3401,-1.3715,-1.4455,-1.5248,-1.609,-1.6497,-1.6693,-1.6666,-1.6666,-1.653,-1.6266,-1.6239,-1.6022,-1.5635,-1.5357,-1.5052,-1.4726,-1.4489,-1.4353,-1.4299,-1.4299,-1.4299,-1.4299,-1.4299,-1.4543,-1.5293,-1.8999,-2.0231,-1.9922,-2.0356,-2.0591,-2.0894,-2.2996,-2.3342,-2.3197,-2.4507,-2.4646,-2.4035,-2.2358,-2.2543,0.0,0.0,0.0,0.0,0.0,0.0,0.0,0.0,-2.175,-2.2231,-2.3166,-2.3981,-2.4836,-2.5838,-2.6694,-2.7602,-2.8684,-2.9553,-3.0194,-3.0488,-3.0982,-3.1316,-3.1316,-3.153,-3.2502,-3.442,-3.2866,-3.2502,-3.442,-3.4592,-3.449,-3.4149,-3.3905,-3.4442,-3.5898,-3.1523,-2.9914,-3.1722,-2.9409,-2.8221,-2.8221,-2.8221,-2.7953,-2.743,-2.9029,-2.8542,-2.6532,-2.7783,-2.7154,-2.5277,-2.4516,-2.4035,-2.3741,-2.3447,-2.4847,-2.7028,-2.6938,-2.6954,-2.7024,-2.0184,-1.9844,-1.9693,-2.0087,-1.9424,-1.8447,-1.7393,-1.6181,-1.5274,-1.4888,-1.5042,-1.5485,-1.6273,-1.6161,-1.5628,-1.444,-1.4905,-1.4999,-1.4264,-1.4923,-1.5622,-1.6259,-1.6449,-1.649,-1.6361,-1.6361,-1.6279,-1.611,-1.5967,-1.5811,-1.5635,-1.5466,-1.5153,-1.474,-1.4706,-1.4543,-1.4299,-1.4299,-1.4299,-1.4299,-1.4299,-1.5345,-1.7,-1.751,-1.6594,-1.5344,-1.7413,-1.8956,-2.0475,-2.3495,-2.3997,-2.3482,-2.4093,-2.3962,-2.3229,-2.1731,-2.2231,-2.3033,-2.1735,-2.1494,-2.1842,-2.2699,-2.2779,-2.3233,0.0,-2.5531,-2.5344,-2.6493,-2.7014,-2.7375,-2.7859,-2.8364,-2.9005,-2.9659,-3.0287,-3.0795,-3.1089,-3.141,-3.1623,-3.1623,-3.165,-3.1853,-3.2029,-3.1853,-3.1853,-3.2029,-3.2124,-3.211,-3.2083,-3.1705,-3.1471,-3.1171,-3.002,-2.9353,-2.9073,-2.848,-2.8221,-2.8221,-2.8221,-2.7963,-2.7642,-2.7621,-2.7324,-2.6734,-2.6138,-2.5464,-2.4703,-2.4356,-2.4035,-2.3741,-2.3447,-2.3172,-2.3223,-2.4334,-2.572,-2.6991,-2.0917,-2.1154,-2.1597,-2.246,-2.1404,-2.021,-1.9704,-1.9464,-1.9308,-1.9299,-1.9492,-1.9523,-1.9285,-1.7628,-1.601,-1.4697,-1.4643,-1.4853,-1.5158,-1.5202,-1.5506,-1.6022,-1.6354,-1.6415,-1.6185,-1.6347,-1.6273,-1.5947,-1.5974,-1.5825,-1.5499,-1.5262,-1.5004,-1.4733,-1.4563,-1.4414,-1.4299,-1.4299,-1.508,-1.6378,-1.6378,-1.7566,-1.9344,-1.9137,-1.8175,-1.7227,-1.8337,-1.8961,0.0,-2.2245,-2.2877,-2.2941,-2.4858,-2.5072,-2.444,-2.3455,-2.3741,-2.4195,-2.3527,-2.31,-2.3006,-2.3674,-2.4128,-2.469,-2.5812,-2.6039,-2.6306,-2.7308,-2.7896,-2.8364,-2.8845,-2.9272,-2.974,-3.0327,-3.0768,-3.1142,-3.145,-3.1597,-3.1543,-3.1196,-3.1303,-3.1476,-3.165,-3.1664,-3.1664,-3.1664,-3.1664,-3.1597,-3.1423,-3.1129,-3.0702,-3.0114,-2.9526,-2.9018,-2.8604,-2.8297,-2.8221,-2.8221,-2.8221,-2.798,-2.7442,-2.7321,-2.6921,-2.6293,-2.5745,-2.5277,-2.485,-2.4209,-2.3875,-2.3728,-2.3247,-2.2899,-2.2768,-2.3126,-2.35,-2.3848,-2.181,-2.2049,-2.2588,-2.346,-2.2592,-2.1676,-2.1438,-2.1828,-2.2179,-2.2228,-2.2417,-2.2365,-2.1775,-1.9707,-1.7691,-1.5942,-1.5698,-1.5876,-1.6302,-1.5828,-1.5875,-1.6537,-1.625,-1.6069,-1.59,-1.6103,-1.6076,-1.5791,-1.5818,-1.5669,-1.5343,-1.5045,-1.4828,-1.4665,-1.4455,-1.434,-1.4299,-1.4992,-1.629,-1.7842,-1.8391,-1.9761,-2.1432,-2.0982,-2.0548,-2.0337,-2.021,-1.9594,-1.9181,-2.1737,-2.2058,-2.1674,-2.4072,-2.4598,-2.4237,-2.3674,-2.3962,-2.4436,-2.4315,-2.4088,-2.4022,-2.4556,-2.5344,-2.6012,-2.6092,-2.6573,-2.7201,-2.7923,-2.8484,-2.9005,-2.9513,-2.9913,-3.0327,-3.0835,-3.1223,-3.1543,-3.1757,-3.165,-3.1356,-3.0849,-3.0835,-3.0982,-3.1276,-3.145,-3.1583,-3.1664,-3.1664,-3.1543,-3.1236,-3.0955,-3.0488,-2.982,-2.9299,-2.8858,-2.8484,-2.8341,-2.8221,-2.8221,-2.8221,-2.7913,-2.7255,-2.7014,-2.6507,-2.5812,-2.5518,-2.5224,-2.4903,-2.4182,-2.3848,-2.3714,-2.3193,-2.2886,-2.2699,-2.2405,-2.2031,-2.1722,-2.3057,-2.3057,-2.3076,-2.312,-2.3427,-2.34,-2.2521,-2.2357,-2.2162,-2.1593,-2.154,-2.1767,-2.238,-2.2408,-2.1209,-1.842,-1.9248,-1.924,-1.7743,-1.6845,-1.6887,-1.8051,-1.6248,-1.5289,-1.5432,-1.5438,-1.5513,-1.5649,-1.535,-1.5201,-1.5181,-1.4882,-1.4665,-1.4516,-1.4509,-1.4428,-1.4476,-1.6729,-1.7763,-1.8008,-1.9961,-2.1735,-2.3225,-2.2301,-2.2692,-2.3465,-2.2329,-2.0809,-1.9888,-2.3065,-2.2069,-1.9619,-2.0589,-2.1054,-2.1268,-2.0927,-2.1852,-2.2993,-2.3287,-2.3768,-2.4462,-2.5611,-2.656,-2.7281,-2.7562,-2.8096,-2.8631,-2.8938,-2.9245,-2.9553,-2.9847,-3.0381,-3.0862,-3.1169,-3.1704,-3.2078,-3.2091,-3.1597,-3.1129,-3.0822,-3.0301,-3.0074,-3.0368,-3.0902,-3.1356,-3.165,-3.1664,-3.1543,-3.1236,-3.0955,-3.0394,-2.9526,-2.9205,-2.8751,-2.8248,-2.8234,-2.8221,-2.8221,-2.8221,-2.7913,-2.7241,-2.6386,-2.5825,-2.5504,-2.5224,-2.493,-2.4623,-2.4315,-2.4022,-2.3741,-2.3434,-2.2953,-2.2392,-2.2111,-2.1991,-2.1884,-2.5358,-2.4974,-2.4536,-2.4272,-2.4007,-2.3596,-2.2948,-2.3358,-2.3749,-2.3862,-2.3372,0.0,0.0,0.0,0.0,0.0,-2.0699,-2.0671,-2.1308,-1.9715,-1.9272,-2.0303,-1.9637,-1.92,-1.9138,-1.9608,-1.986,-1.9798,-1.9665,-1.9623,-1.949,-1.9231,-1.916,-1.9088,-1.8954,-1.8952,-1.8889,-1.9749,-2.0962,-2.2396,-2.2697,-2.3916,-2.5558,-2.4444,-2.3684,-2.307,0.0,-2.1196,-2.0679,-2.178,-2.1411,-2.0676,-2.1323,-2.1348,-2.1108,-2.1006,-2.2008,-2.3273,-2.3768,-2.477,-2.5892,-2.6867,-2.7642,-2.823,-2.8524,-2.8898,-2.9165,-2.9058,-2.8965,-2.8938,-2.9032,-2.9366,-2.9793,-3.0274,-3.1183,-3.181,-3.181,-3.1984,-3.1637,-3.0368,-3.0381,-3.0314,-2.9833,-3.0301,-3.0849,-3.1343,-3.137,-3.1249,-3.0955,-3.0849,-3.0301,-2.9219,-2.9085,-2.8751,-2.8234,-2.8221,-2.8221,-2.8221,-2.7832,-2.7537,-2.7241,-2.6439,-2.5798,-2.5504,-2.5211,-2.4796,-2.4329,-2.4035,-2.3741,-2.3447,-2.314,-2.2779,-2.2378,-2.2098,-2.1857,-2.1643,0.0,-2.6023,-2.5371,-2.5355,-2.4472,0.0,0.0,0.0,0.0,0.0,0.0,0.0,0.0,0.0,0.0,0.0,0.0,-2.2024,-2.3157,-2.1603,-2.1148,-2.2485,-2.172,-2.1304,-2.1408,-2.1768,-2.1671,-2.1368,-2.1368,-2.1216,-2.0816,-2.0772,-2.0712,-2.0712,-2.0727,-2.0782,-2.0782,-2.1631,-2.277,-2.408,-2.4211,-2.4873,-2.5758,-2.4583,-2.3407,0.0,-2.1403,-2.0895,-2.0615,-2.0401,-2.0401,-2.0575,-2.1056,-2.1229,-2.1309,-2.1523,-2.2405,-2.3567,-2.469,-2.5745,-2.68,-2.7909,-2.847,-2.8804,-2.8991,-2.9192,-2.9272,-2.9085,-2.8631,-2.8283,-2.8283,-2.835,-2.8631,-2.9339,-3.0261,-3.1076,-3.1597,-3.173,-3.1423,-3.0501,-3.0434,-3.0301,-2.9847,-3.0047,-3.0448,-3.1022,-3.1169,-3.1049,-3.0662,-3.0541,-3.0034,-2.9072,-2.8938,-2.8644,-2.8234,-2.8221,-2.8221,-2.8221,-2.7631,-2.7268,-2.7228,-2.6239,-2.5692,-2.5491,-2.509,-2.4649,-2.4182,-2.3888,-2.3594,-2.33,-2.2979,-2.2686,-2.2378,-2.2098,-2.1804,-2.1574,0.0,0.0,-2.5669,0.0,0.0,0.0,0.0,0.0,0.0,0.0,0.0,0.0,0.0,0.0,0.0,0.0,0.0,0.0,-2.3562,-2.2632,-2.2871,-2.4549,-2.2819,-2.209,-2.2629,-2.2199,-2.1614,-2.0891,-2.1001,-2.0576,-1.9705,-1.9896,-1.9987,-1.9997,-2.0293,-2.0385,-2.0385,-2.2669,-2.3338,-2.3123,-2.4468,-2.4649,-2.4008,-2.2846,-2.2031,-2.148,-2.0561,-2.0054,-1.972,-1.9158,-1.9199,-1.9533,-1.984,-2.0735,-2.1842,-2.2338,-2.2979,-2.3928,-2.5879,-2.668,-2.7295,-2.8711,-2.9058,-2.9058,-2.9058,-2.9045,-2.9018,-2.8938,-2.823,-2.7589,-2.7509,-2.7335,-2.7495,-2.839,-2.9125,-3.0074,-3.149,-3.1009,-3.0702,-3.1196,-3.0528,-3.0127,-3.0381,-3.0154,-3.0221,-3.0768,-3.1049,-3.0955,-3.0394,-3.01,-2.9659,-2.9032,-2.8751,-2.8457,-2.8234,-2.8207,-2.8207,-2.8194,-2.7522,-2.7241,-2.7201,-2.6039,-2.5518,-2.5478,-2.489,-2.4462,-2.4155,-2.3888,-2.3581,-2.3273,-2.2979,-2.2686,-2.2378,-2.2098,-2.1804,-2.1574,0.0,0.0,0.0,0.0,0.0,0.0,0.0,0.0,0.0,0.0,0.0,0.0,0.0,0.0,0.0,0.0,0.0,0.0,-2.8711,-2.7796,-2.7865,-2.9359,-2.8674,-2.8483,-2.9005,-2.8351,-2.7878,-2.7726,-2.7087,-2.6634,-2.643,-2.6821,-2.6922,-2.6922,-2.7008,-2.6397,-2.5302,-2.5916,-2.5256,-2.3861,-2.3819,-2.3541,-2.3126,-2.2378,-2.1737,-2.1162,-2.0722,-2.0227,-1.9773,-1.9626,-2.0214,-2.1145,-2.159,-2.2418,-2.3273,-2.3634,-2.4783,-2.6052,-2.6573,-2.7736,-2.8898,-2.9272,-2.9366,-2.9366,-2.9366,-2.9205,-2.8724,-2.7615,-2.6867,-2.6066,-2.497,-2.5611,-2.6653,-2.7468,-2.9392,-3.1062,-3.1877,-3.2358,-3.2358,-3.1637,-3.1543,-3.1396,-3.1036,-3.0929,-3.0955,-3.1102,-3.0982,-3.0742,-3.0381,-3.0287,-2.978,-2.8751,-2.8644,-2.8457,-2.8234,-2.7923,-2.7816,-2.7802,-2.7215,-2.6934,-2.6907,-2.5945,-2.5518,-2.5478,-2.489,-2.4342,-2.3875,-2.3794,-2.346,-2.2979,-2.2968,-2.2686,-2.2378,-2.2098,-2.1804,-2.1574,0.0,0.0,0.0,0.0,0.0,0.0,0.0,0.0,0.0,0.0,0.0,0.0,0.0,0.0,0.0,0.0,0.0,0.0,0.0,-2.9483,-2.977,-3.0905,-3.0738,-3.087,-3.1368,-3.0976,-3.0287,-2.9269,-2.92,-2.8587,-2.763,-2.7984,-2.8212,-2.8228,-2.8321,-2.7836,-2.7024,-2.7024,-2.5943,0.0,0.0,-2.2761,-2.1871,-2.1537,-2.1203,-2.0895,-2.0735,-2.0708,-2.0802,-2.1056,-2.1496,-2.2098,-2.3086,-2.3741,-2.4315,-2.5117,-2.6052,-2.6961,-2.7615,-2.8617,-2.9513,-2.9646,-2.9579,-2.9339,-2.8818,-2.8364,-2.7682,-2.6333,-2.5384,-2.4556,-2.3728,-2.4462,-2.5518,-2.6533,-2.8591,-3.0501,-3.1744,-3.2332,-3.2545,-3.2278,-3.2278,-3.2171,-3.1837,-3.169,-3.161,-3.161,-3.1102,-3.0608,-3.0194,-2.9913,-2.9419,-2.8631,-2.847,-2.8323,-2.8221,-2.7976,-2.7829,-2.7696,-2.7241,-2.6947,-2.68,-2.6052,-2.5638,-2.5491,-2.5024,-2.4502,-2.3955,-2.3821,-2.3487,-2.3046,-2.2913,-2.2605,-2.2205,-2.2044,-2.1724,-2.1336,0.0,0.0,0.0,0.0,0.0,0.0,0.0,0.0,0.0,0.0,-2.4394,-2.4766,-2.5243,-2.5302,0.0,0.0,0.0,0.0,0.0,0.0,-3.0352,-3.1074,-3.1097,-3.1324,-3.1724,-3.1698,-3.0608,-2.8457,-2.9111,-2.8376,-2.6288,-2.6653,-2.6852,-2.6919,-2.7123,-2.7144,-2.6953,-2.6953,-2.5849,-2.4172,-2.3651,-2.2389,-2.0801,0.0,-2.0733,-2.0575,-2.0641,-2.1216,-2.2044,-2.2832,-2.3006,-2.314,-2.4583,-2.513,-2.5478,-2.6841,-2.7255,-2.7575,-2.8858,-2.9432,-2.9713,-2.9927,-2.9726,-2.9165,-2.7923,-2.7188,-2.6386,-2.5064,-2.3981,-2.322,-2.306,-2.3607,-2.4516,-2.5798,-2.7468,-2.9352,-3.149,-3.1784,-3.2091,-3.2933,-3.2812,-3.2666,-3.2666,-3.2358,-3.2144,-3.2104,-3.1289,-3.0541,-2.9953,-2.9392,-2.8925,-2.8564,-2.8283,-2.8221,-2.8221,-2.8181,-2.7936,-2.7642,-2.7348,-2.7054,-2.6747,-2.6159,-2.5758,-2.5491,-2.517,-2.4716,-2.4182,-2.3928,-2.3634,-2.33,-2.3033,-2.2565,-2.2044,-2.2044,-2.167,-2.1162,0.0,0.0,0.0,0.0,0.0,0.0,0.0,0.0,0.0,0.0,-2.5684,-2.5664,0.0,0.0,0.0,0.0,0.0,0.0,0.0,0.0,0.0,-3.333,-3.333,-3.3576,-3.4118,-3.3028,-3.1798,-3.0379,-2.9803,-2.8953,-2.7878,-2.8294,-2.8672,-2.907,-2.9088,-2.8357,-2.7041,-2.7041,-2.5997,-2.4246,-2.4192,-2.3053,-2.1481,-2.1672,0.0,0.0,-2.0508,-2.1145,-2.1976,-2.3714,-2.4783,-2.5558,-2.6787,-2.7682,-2.8417,-2.9165,-2.9553,-2.9806,-3.006,-3.0341,-3.0515,-3.0327,-2.9887,-2.9112,-2.7669,-2.6881,-2.5852,-2.3688,-2.3155,-2.2645,-2.167,-2.2579,-2.4102,-2.5999,-2.7602,-2.9499,-3.2038,-3.2398,-3.2625,-3.3253,-3.3293,-3.3253,-3.3253,-3.2786,-3.2372,-3.2118,-3.1289,-3.0541,-2.9953,-2.9593,-2.9045,-2.8328,-2.8261,-2.8221,-2.8221,-2.7896,-2.7629,-2.7335,-2.7041,-2.6747,-2.644,-2.5852,-2.5558,-2.5478,-2.4943,-2.4516,-2.4195,-2.4155,-2.3808,-2.3327,-2.326,-2.2873,-2.2338,-2.2338,-2.1977,-2.1534,0.0,0.0,0.0,0.0,0.0,0.0,0.0,-2.4824,-2.5644,-2.7187,-2.7578,-2.7559,-2.7109,-2.6855,-2.7103,0.0,0.0,0.0,0.0,0.0,0.0,-3.2474,-3.2474,-3.2931,-3.3872,-3.3518,-3.2853,-3.1829,0.0,-3.0121,-2.9303,-2.8799,-2.8711,-2.8906,-2.8906,-2.8504,-2.7714,-2.7714,-2.6736,-2.5263,-2.5263,-2.425,-2.2708,0.0,0.0,0.0,-2.0802,-2.1376,-2.2178,-2.3327,-2.4716,-2.6239,-2.7883,-2.8591,-2.8991,-2.9887,-3.0247,-3.0394,-3.0541,-3.0795,-3.0915,-3.0474,-2.9806,-2.8751,-2.68,-2.5785,-2.4623,-2.2405,-2.1951,-2.1777,-2.1216,-2.2191,-2.3567,-2.501,-2.6613,-2.8497,-3.0849,-3.1436,-3.2024,-3.3066,-3.3187,-3.3187,-3.3187,-3.2933,-3.2519,-3.1917,-3.1343,-3.0702,-2.9953,-2.9352,-2.8831,-2.839,-2.823,-2.8221,-2.8221,-2.8003,-2.7776,-2.7482,-2.7188,-2.6894,-2.66,-2.6012,-2.5665,-2.5491,-2.505,-2.4703,-2.4422,-2.4262,-2.3955,-2.3541,-2.338,-2.2953,-2.2418,-2.2418,-2.2151,-2.1842,0.0,0.0,0.0,0.0,0.0,0.0,-2.5047,-2.5586,-2.6523,-2.832,-2.916,-2.9219,-2.8374,-2.7734,-2.7637,0.0,0.0,0.0,0.0,0.0,0.0,0.0,0.0,0.0,-3.3244,0.0,0.0,-3.2912,-3.1948,0.0,0.0,0.0,0.0,0.0,-2.8398,-2.8379,-2.8301,-2.8301,-2.7618,0.0,0.0,-2.5787,-2.43,0.0,0.0,0.0,0.0,-2.1456,-2.2124,-2.2672,-2.3973,-2.5545,-2.7562,-2.843,-2.8885,-2.9806,-3.0301,-3.0608,-3.0902,-3.1196,-3.1276,-3.0688,-2.9833,-2.8497,-2.6066,-2.4836,-2.3607,-2.1537,-2.1109,-2.1109,-2.1109,-2.1911,-2.2939,-2.4022,-2.5411,-2.7148,-2.9406,-3.0234,-3.1129,-3.2532,-3.2812,-3.2879,-3.2879,-3.2826,-3.2452,-3.1637,-3.1183,-3.0621,-2.986,-2.9045,-2.8604,-2.8604,-2.831,-2.8221,-2.8221,-2.8221,-2.7989,-2.7696,-2.7402,-2.7108,-2.68,-2.6159,-2.5732,-2.5491,-2.5144,-2.485,-2.4609,-2.4329,-2.4035,-2.3741,-2.3447,-2.2953,-2.2432,-2.2485,-2.2285,-2.1991,0.0,0.0,0.0,0.0,0.0,0.0,-2.5554,-2.6055,-2.709,-2.918,-2.9531,-2.9668,-2.9941,-2.9238,-2.8628,0.0,0.0,0.0,0.0,0.0,0.0,0.0,0.0,0.0,0.0,0.0,0.0,-3.3625,-3.2179,0.0,0.0,0.0,0.0,0.0,0.0,-2.8652,-2.8301,-2.8301,0.0,0.0,0.0,0.0,0.0,0.0,0.0,0.0,0.0,-2.0762,-2.1042,-2.2472,-2.2806,-2.306,-2.4877,-2.7081,-2.9018,-2.9125,-3.01,-3.1209,-3.1503,-3.1797,-3.1877,-3.1289,-3.0287,-2.8751,-2.6119,-2.4836,-2.3607,-2.1537,-2.1109,-2.1109,-2.1109,-2.1416,-2.2231,-2.3928,-2.4556,-2.5761,-2.8711,-2.9633,-3.0448,-3.165,-3.2265,-3.2683,-3.2683,-3.2345,-3.1931,-3.1316,-3.0501,-2.9887,-2.9539,-2.8938,-2.8604,-2.8604,-2.831,-2.8221,-2.8221,-2.8221,-2.7989,-2.7696,-2.7402,-2.7108,-2.6787,-2.5945,-2.5545,-2.5478,-2.4917,-2.4663,-2.4609,-2.4329,-2.4035,-2.3741,-2.3447,-2.2953,-2.2458,-2.2726,-2.2472,-2.2017,0.0,0.0,0.0,0.0,0.0,0.0,-2.6873,-2.6457,-2.6953,-2.959,-2.9941,-3.0215,-3.0918,-3.0469,-2.9609,-2.8398,-2.7998,0.0,0.0,0.0,0.0,0.0,0.0,0.0,0.0,0.0,-3.5248,-3.5347,-3.3353,0.0,0.0,0.0,0.0,0.0,0.0,-2.8691,-2.8301,-2.8301,0.0,0.0,0.0,0.0,0.0,0.0,0.0,0.0,0.0,0.0,-2.2001,-2.1859,-2.2084,-2.2485,-2.2846,-2.4422,-2.6413,-2.7816,-2.9152,-3.0314,-3.0969,-3.161,-3.1917,-3.1156,-2.9806,-2.8123,-2.5999,-2.4409,-2.2966,-2.143,-2.1109,-2.1109,-2.1109,-2.1203,-2.163,-2.2699,-2.3113,-2.4088,-2.6333,-2.7161,-2.8297,-3.0368,-3.0982,-3.1503,-3.2211,-3.2171,-3.1784,-3.1022,-3.0314,-2.9793,-2.9499,-2.9085,-2.8791,-2.8617,-2.831,-2.8221,-2.8221,-2.8221,-2.7989,-2.7696,-2.7402,-2.7108,-2.6787,-2.5919,-2.5518,-2.5478,-2.489,-2.4636,-2.4549,-2.4516,-2.4195,-2.3754,-2.3647,-2.322,-2.2699,-2.2819,-2.278,-2.2525,0.0,0.0,0.0,0.0,0.0,-2.6239,-2.761,-2.7,-2.7249,-2.9704,-3.0,-3.0391,-3.1406,-3.0898,-3.0117,-2.9141,-2.8047,0.0,0.0,0.0,0.0,0.0,0.0,0.0,0.0,0.0,-3.5688,-3.6281,-3.4809,-3.4064,0.0,0.0,-3.0076,-2.9121,0.0,0.0,0.0,0.0,0.0,0.0,0.0,0.0,0.0,0.0,0.0,0.0,0.0,0.0,0.0,0.0,0.0,-2.1844,-2.1523,-2.2338,-2.3848,-2.6026,-2.7749,-2.9152,-3.0034,-3.0915,-3.1436,-3.0822,-2.9259,-2.7524,-2.5772,-2.4075,-2.2525,-2.1349,-2.1109,-2.1109,-2.1109,-2.1109,-2.1269,-2.1777,-2.2178,-2.2979,-2.4596,-2.5398,-2.6613,-2.8751,-2.9339,-3.0034,-3.1209,-3.1557,-3.1463,-3.0835,-3.0167,-2.9659,-2.9366,-2.9072,-2.8818,-2.8617,-2.831,-2.8221,-2.8221,-2.814,-2.7909,-2.7696,-2.7308,-2.7028,-2.6787,-2.5919,-2.5518,-2.5478,-2.489,-2.4636,-2.4623,-2.4449,-2.4142,-2.3754,-2.3567,-2.3233,-2.2928,-2.2928,-2.2806,-2.2726,0.0,0.0,0.0,0.0,0.0,-2.7907,-2.7471,-2.7717,-2.8389,-2.9443,-2.9626,-3.0078,-3.1367,-3.0351,-2.9922,-3.0781,-2.9277,0.0,0.0,0.0,0.0,0.0,0.0,0.0,-3.1493,-3.396,-3.5461,-3.5985,-3.6458,-3.5934,-3.4549,-3.3553,-3.181,-2.957,0.0,0.0,0.0,0.0,0.0,0.0,0.0,0.0,0.0,0.0,0.0,0.0,0.0,0.0,0.0,0.0,0.0,0.0,0.0,-2.1323,-2.2003,-2.3714,-2.5892,-2.7909,-2.8818,-2.97,-3.0381,-3.0368,-2.8804,-2.6894,-2.5424,-2.3928,-2.2525,-2.1349,-2.1109,-2.1109,-2.1109,-2.1109,-2.1203,-2.1574,-2.2044,-2.2832,-2.4048,-2.497,-2.5852,-2.6747,-2.7375,-2.8203,-2.9392,-3.0301,-3.0808,-3.0795,-2.998,-2.9352,-2.9058,-2.8764,-2.8604,-2.8604,-2.831,-2.8221,-2.8221,-2.7856,-2.7696,-2.7696,-2.7108,-2.6827,-2.6787,-2.5919,-2.5518,-2.5478,-2.489,-2.4636,-2.4596,-2.4022,-2.3781,-2.3714,-2.31,-2.2941,-2.2928,-2.2928,-2.2672,-2.2418,0.0,0.0,0.0,0.0,0.0,0.0,-2.8096,-2.7317,-2.7188,-2.854,-2.8457,-2.8867,-3.0449,-3.0234,-3.0117,-3.0391,-2.9375,0.0,0.0,0.0,0.0,0.0,0.0,-3.0134,-3.1132,-3.3198,-3.4439,-3.4888,-3.4469,-3.3997,-3.3574,-3.2203,-3.1007,-3.0,-3.0,-2.959,0.0,0.0,0.0,0.0,0.0,0.0,-3.084,0.0,0.0,0.0,0.0,0.0,0.0,0.0,0.0,0.0,0.0,0.0,0.0,-2.2164,-2.3915,-2.5758,-2.644,-2.7268,-2.7843,-2.7442,-2.6253,-2.4943,-2.4075,-2.2886,-2.1869,-2.1229,-2.1109,-2.1109,-2.1109,-2.1109,-2.1336,-2.2031,-2.2298,-2.2766,-2.3768,-2.4663,-2.5772,-2.7241,-2.9192,-3.0474,-3.0662,-3.0929,-3.0835,-3.0234,-2.9753,-2.9272,-2.8764,-2.8457,-2.8283,-2.8283,-2.8274,-2.8127,-2.7843,-2.7749,-2.7495,-2.7094,-2.6907,-2.6613,-2.6213,-2.5732,-2.5411,-2.5184,-2.4596,-2.4342,-2.4315,-2.3928,-2.3647,-2.3447,-2.326,-2.3046,-2.2928,-2.2928,-2.2806,-2.2699,0.0,0.0,0.0,0.0,0.0,0.0,-2.8841,-2.8143,-2.7782,-2.8137,-2.8304,-2.8814,-3.0057,-3.0059,-3.0156,-3.0644,-3.0059,0.0,0.0,0.0,0.0,0.0,-2.8709,-2.9484,-3.022,-3.2105,-3.3343,-3.389,-3.4229,-3.4154,-3.3602,-3.2822,-3.18,-3.0684,-3.0351,-2.9902,0.0,0.0,0.0,0.0,0.0,0.0,-2.9903,0.0,0.0,0.0,0.0,0.0,0.0,0.0,0.0,0.0,0.0,0.0,0.0,0.0,-2.2378,-2.3674,-2.4609,-2.5411,-2.5932,-2.5692,-2.4743,-2.3754,-2.326,-2.2325,-2.1534,-2.1176,-2.1109,-2.1109,-2.1109,-2.1109,-2.1283,-2.183,-2.2111,-2.2565,-2.3474,-2.4356,-2.5571,-2.7321,-2.9392,-3.0648,-3.0581,-3.0662,-3.0501,-2.9953,-2.9446,-2.8991,-2.8631,-2.831,-2.8181,-2.7976,-2.7976,-2.7883,-2.7696,-2.7482,-2.7188,-2.6814,-2.66,-2.6306,-2.6023,-2.5531,-2.5251,-2.505,-2.4569,-2.4302,0.0,-2.3888,-2.3594,-2.33,-2.3073,-2.2873,-2.2686,-2.2579,-2.2526,-2.2405,0.0,0.0,0.0,0.0,0.0,0.0,0.0,-2.9929,-2.962,-2.8157,-2.8807,-2.9588,-3.0052,-2.9766,-3.0078,-3.1309,-3.1094,0.0,0.0,0.0,0.0,-2.8359,-2.834,-2.8535,-2.8945,-3.0806,-3.2127,-3.3006,-3.5214,-3.5613,-3.4226,-3.4604,-3.3597,-3.1484,-3.0664,-3.0273,0.0,0.0,0.0,0.0,-2.9098,-2.8426,0.0,0.0,0.0,0.0,0.0,0.0,0.0,0.0,0.0,0.0,0.0,0.0,0.0,0.0,0.0,0.0,0.0,-2.3995,-2.4476,-2.473,-2.3981,-2.3086,-2.2806,-2.2177,0.0,-2.1162,-2.1109,-2.1122,-2.1136,-2.1122,-2.1136,-2.1189,-2.1683,-2.2365,-2.326,-2.4275,-2.5531,-2.7201,-2.8457,-2.9272,-2.9499,-2.9753,-2.99,-2.986,-2.9085,-2.8591,-2.8577,-2.8283,-2.7989,-2.7709,-2.7655,-2.7642,-2.7642,-2.7068,-2.6787,-2.6787,-2.6199,-2.5919,-2.5905,-2.5344,-2.5064,-2.5037,-2.4716,-2.4422,-2.4155,-2.3834,-2.3527,-2.3207,-2.2645,-2.2405,-2.2352,-2.2084,-2.1817,-2.1641,0.0,0.0,0.0,0.0,0.0,0.0,0.0,0.0,0.0,0.0,-2.8376,-2.8891,-2.8775,-2.9238,-2.9824,0.0,0.0,0.0,0.0,0.0,0.0,-2.8789,-2.8769,-2.8984,-2.9414,-3.0574,-3.1343,-3.1879,-3.2754,-3.3035,-3.2754,-3.2793,-3.2374,-3.1504,-3.1309,-3.1035,0.0,0.0,0.0,0.0,-2.9098,-2.8426,0.0,0.0,0.0,0.0,-2.4178,-2.3076,0.0,0.0,0.0,0.0,0.0,0.0,0.0,0.0,-2.1162,-2.1283,-2.1643,0.0,-2.2245,-2.2084,-2.183,-2.1617,0.0,-2.1363,-2.1189,-2.1122,-2.1109,-2.1176,-2.1467,-2.1256,-2.1323,-2.2004,-2.2418,-2.2966,-2.3875,-2.6119,-2.7909,-2.8551,-2.986,-3.0474,-2.9873,-2.9873,-2.9726,-2.9285,-2.8845,-2.8497,-2.827,-2.7963,-2.7776,-2.7696,-2.7268,-2.7028,-2.7028,-2.6667,-2.6493,-2.648,-2.5892,-2.5611,-2.5611,-2.5237,-2.4957,-2.4716,-2.4195,-2.3941,-2.3834,-2.337,-2.2899,-2.2619,-2.2472,-2.2285,-2.2084,-2.2004,-2.1937,-2.1857,0.0,0.0,0.0,0.0,0.0,0.0,0.0,0.0,0.0,0.0,-2.931,-2.9579,-2.9254,-2.9426,-2.9746,0.0,0.0,0.0,0.0,-3.0098,-2.9668,-2.9238,-2.9219,-2.9414,-2.9844,-3.0332,-3.0976,-3.1816,-3.2246,-3.2559,-3.2734,-3.2734,-3.2422,-3.1797,-3.1406,-3.0976,0.0,0.0,0.0,0.0,-2.8247,0.0,0.0,0.0,0.0,0.0,-2.2466,-2.1853,0.0,-2.1109,-2.1109,-2.1109,0.0,0.0,0.0,0.0,-2.1109,-2.1109,-2.1109,-2.1323,-2.1574,-2.1349,-2.1309,-2.1309,-2.1309,-2.1203,-2.1109,-2.1109,-2.1109,-2.1162,-2.1323,-2.1443,-2.167,-2.2138,-2.2819,-2.3728,-2.5024,-2.7041,-2.8604,-2.9179,-3.006,-3.0434,-2.9967,-2.9673,-2.9325,-2.8871,-2.8564,-2.8257,-2.7949,-2.7789,-2.7575,-2.7308,-2.6854,-2.6627,-2.6627,-2.6333,-2.6119,-2.5985,-2.5531,-2.5317,-2.5304,-2.501,-2.4716,-2.4422,-2.4102,-2.3821,-2.3541,-2.3207,-2.2899,-2.2592,-2.2325,-2.2124,-2.1951,-2.1683,-2.159,-2.1563,0.0,0.0,0.0,0.0,0.0,0.0,0.0,0.0,0.0,0.0,0.0,0.0,0.0,0.0,0.0,0.0,0.0,0.0,-3.0898,-3.0527,-3.0137,-2.9785,-2.9707,-2.9863,-3.0293,-3.0371,-3.0976,-3.2229,-3.2715,-3.3144,-3.3418,-3.3555,-3.3105,-3.2148,-3.1406,-3.0801,-3.0332,0.0,0.0,-3.0274,-2.7194,0.0,0.0,0.0,0.0,0.0,0.0,0.0,0.0,-2.1109,-2.1109,-2.1109,-2.1109,0.0,0.0,0.0,0.0,0.0,-2.1162,-2.1496,-2.1842,-2.1601,-2.1588,-2.1601,-2.1561,-2.1296,-2.1109,-2.1109,-2.1109,-2.1149,-2.1283,-2.171,-2.2098,-2.2231,-2.326,-2.4636,-2.6346,-2.7562,-2.8564,-2.9325,-2.9713,-2.9873,-2.9793,-2.9285,-2.8871,-2.8631,-2.827,-2.7963,-2.7709,-2.7615,-2.7321,-2.6774,-2.648,-2.6279,-2.6186,-2.5945,-2.5718,-2.5504,-2.517,-2.5037,-2.5064,-2.473,-2.4436,-2.4195,-2.4102,-2.3781,-2.3327,-2.3273,-2.3073,-2.2739,-2.2191,-2.1951,-2.1857,-2.1309,-2.1109,-2.1109,0.0,0.0,0.0,0.0,0.0,0.0,0.0,0.0,0.0,0.0,0.0,0.0,0.0,0.0,0.0,0.0,0.0,0.0,-3.0898,-3.082,-3.0762,-3.0684,-3.0312,-3.0312,-3.0781,-3.1133,-3.1601,-3.2229,-3.332,-3.3711,-3.3437,-3.416,-3.3672,-3.2168,-3.2031,-3.1523,-3.0781,-3.0859,-3.0079,-2.8605,-2.6772,0.0,0.0,0.0,0.0,0.0,0.0,0.0,0.0,-2.1109,-2.1109,-2.1109,-2.1109,0.0,0.0,0.0,0.0,0.0,-2.148,-2.2258,-2.2752,-2.1496,-2.1363,-2.1547,-2.1229,-2.1149,-2.1109,-2.1109,-2.1109,-2.1336,-2.2084,-2.2298,-2.2605,-2.3367,-2.4476,-2.5772,-2.7281,-2.831,-2.8951,-2.9085,-2.9593,-2.9713,-2.9219,-2.8871,-2.8657,-2.8604,-2.8083,-2.7749,-2.7696,-2.7228,-2.68,-2.6466,-2.6172,-2.5785,-2.5291,-2.5237,-2.5317,-2.5504,-2.4957,-2.4836,-2.5064,-2.4516,-2.4249,-2.4168,-2.3674,-2.3407,-2.33,-2.3046,-2.2752,-2.2458,-2.2111,-2.183,-2.1641,-2.1229,-2.1109,-2.1109,0.0,0.0,0.0,0.0,0.0,0.0,0.0,0.0,0.0,0.0,0.0,0.0,0.0,0.0,0.0,0.0,-3.0137,-3.0508,-3.0508,-3.0762,-3.0996,-3.1211,-3.0801,-3.0781,-3.1211,-3.1641,-3.2305,-3.3266,-3.4004,-3.4551,-3.4805,-3.4258,-3.334,-3.2148,-3.168,-3.125,-3.0898,-3.0898,-2.9903,-2.823,0.0,0.0,0.0,0.0,0.0,0.0,0.0,0.0,0.0,0.0,-2.0735,-2.0842,-2.0681,0.0,0.0,0.0,0.0,0.0,-2.1042,-2.171,-2.2285,-2.1911,-2.2525,-2.306,-2.2445,-2.2311,-2.2218,-2.1884,-2.1817,-2.1991,-2.2552,-2.306,-2.3888,-2.5411,-2.6239,-2.6987,-2.7816,-2.8444,-2.8858,-2.9018,-2.9272,-2.9339,-2.9072,-2.8778,-2.847,-2.8136,-2.7856,-2.7562,-2.7241,-2.6814,-2.6453,-2.6159,-2.5718,-2.5358,-2.5077,-2.4917,-2.4903,-2.5037,-2.477,-2.4703,-2.4823,-2.4396,-2.4115,-2.3941,-2.3514,-2.3233,-2.306,-2.2926,-2.2779,-2.2619,-2.2164,-2.1897,-2.1737,-2.1283,-2.1109,-2.1109,0.0,0.0,0.0,0.0,0.0,0.0,0.0,0.0,0.0,0.0,0.0,0.0,0.0,0.0,0.0,0.0,-2.9766,-3.0195,-3.0195,-3.0625,-3.1035,-3.1367,-3.1152,-3.1328,-3.1953,-3.2187,-3.2988,-3.4375,-3.4902,-3.5566,-3.6289,-3.4648,-3.3379,-3.2422,-3.1562,-3.1074,-3.0898,-3.0898,-2.9707,-2.7751,0.0,0.0,0.0,0.0,0.0,0.0,0.0,0.0,0.0,0.0,0.0,0.0,0.0,0.0,0.0,-2.0481,-2.0548,-2.0708,-2.0842,-2.1309,-2.1857,-2.2311,-2.3166,-2.3848,-2.3594,-2.3367,-2.3166,-2.2979,-2.2886,-2.2926,-2.322,-2.4008,-2.517,-2.6881,-2.7468,-2.7829,-2.8203,-2.8457,-2.8711,-2.9005,-2.8978,-2.8938,-2.8938,-2.8671,-2.8283,-2.7736,-2.7642,-2.7375,-2.6854,-2.648,-2.6159,-2.5865,-2.5344,-2.505,-2.497,-2.4756,-2.4636,-2.4636,-2.4569,-2.4569,-2.4623,-2.4262,-2.3981,-2.3754,-2.346,-2.3153,-2.2928,-2.2928,-2.2819,-2.2712,-2.2191,-2.1897,-2.1724,-2.1269,-2.1109,-2.1109,0.0,0.0,0.0,0.0,0.0,0.0,0.0,0.0,0.0,0.0,0.0,0.0,0.0,0.0,0.0,0.0,-2.9941,-3.0195,-3.0195,-3.0625,-3.0898,-3.0937,-3.1269,-3.2051,-3.3262,-3.293,-3.3594,-3.5293,-3.6133,-3.6758,-3.7168,-3.5859,-3.457,-3.3301,-3.2461,-3.1641,-3.0898,-3.0898,-2.9039,-2.6167,-2.6045,0.0,0.0,0.0,0.0,0.0,0.0,0.0,0.0,0.0,0.0,0.0,0.0,0.0,-2.0722,-2.0975,-2.0869,-2.0802,-2.14,-2.1911,-2.2365,-2.2405,-2.2098,-2.2191,-2.3781,-2.35,-2.3193,-2.4262,-2.4262,-2.4168,-2.4449,-2.5237,-2.6052,-2.6747,-2.7335,-2.7896,-2.8497,-2.8591,-2.8711,-2.9005,-2.8804,-2.8644,-2.8644,-2.8364,-2.8043,-2.7722,-2.7455,-2.7161,-2.6841,-2.6293,-2.5852,-2.5558,-2.5237,-2.4943,-2.4676,-2.4649,-2.4636,-2.4636,-2.4369,-2.4382,-2.4549,-2.4062,-2.3794,-2.3754,-2.346,-2.3153,-2.2928,-2.2928,-2.2699,-2.2418,-2.2111,-2.1657,-2.1162,-2.1122,-2.1109,-2.1109,0.0,0.0,0.0,0.0,0.0,0.0,0.0,0.0,0.0,0.0,0.0,-3.4992,-3.3678,0.0,0.0,0.0,-2.9316,-2.9512,-2.9785,-3.0215,-3.0703,-3.125,-3.1191,-3.1719,-3.3008,-3.3652,-3.4707,-3.6191,-3.7031,-3.7266,-3.6875,-3.5312,-3.4023,-3.2988,-3.1875,-3.1191,-3.0898,-3.0898,-2.8979,-2.5984,-2.5984,-2.3963,0.0,0.0,0.0,0.0,0.0,0.0,0.0,0.0,-2.0027,-2.0214,-2.0067,-2.0321,-2.0628,-2.0374,-2.0347,-2.0454,-2.0668,-2.143,-2.2191,-2.2378,-2.2392,-2.2847,-2.4382,-2.477,-2.497,-2.5598,-2.5638,-2.5545,-2.5464,-2.6319,-2.7108,-2.7335,-2.803,-2.8617,-2.8845,-2.8871,-2.8911,-2.9032,-2.8778,-2.8604,-2.8604,-2.8163,-2.7749,-2.7455,-2.7161,-2.6787,-2.6306,-2.5905,-2.5545,-2.5251,-2.4957,-2.4663,-2.4369,-2.4543,-2.4449,-2.4102,-2.4356,-2.4436,-2.4356,-2.3955,-2.3768,-2.3741,-2.3247,-2.2966,-2.2928,-2.2928,-2.2792,-2.2645,-2.2178,-2.1737,-2.1363,-2.1176,-2.1109,-2.1109,0.0,0.0,0.0,0.0,0.0,0.0,0.0,0.0,-3.6306,0.0,0.0,0.0,0.0,-3.302,0.0,0.0,-2.9121,-2.9199,-2.9355,-2.9883,-3.0469,-3.1074,-3.1094,-3.1562,-3.2578,-3.3984,-3.5351,-3.668,-3.7656,-3.7617,-3.6641,-3.5019,-3.3887,-3.3144,-3.1219,-3.0424,-3.052,-3.006,-2.8068,-2.5153,-2.5561,-2.381,0.0,0.0,0.0,0.0,0.0,0.0,0.0,0.0,-1.9706,-1.9933,-1.9813,-2.0134,-2.0468,-2.0174,-2.0214,-2.0388,-2.0481,-2.1029,-2.171,-2.2271,-2.2712,-2.342,-2.4997,-2.5598,-2.6066,-2.6907,-2.6787,-2.6493,-2.6386,-2.6867,-2.7348,-2.7535,-2.823,-2.8751,-2.8751,-2.8751,-2.8751,-2.8751,-2.8497,-2.8323,-2.8323,-2.7856,-2.7442,-2.7148,-2.6934,-2.6573,-2.6063,-2.5678,-2.5384,-2.509,-2.4703,-2.4409,-2.4209,-2.4302,-2.4115,-2.3634,-2.4128,-2.4262,-2.4062,-2.3861,-2.3714,-2.3607,-2.3193,-2.2953,-2.2928,-2.2928,-2.2806,-2.2672,-2.2178,-2.1857,-2.1722,-2.1363,-2.1256,-2.1229,0.0,0.0,0.0,0.0,0.0,0.0,0.0,0.0,-3.4766,-3.5636,-3.4618,0.0,0.0,0.0,0.0,0.0,-2.9626,-2.9375,-2.8945,-2.9707,-3.0195,-3.0195,-3.1035,-3.1699,-3.2209,-3.3828,-3.5332,-3.668,-3.793,-3.7891,-3.6621,-3.5293,-3.4453,-3.3901,-3.0612,-2.9342,-2.9632,-2.8336,-2.5991,-2.3263,-2.4723,-2.3217,-2.018,0.0,0.0,0.0,0.0,0.0,0.0,0.0,-1.9599,-1.9519,-2.0388,-2.0468,-2.0294,-2.0588,-2.0668,-2.0735,-2.1029,-2.0895,-2.0962,-2.2138,-2.2886,-2.3808,-2.5571,-2.5732,-2.6119,-2.819,-2.7669,-2.6921,-2.7215,-2.68,-2.6587,-2.7175,-2.7846,-2.8221,-2.8221,-2.8221,-2.8221,-2.8221,-2.7883,-2.7696,-2.7696,-2.7428,-2.7134,-2.6841,-2.6814,-2.656,-2.5985,-2.5665,-2.5371,-2.5077,-2.4502,-2.4195,-2.4195,-2.3915,-2.3621,-2.3327,-2.3621,-2.3768,-2.3768,-2.3768,-2.3607,-2.3327,-2.3327,-2.3153,-2.2928,-2.2928,-2.2686,-2.2392,-2.2111,-2.1991,-2.1951,-2.1722,-2.1614,-2.1574,0.0,0.0,0.0,0.0,0.0,0.0,0.0,0.0,-3.4953,-3.5382,-3.3592,0.0,0.0,0.0,0.0,0.0,0.0,0.0,-2.9355,-2.9336,-2.957,-3.0176,-3.0449,-3.0801,-3.1269,-3.293,-3.4746,-3.668,-3.6738,-3.6113,-3.4824,-3.3828,-3.2969,-3.2246,-3.1238,-3.0672,-3.0403,-2.8649,-2.6759,-2.4799,-2.4018,-2.2474,-2.0521,0.0,0.0,0.0,0.0,0.0,0.0,0.0,0.0,0.0,-1.9973,-2.0428,-2.0788,-2.0454,-2.0508,-2.0655,-2.0521,-2.1029,-2.1777,-2.2539,-2.3647,-2.4917,-2.6266,-2.6653,-2.7161,-2.8617,-2.8297,-2.7709,-2.7589,-2.7428,-2.7295,-2.7268,-2.7846,-2.8221,-2.8221,-2.8221,-2.8221,-2.8221,-2.7883,-2.7696,-2.7696,-2.7241,-2.6921,-2.6827,-2.644,-2.6052,-2.5665,-2.517,-2.4756,-2.4476,-2.4102,-2.3794,-2.3594,-2.3714,-2.3514,-2.3006,-2.3527,-2.3661,-2.346,-2.346,-2.3407,-2.3313,-2.31,-2.2953,-2.2928,-2.2928,-2.2806,-2.2699,-2.2405,-2.2285,-2.2231,-2.1802,-2.1614,-2.1574,0.0,0.0,0.0,0.0,0.0,0.0,-3.6323,-3.516,-3.4303,-3.4603,-3.2526,-3.1476,0.0,0.0,0.0,0.0,0.0,0.0,-2.9297,-2.9062,-2.9219,-2.9922,-3.0098,-3.0566,-3.1387,-3.2734,-3.3984,-3.5137,-3.5371,-3.4824,-3.3555,-3.3379,-3.2851,-3.1971,-3.1669,-3.1096,-3.0298,-2.8792,-2.7046,-2.5225,-2.4174,-2.2811,-2.1385,0.0,0.0,0.0,0.0,0.0,0.0,0.0,0.0,0.0,-1.976,-2.016,-2.0561,-2.0441,-2.0535,-2.0735,-2.1029,-2.1617,-2.2418,-2.3474,-2.4596,-2.5772,-2.7054,-2.7669,-2.8203,-2.9045,-2.8644,-2.8207,-2.807,-2.7762,-2.7549,-2.7602,-2.7993,-2.8221,-2.8221,-2.8221,-2.8181,-2.7976,-2.7709,-2.7482,-2.7362,-2.6827,-2.648,-2.648,-2.6039,-2.5651,-2.5358,-2.489,-2.4502,-2.4209,-2.3808,-2.3514,-2.3327,-2.338,-2.3166,-2.2699,-2.318,-2.3193,-2.2806,-2.3166,-2.326,-2.3126,-2.2939,-2.2928,-2.2928,-2.2739,-2.2752,-2.2901,-2.2539,-2.2418,-2.2365,-2.1897,-2.1722,-2.1574,0.0,0.0,-3.578,-3.6329,0.0,0.0,-3.5866,-3.4182,-3.3116,-3.3418,-3.154,-3.0648,0.0,0.0,0.0,-3.0176,0.0,0.0,-2.8945,-2.8926,-2.9121,-2.9551,-3.0059,-3.0898,-3.2148,-3.291,-3.3105,-3.2676,-3.3965,-3.3926,-3.2695,-3.3516,-3.3457,-3.2653,-3.1947,-3.0975,-2.9763,-2.8703,-2.7046,-2.5036,-2.4629,-2.3693,-2.2424,-2.075,0.0,0.0,0.0,0.0,0.0,0.0,0.0,0.0,-1.9706,-1.9813,-1.9947,-2.0481,-2.0668,-2.0962,-2.2071,-2.2445,-2.2926,-2.4716,-2.5742,-2.6586,-2.7966,-2.8604,-2.9072,-2.9352,-2.8778,-2.831,-2.8564,-2.7909,-2.7522,-2.814,-2.8207,-2.8181,-2.8181,-2.8167,-2.7963,-2.7696,-2.7375,-2.7081,-2.6814,-2.6253,-2.5919,-2.5919,-2.5611,-2.5331,-2.509,-2.4716,-2.4409,-2.4168,-2.3594,-2.3273,-2.3247,-2.2966,-2.2672,-2.2378,-2.2659,-2.2498,-2.2017,-2.2859,-2.3073,-2.2847,-2.2806,-2.2806,-2.2766,-2.2485,-2.2539,-2.2752,-2.2485,-2.2378,-2.2338,-2.2058,-2.1777,-2.1574,0.0,0.0,-3.6279,-3.638,0.0,0.0,-3.5795,-3.4108,-3.2757,-3.2529,-3.0868,-2.9937,-3.0534,-2.9836,0.0,-2.9687,-2.9316,0.0,0.0,-2.8926,-2.9121,-2.9551,-3.0644,-3.1523,-3.2209,-3.2344,-3.2226,-3.1797,-3.3066,-3.3047,-3.1797,-3.2324,-3.2305,-3.1816,-3.1957,-3.1546,-3.0485,-2.8431,-2.7047,-2.6092,-2.362,-2.2402,-2.1979,-2.0213,-1.9653,0.0,0.0,0.0,0.0,0.0,0.0,0.0,-1.9706,-1.996,-2.016,-2.0294,-2.0655,-2.1176,-2.1884,-2.2592,-2.3554,-2.5331,-2.6814,-2.7899,-2.8377,-2.8604,-2.8724,-2.8778,-2.8818,-2.8804,-2.8631,-2.8243,-2.8087,-2.8207,-2.7949,-2.7789,-2.7789,-2.7602,-2.7428,-2.7362,-2.6894,-2.656,-2.6493,-2.5945,-2.5611,-2.5611,-2.5117,-2.4903,-2.5077,-2.4142,-2.3688,-2.3861,-2.3273,-2.2846,-2.2619,-2.2552,-2.2365,-2.2084,-2.2138,-2.2111,-2.2004,-2.2418,-2.2458,-2.2191,-2.2418,-2.2378,-2.2164,-2.2111,-2.2111,-2.2164,-2.2111,-2.2084,-2.2044,-2.175,-2.1668,-2.1574,0.0,0.0,0.0,0.0,0.0,0.0,0.0,0.0,-3.3719,-3.2987,-3.1111,-2.9961,-3.0176,-2.9609,0.0,0.0,-2.918,0.0,0.0,0.0,-2.9199,-2.9844,-3.0742,-3.1328,-3.1543,-3.1758,-3.1641,-3.1211,-3.209,-3.207,-3.123,-3.1875,-3.1934,-3.1562,-3.2402,-3.1953,-3.0489,-2.9469,-2.854,-2.7567,-2.5105,-2.3682,-2.2783,-2.1103,-1.9899,-1.9132,-1.8824,0.0,0.0,0.0,0.0,0.0,0.0,0.0,-1.9867,-2.0147,-2.0454,-2.0935,-2.2098,-2.306,-2.4235,-2.6279,-2.7589,-2.8364,-2.8377,-2.8604,-2.8738,-2.8444,-2.8617,-2.8738,-2.8444,-2.8257,-2.8221,-2.8221,-2.8016,-2.7909,-2.7909,-2.7655,-2.7415,-2.7281,-2.6747,-2.6333,-2.6199,-2.5651,-2.5304,-2.5304,-2.4756,-2.4502,-2.4649,-2.3808,-2.3327,-2.334,-2.2886,-2.2512,-2.2218,-2.2218,-2.2071,-2.1777,-2.1924,-2.1911,-2.179,-2.2084,-2.2124,-2.1991,-2.2151,-2.2124,-2.1977,-2.183,-2.1857,-2.1977,-2.183,-2.1777,-2.1764,-2.1668,-2.1534,-2.1323,0.0,0.0,0.0,0.0,0.0,0.0,0.0,0.0,0.0,-3.3741,-3.1808,-3.0362,-3.0135,-2.957,-2.9333,0.0,0.0,0.0,0.0,0.0,0.0,-3.0273,-3.0762,-3.1035,-3.1113,-3.1367,-3.1348,-3.0996,-3.1269,-3.1348,-3.123,-3.1875,-3.1973,-3.168,-3.2656,-3.2012,-3.0215,-3.0371,-2.9766,-2.8529,-2.6885,-2.5366,-2.3955,-2.2075,-2.0269,-1.8795,-1.8534,-1.8597,-1.8851,-1.8851,0.0,0.0,0.0,0.0,-1.9399,-1.9987,-2.016,-2.0521,-2.2178,-2.3514,-2.4943,-2.7081,-2.8083,-2.8457,-2.8288,-2.8524,-2.8751,-2.8328,-2.839,-2.8511,-2.8288,-2.8221,-2.8221,-2.8221,-2.814,-2.8073,-2.8073,-2.7642,-2.7308,-2.7068,-2.652,-2.6066,-2.5903,-2.5277,-2.493,-2.493,-2.4382,-2.4048,-2.4048,-2.3487,-2.3046,-2.2792,-2.2498,-2.2205,-2.1911,-2.1911,-2.1764,-2.1547,-2.1724,-2.171,-2.1547,-2.1724,-2.183,-2.183,-2.1884,-2.1884,-2.1817,-2.1641,-2.1617,-2.1804,-2.1563,-2.1534,-2.1534,-2.1534,-2.1323,-2.1109,0.0,0.0,0.0,0.0,0.0,0.0,0.0,0.0,0.0,0.0,-3.2437,-3.1107,-2.9816,-2.8667,-2.8066,-2.8437,-2.8086,-2.7988,-2.8359,0.0,0.0,-3.0762,-3.1211,-3.1601,-3.2053,-3.168,-3.1484,-3.1426,-3.1133,-3.1523,-3.2539,-3.2285,-3.2148,-3.207,-3.1855,-3.1191,-3.0137,-2.9082,-2.832,-2.7688,-2.5798,-2.4914,-2.4351,-2.1437,-2.0288,-2.0041,-1.8618,-1.8303,-1.8544,-1.8544,-1.8744,0.0,0.0,0.0,-1.9105,-1.9693,-1.9853,-2.0134,-2.1454,-2.3487,-2.5665,-2.6987,-2.7762,-2.8274,-2.8234,-2.8288,-2.8328,-2.8248,-2.839,-2.8511,-2.8288,-2.8221,-2.8221,-2.8221,-2.7792,-2.7388,-2.7388,-2.6694,-2.6172,-2.6211,-2.5611,-2.5237,-2.5197,-2.4663,-2.4315,-2.4315,-2.3781,-2.3447,-2.3447,-2.2873,-2.2525,-2.2472,-2.2191,-2.1897,-2.1681,-2.1681,-2.147,-2.1162,-2.1203,-2.1203,-2.1162,-2.1203,-2.1229,-2.1243,-2.1496,-2.147,-2.1229,-2.1189,-2.1189,-2.1229,-2.1189,-2.1162,-2.1162,-2.1162,-2.1149,-2.1109,0.0,0.0,0.0,0.0,0.0,0.0,0.0,0.0,0.0,0.0,0.0,-3.09,-2.9698,-2.8633,-2.7988,-2.7949,-2.7826,-2.7904,-2.8262,-2.8867,-2.959,-3.0469,-3.0684,-3.0859,-3.1055,-3.0879,-3.0781,-3.0781,-3.0351,-3.1172,-3.3144,-3.2715,-3.2656,-3.2832,-3.2187,-3.125,-3.0137,-2.9355,-2.8496,-2.7656,-2.6746,-2.5674,-2.4358,-2.298,-2.1442,-1.9888,-1.9175,-1.8614,-1.8237,-1.8237,-1.8437,-1.8677,-1.8677,0.0,0.0,0.0,-1.9185,-1.9746,-2.1815,-2.35,-2.5184,-2.6854,-2.7455,-2.7819,-2.8154,-2.8221,-2.8221,-2.8221,-2.8243,-2.831,-2.8248,-2.8087,-2.7896,-2.7896,-2.7535,-2.7268,-2.7268,-2.6653,-2.6199,-2.6199,-2.5531,-2.501,-2.485,-2.4449,-2.4142,-2.3968,-2.3567,-2.3247,-2.3073,-2.2659,-2.2271,-2.1937,-2.1804,-2.1603,-2.1309,-2.1309,-2.1243,-2.1109,-2.1109,-2.1109,-2.1109,-2.1109,-2.1109,-2.1122,-2.1243,-2.1229,-2.1109,-2.1109,-2.1109,-2.1109,-2.1109,-2.1109,-2.1109,-2.1109,-2.1109,-2.1109,0.0,0.0,0.0,0.0,0.0,0.0,0.0,0.0,0.0,0.0,0.0,-3.1314,-3.0289,0.0,0.0,0.0,-2.7513,-2.7519,-2.793,-2.8359,-2.8926,-2.9687,-2.9922,-3.0039,-3.0039,-3.0137,-3.0137,-3.0039,-2.9824,-3.1055,-3.3574,-3.3262,-3.3516,-3.4199,-3.3008,-3.1758,-3.0488,-2.9609,-2.875,-2.793,-2.7402,-2.62,-2.4638,-2.4267,-2.2706,-2.059,-2.0231,-1.9635,-1.8918,-1.8559,-1.8658,-1.8851,-1.848,-1.8384,0.0,0.0,0.0,-1.9305,-2.1577,-2.2572,-2.3333,-2.527,-2.5609,-2.5842,-2.6929,-2.7259,-2.7448,-2.8052,-2.8221,-2.8207,-2.8127,-2.7909,-2.7789,-2.7709,-2.7455,-2.7241,-2.7161,-2.6587,-2.6172,-2.6172,-2.5451,-2.485,-2.4556,-2.4262,-2.3941,-2.3567,-2.326,-2.2926,-2.2619,-2.2325,-2.1964,-2.1521,-2.1443,-2.1336,-2.1109,-2.1109,-2.1109,-2.1109,-2.1109,-2.1109,-2.1109,-2.1109,-2.1109,-2.1109,-2.1109,-2.1109,-2.1109,-2.1109,-2.1109,-2.1109,-2.1109,-2.1109,-2.1109,-2.1109,-2.1109,-2.1109,0.0,0.0,0.0,0.0,0.0,0.0,0.0,0.0,0.0,0.0,0.0,0.0,-3.1801,-2.9326,-2.7748,-2.7728,-2.6914,-2.6641,-2.7051,-2.748,-2.793,-2.8379,-2.916,0.0,-2.9609,-3.0,-3.0,-2.9609,-2.998,-3.1484,-3.4043,-3.4023,-3.4902,-3.6406,-3.4297,-3.2637,-3.1309,-2.9238,-2.8555,-2.8672,-2.661,-2.5703,-2.5469,-2.4233,-2.3651,-2.3335,-2.2064,-2.1558,-2.132,-1.9952,-1.9724,-1.9793,-1.8428,-1.8009,-1.8075,0.0,0.0,0.0,-2.0027,-1.9853,-1.9594,-2.1112,-2.1101,-2.134,-2.3821,-2.4663,-2.5556,-2.7714,-2.8221,-2.814,-2.7776,-2.7936,-2.8114,-2.7749,-2.7455,-2.7161,-2.6881,-2.6106,-2.5558,-2.5558,-2.5024,-2.4543,-2.4249,-2.3968,-2.3554,-2.3021,-2.2632,-2.2218,-2.1722,-2.1668,-2.1456,-2.1149,-2.1136,-2.1122,-2.1109,-2.1109,-2.1109,-2.1109,-2.1109,-2.1109,-2.1109,-2.1109,-2.1109,-2.1109,-2.1109,-2.1109,-2.1109,-2.1109,-2.1109,-2.1109,-2.1109,-2.1109,-2.1109,-2.1109,-2.1109,-2.1109,0.0,0.0,0.0,0.0,0.0,0.0,0.0,0.0,0.0,0.0,0.0,0.0,0.0,-2.9144,-2.7559,-2.7285,-2.6973,-2.6973,-2.7402,-2.7832,-2.8262,-2.8672,-2.9258,-2.9626,-2.9626,-2.9726,-2.9726,-2.9626,-2.918,-3.0312,-3.2851,-3.2559,-3.3203,-3.4551,-3.3769,-3.2871,-3.1797,-2.9609,-2.8633,-2.8398,-2.709,-2.6406,-2.6064,-2.5282,-2.4461,-2.3633,-2.3167,-2.2416,-2.1592,-2.1151,-2.1027,-2.0834,-1.9258,-1.8801,-1.8608,-1.7859,-1.7809,-1.817,-1.9359,-1.975,-2.0157,-2.1841,-2.1602,-2.1411,-2.28,-2.3868,-2.4734,-2.5487,-2.6864,-2.7829,-2.7722,-2.7629,-2.7482,-2.7188,-2.6894,-2.6667,-2.656,-2.5945,-2.5451,-2.5251,-2.4716,-2.4168,-2.3688,-2.3367,-2.302,-2.2605,-2.2298,-2.1964,-2.1641,-2.1614,-2.148,-2.1122,-2.1109,-2.1109,-2.1109,-2.1109,-2.1109,-2.1109,-2.1109,-2.1109,-2.1109,-2.1109,-2.1109,-2.1109,-2.1109,-2.1109,-2.1109,-2.1109,-2.1109,-2.1109,-2.1109,-2.1109,-2.1109,-2.1109,-2.1109,-2.1109,0.0,0.0,0.0,-3.881,0.0,-3.9005,-3.9144,-3.8668,-3.7991,-3.7227,0.0,0.0,0.0,0.0,-2.8408,-2.7337,-2.709,-2.7207,-2.7689,-2.7793,-2.8105,-2.8691,-2.9121,-2.9414,-2.9626,-2.9626,-2.9492,-2.9355,-2.8789,-2.9609,-3.1738,-3.1582,-3.2207,-3.3398,-3.2832,-3.25,-3.2266,-3.0371,-2.9336,-2.8809,-2.7539,-2.6934,-2.6777,-2.6484,-2.5894,-2.5242,-2.5112,-2.4358,-2.3368,-2.2603,-2.2281,-2.1778,-1.9814,-1.8823,-1.8196,-1.7299,-1.7259,-1.7661,-1.8465,-1.8717,-1.9137,-2.0886,-2.0318,-1.9927,-2.1925,-2.2418,-2.2794,-2.3622,-2.5186,-2.6362,-2.6177,-2.6593,-2.6934,-2.6841,-2.6573,-2.6386,-2.6386,-2.5879,-2.5438,-2.5251,-2.4623,-2.4008,-2.3527,-2.31,-2.2699,-2.2298,-2.2004,-2.171,-2.1416,-2.1403,-2.1269,-2.0975,-2.1056,-2.1015,-2.0815,-2.0909,-2.0909,-2.0815,-2.0815,-2.0815,-2.0815,-2.0922,-2.0962,-2.0962,-2.1069,-2.1109,-2.1109,-2.1109,-2.1109,-2.1109,-2.1109,-2.1109,-2.1109,-2.1109,-2.1109,-2.1109,-3.5947,-3.6374,-3.6793,-3.7369,-3.7447,-3.7926,-3.9387,-3.9169,-3.9019,-3.9545,0.0,0.0,0.0,0.0,0.0,-2.795,-2.7324,-2.7266,-2.7748,-2.7324,-2.7441,-2.8301,-2.8711,-2.9141,-2.9646,-2.9646,-2.9375,-2.8945,-2.8926,-2.957,-3.084,-3.125,-3.2109,-3.3262,-3.1601,-3.1562,-3.2617,-3.1328,-3.0566,-3.0019,-2.7871,-2.7285,-2.7748,-2.7708,-2.791,-2.8223,-2.7793,-2.7383,-2.6691,-2.4559,-2.3515,-2.2704,-2.0153,-1.8175,-1.6787,-1.6787,-1.7052,-1.7295,0.0,0.0,0.0,-1.7741,-1.6817,-1.6661,-2.0883,-2.0201,-1.9502,-2.2429,-2.3442,-2.3722,-2.3244,-2.4895,-2.6453,-2.6734,-2.6547,-2.636,-2.636,-2.5865,-2.5491,-2.5478,-2.4716,-2.4075,-2.3768,-2.3263,-2.2605,-2.2031,-2.171,-2.1416,-2.1122,-2.1096,-2.0962,-2.0681,-2.0949,-2.0815,-2.0241,-2.0535,-2.0535,-2.0167,-2.0167,-2.0167,-2.018,-2.0535,-2.0668,-2.0695,-2.0975,-2.1096,-2.1109,-2.1109,-2.1109,-2.1109,-2.1109,-2.1109,-2.1109,-2.1109,-2.1109,-2.1109,-3.4646,-3.5221,-3.5762,-3.668,-3.6554,-3.647,-3.6879,-3.7157,-3.7336,0.0,0.0,0.0,-3.4215,-3.1596,-2.9774,-2.9117,-2.8926,-2.8906,-2.9098,-2.8633,-2.8633,-2.9199,-2.9336,-2.959,-3.0019,-3.0019,-2.9805,-2.9394,-2.9082,-2.9101,-2.9473,-2.959,-3.0156,-3.1074,-3.0605,-3.041,-3.0371,-2.9156,-2.9199,-3.0019,-2.7871,-2.7637,-2.8476,-2.7539,-2.7461,-2.7793,-2.7344,-2.7324,-2.735,-2.641,-2.62,-2.5888,-2.3072,-2.0782,-1.9129,-1.9034,-1.9332,-1.9512,-1.8737,0.0,0.0,0.0,0.0,0.0,-1.8479,-1.907,-1.9737,-2.1047,-2.2967,-2.4481,-2.474,-2.5188,-2.5531,-2.5825,-2.5812,-2.5758,-2.5758,-2.5438,-2.5037,-2.4609,-2.4168,-2.3688,-2.3236,-2.2579,-2.2164,-2.1991,-2.1523,-2.1189,-2.1109,-2.0909,-2.0762,-2.0681,-2.0762,-2.0615,-2.018,-2.0535,-2.0535,-2.0167,-2.0167,-2.0167,-2.018,-2.0321,-2.0468,-2.0681,-2.0762,-2.0909,-2.1109,-2.1109,-2.1109,-2.1109,-2.1109,-2.1109,-2.1109,-2.1109,-2.1109,-2.1109,-3.3072,-3.3658,-3.4489,-3.5725,-3.5736,-3.578,-3.6591,-3.6814,-3.6919,0.0,0.0,0.0,-3.3956,-3.208,-3.0703,-3.0176,-2.9941,-2.9824,-2.9824,-2.9434,-2.9375,-2.9805,-2.9824,-3.0039,-3.0469,-3.0293,-3.0,-2.9626,-2.9141,-2.8828,-2.8652,-2.8652,-2.9023,-2.9648,-2.9297,-2.9297,-2.9509,-2.7832,-2.8008,-2.9316,-2.8242,-2.8359,-2.9121,-2.8555,-2.8613,-2.8945,-2.8496,-2.8496,-2.8594,-2.7812,-2.7149,-2.6229,-2.3749,-2.2027,-2.0845,-2.0386,-2.0667,-2.0917,-1.9982,-2.0268,-2.0678,-2.0471,0.0,0.0,-1.953,-1.9036,-1.8659,-1.9519,-2.1144,-2.2532,-2.2974,-2.3875,-2.4543,-2.4596,-2.4703,-2.4957,-2.5438,-2.5264,-2.4903,-2.4436,-2.4022,-2.3581,-2.31,-2.2405,-2.1991,-2.1991,-2.1443,-2.1109,-2.1109,-2.0842,-2.0615,-2.0494,-2.0494,-2.0294,-1.988,-2.016,-2.016,-1.9867,-1.9867,-1.9867,-1.988,-2.0,-2.0147,-2.0321,-2.0441,-2.0655,-2.0922,-2.0922,-2.1002,-2.1109,-2.1109,-2.1109,-2.1109,-2.1109,-2.1109,-2.1109,0.0,-3.2266,-3.3245,-3.4635,-3.4857,-3.5386,-3.7188,-3.7132,-3.7001,0.0,-3.6883,-3.602,-3.4374,-3.3437,-3.2461,-3.1269,-3.0703,-3.0351,-3.0215,-2.9805,-2.9726,-3.0117,-3.0137,-3.0351,-3.0801,-3.0449,-3.0039,-2.9626,-2.918,-2.875,-2.8301,-2.8301,-2.8496,-2.8809,-2.8027,-2.8315,-2.916,-2.7305,-2.7148,-2.8184,-2.8613,-2.9121,-2.9668,-3.0,-3.041,-3.0742,-3.0234,-3.0117,-3.0019,-2.8828,-2.7107,-2.5209,-2.3572,-2.2806,-2.2364,-2.1565,-2.1805,-2.2146,-2.1404,-2.1643,-2.2195,-2.2786,-2.1679,0.0,-2.2142,-1.978,-1.7537,-1.8332,-1.9045,-1.9534,-1.9794,-2.1925,-2.3527,-2.322,-2.3487,-2.4102,-2.517,-2.513,-2.4877,-2.4569,-2.4088,-2.3647,-2.3354,-2.2512,-2.1991,-2.1991,-2.1416,-2.1069,-2.1069,-2.0762,-2.0454,-2.0127,-2.0187,-1.992,-1.943,-1.9653,-1.9653,-1.943,-1.943,-1.943,-1.943,-1.9639,-1.9773,-1.9813,-2.0067,-2.0374,-2.0681,-2.0681,-2.0842,-2.1109,-2.1109,-2.1109,-2.1109,-2.1109,-2.1109,-2.1109,-3.25,-3.2676,-3.3132,-3.4073,-3.3958,-3.4041,-3.5136,-3.5376,-3.5797,-3.6833,-3.6897,-3.7045,-3.744,-3.5328,-3.3574,-3.2988,-3.2226,-3.1328,-3.0273,-2.9805,-2.9665,-2.9687,-2.9744,-2.9902,-3.0332,-3.0605,-3.0371,-2.9626,-2.9492,-2.9043,-2.8301,-2.8301,-2.834,-2.8398,-2.7891,-2.7617,-2.75,-2.7441,-2.7363,-2.7305,-2.7734,-2.8789,-3.0059,-2.9785,-2.9961,-3.0234,-2.9453,-2.9609,-3.0098,-2.9512,-2.8408,-2.7091,-2.6365,-2.5637,-2.4933,-2.4781,-2.4838,-2.4763,-2.3881,-2.3954,-2.4034,-2.2749,-2.2695,0.0,-2.0952,-2.0559,-2.0302,-1.9674,-1.9788,-2.0255,-2.1059,-2.2017,-2.2592,-2.2298,-2.2899,-2.3581,-2.4048,-2.4262,-2.4262,-2.3968,-2.3834,-2.3647,-2.3354,-2.2512,-2.1991,-2.1991,-2.1229,-2.0762,-2.0762,-2.0254,-1.9947,-1.988,-1.988,-1.972,-1.943,-1.9653,-1.9653,-1.943,-1.943,-1.943,-1.943,-1.9426,-1.9586,-1.98,-1.9867,-2.0187,-2.0681,-2.0681,-2.0842,-2.1109,-2.1109,-2.1109,-2.1109,-2.1109,-2.1109,-2.1109,-3.2754,-3.2969,-3.3379,-3.4238,-3.4199,-3.4434,-3.5508,-3.558,-3.5856,-3.6965,-3.7287,-3.7347,-3.7193,-3.5877,-3.4512,-3.3223,-3.2539,-3.1699,-3.0605,-3.0351,-3.0234,-3.0234,-3.0234,-3.0332,-3.0527,-3.0762,-3.0566,-2.9883,-2.9668,-2.9238,-2.8594,-2.8398,-2.8066,-2.7656,-2.7441,-2.7109,-2.6699,-2.6699,-2.6953,-2.7422,-2.8315,-2.9121,-2.9902,-3.0137,-3.0215,-3.0137,-2.9707,-2.9707,-2.9785,-2.916,-2.8843,-2.8418,-2.7363,-2.7305,-2.7519,-2.6894,-2.6855,-2.68,-2.5888,-2.5829,-2.5825,-2.5151,-2.465,0.0,0.0,-2.2193,-2.1775,-2.1636,-2.0931,-2.0639,-2.169,-2.1581,-2.1336,-2.1336,-2.183,-2.2378,-2.2819,-2.3514,-2.3875,-2.3581,-2.3554,-2.3434,-2.3126,-2.2418,-2.1871,-2.1563,-2.1002,-2.0681,-2.0681,-2.012,-1.98,-1.98,-1.9653,-1.9519,-1.943,-1.9506,-1.9506,-1.943,-1.943,-1.943,-1.943,-1.943,-1.9452,-1.9586,-1.9586,-1.984,-2.0241,-2.0241,-2.0414,-2.0695,-2.0989,-2.1109,-2.1109,-2.1109,-2.1109,-2.1109,-3.2793,-3.3066,-3.3574,-3.4434,-3.4648,-3.5137,-3.6465,-3.623,-3.623,-3.7168,-3.7734,-3.7695,-3.6738,-3.6406,-3.5566,-3.3809,-3.2832,-3.1992,-3.1309,-3.0937,-3.0723,-3.0644,-3.0703,-3.0762,-3.0762,-3.0762,-3.0527,-3.0078,-2.9648,-2.9219,-2.8789,-2.8457,-2.793,-2.7246,-2.709,-2.6914,-2.6719,-2.6211,-2.6719,-2.8008,-2.9176,-2.9567,-2.9551,-3.043,-3.0527,-3.0195,-3.0195,-2.9824,-2.9238,-2.8711,-2.8945,-2.9219,-2.791,-2.834,-2.916,-2.8335,-2.8164,-2.8184,-2.7656,-2.75,-2.7559,-2.7734,-2.6812,-2.5727,0.0,0.0,0.0,-2.3357,-2.1923,-2.0903,-2.1925,-2.0993,-2.0147,-2.0388,-2.0708,-2.1109,-2.1577,-2.2579,-2.3233,-2.3166,-2.3153,-2.3046,-2.2806,-2.2191,-2.1746,-2.1579,-2.0921,-2.0706,-2.1067,-2.0207,-1.972,-1.972,-1.9492,-1.943,-1.943,-1.943,-1.943,-1.943,-1.943,-1.943,-1.943,-1.943,-1.943,-1.943,-1.943,-1.9533,-1.98,-1.98,-1.9973,-2.022,-2.0815,-2.1029,-2.1029,-2.1082,-2.1109,-2.1109,-3.2793,-3.2832,-3.3144,-3.4004,-3.4453,-3.5137,-3.6465,-3.5976,-3.5898,-3.7129,-3.8008,-3.8594,-3.8809,-3.7832,-3.7051,-3.6816,-3.4297,-3.2676,-3.2578,-3.1133,-3.0098,-2.9726,-3.0078,-3.0273,-3.0273,-3.0273,-3.0059,-2.9704,-2.9199,-2.8769,-2.8359,-2.832,-2.8242,-2.8105,-2.7344,-2.7402,-2.8027,-2.7207,-2.7617,-2.8828,-2.9355,-2.9336,-2.9082,-2.9941,-3.0234,-3.0195,-3.0195,-2.9434,-2.8535,-2.9199,-2.9238,-2.9023,-2.9219,-2.8887,-2.8555,-2.918,-2.8848,-2.8437,-2.9101,-2.9277,-2.9101,-2.8398,-2.8641,-2.8356,-2.5619,0.0,-2.536,-2.3725,0.0,-2.1152,-2.1571,0.0,0.0,-1.9564,-1.9973,-2.0361,-2.0366,-2.0989,-2.1683,-2.2432,-2.2525,-2.2512,-2.2472,-2.171,-2.1795,-2.3216,-2.1185,-2.0658,-2.2393,-2.0545,-1.947,-1.947,-1.9444,-1.943,-1.943,-1.943,-1.943,-1.943,-1.943,-1.943,-1.943,-1.943,-1.943,-1.943,-1.943,-1.9533,-1.98,-1.98,-1.9973,-2.0267,-2.0601,-2.0722,-2.0762,-2.1015,-2.1109,-2.1109,-3.2695,-3.2793,-3.3066,-3.3926,-3.4219,-3.4785,-3.6094,-3.7031,-3.7891,-3.8691,-3.9336,-3.9766,-3.9941,-3.8809,-3.793,-3.7676,-3.5605,-3.3984,-3.3203,-3.2012,-3.1152,-3.0723,-3.0644,-3.0723,-3.0957,-3.0469,-3.0117,-2.9941,-2.9258,-2.8828,-2.8652,-2.8398,-2.8164,-2.7963,-2.7559,-2.7598,-2.791,-2.7539,-2.7851,-2.8594,-2.9023,-2.9082,-2.9043,-3.0176,-3.0273,-2.9805,-2.9551,-2.8945,-2.834,-2.8711,-2.9043,-2.9277,-2.9219,-2.9473,-2.9766,-2.9609,-2.9492,-2.9434,-2.9531,-2.9626,-2.9492,-2.9121,-2.9121,-2.8762,-2.726,-2.6831,-2.6545,-2.6,0.0,0.0,0.0,0.0,0.0,0.0,-1.9962,-1.9786,-1.996,-2.0054,-2.0481,-2.1537,-2.1657,-2.159,-2.143,-2.1069,-2.1458,-2.2839,-2.1786,-2.1803,-2.3557,-2.174,-2.0702,-2.0702,-1.9866,-1.943,-1.943,-1.943,-1.943,-1.943,-1.943,-1.943,-1.943,-1.943,-1.943,-1.943,-1.943,-1.9439,-1.9546,-1.9546,-1.9626,-1.976,-2.0054,-2.0267,-2.0454,-2.0748,-2.0855,-2.0882,-3.2676,-3.2793,-3.3027,-3.3769,-3.3984,-3.4512,-3.582,-3.7324,-3.8652,-3.959,-3.9863,-4.0215,-4.0801,-4.0019,-3.9375,-3.918,-3.748,-3.5937,-3.4726,-3.3418,-3.2441,-3.1894,-3.1465,-3.1328,-3.1504,-3.0644,-3.0137,-3.0019,-2.916,-2.8809,-2.8906,-2.8496,-2.8184,-2.8008,-2.8008,-2.8144,-2.8413,-2.8413,-2.8672,-2.9199,-2.9394,-2.9453,-2.9551,-3.0391,-3.0312,-2.9707,-2.9394,-2.9004,-2.8652,-2.8769,-2.9238,-2.9707,-2.9512,-2.9961,-3.043,-2.9902,-2.9883,-2.998,-2.9785,-2.9844,-2.9883,-2.9629,-2.9336,-2.8926,-2.8262,-2.7812,-2.7598,-2.7793,-2.6417,0.0,0.0,0.0,-2.2019,-2.1923,0.0,-2.0557,-2.033,-2.0051,-2.0068,-2.069,-2.0815,-2.0855,-2.0802,-2.0931,-2.1441,-2.2498,-2.2385,-2.2855,-2.4161,-2.241,-2.1496,-2.1586,-2.0141,-1.943,-1.943,-1.9292,-1.9292,-1.943,-1.9292,-1.9292,-1.943,-1.943,-1.943,-1.943,-1.943,-1.943,-1.943,-1.943,-1.943,-1.9444,-1.9599,-1.9813,-2.0054,-2.0508,-2.0722,-2.0828,-3.2793,-3.2793,-3.293,-3.3359,-3.3789,-3.4512,-3.582,-3.6074,-3.6875,-3.8945,-3.8887,-3.9434,-4.1523,-4.1719,-4.1855,-4.2246,-4.0312,-3.8711,-3.7832,-3.541,-3.3633,-3.2793,-3.2344,-3.1934,-3.1523,-3.0644,-3.0,-2.959,-2.873,-2.8516,-2.8906,-2.8496,-2.8496,-2.8887,-2.8887,-2.9336,-3.0117,-3.0117,-3.0605,-3.1387,-3.0996,-3.082,-3.0781,-3.0371,-3.0195,-3.0176,-3.0156,-2.9883,-2.959,-3.0,-3.0156,-3.0254,-3.0684,-3.0273,-2.9687,-3.0059,-2.9902,-2.9668,-3.0078,-3.0508,-3.0644,-2.9785,-2.9607,-2.9219,-2.8022,-2.8301,-2.875,-2.8359,-2.7714,-2.7203,-2.7221,-2.5765,-2.4561,-2.439,-2.4109,0.0,0.0,-2.126,-2.0756,-1.9937,-2.0094,-2.0481,-2.1042,-2.1612,-2.2185,-2.2691,-2.2981,-2.342,-2.3989,-2.2054,-2.1145,-2.1571,-2.0141,-1.943,-1.943,-1.9078,-1.9078,-1.9417,-1.9078,-1.9092,-1.943,-1.943,-1.943,-1.943,-1.943,-1.943,-1.943,-1.943,-1.943,-1.943,-1.943,-1.9444,-1.9551,-2.0361,-2.0855,-2.1096,-3.3535,-3.3633,-3.3594,-3.3437,-3.3535,-3.418,-3.5781,-3.6738,-3.8164,-4.0605,-4.1035,-4.1953,-4.4121,-4.4101,-4.3984,-4.4141,-4.2422,-4.0742,-3.9316,-3.7324,-3.5957,-3.5391,-3.4121,-3.3496,-3.3613,-3.1953,-3.0859,-3.0449,-2.957,-2.9219,-2.9336,-2.8906,-2.8945,-2.9336,-2.9043,-2.9394,-3.0215,-3.0527,-3.084,-3.1094,-3.0937,-3.123,-3.166,-3.0937,-3.0469,-3.0195,-3.0195,-2.9922,-2.9629,-3.0059,-3.0195,-3.0234,-3.0391,-3.043,-3.041,-3.0234,-3.0312,-3.0469,-3.0625,-3.0762,-3.0742,-3.0137,-2.9785,-2.9372,-2.8301,-2.8516,-2.8711,-2.8027,-2.8388,-2.865,-2.8098,-2.7121,-2.6236,-2.5652,-2.4889,-2.3881,0.0,-2.1788,-2.1559,-2.2004,-2.2348,-2.264,-2.2871,-2.3079,-2.3561,-2.4394,-2.436,-2.4756,-2.5922,-2.4667,-2.349,-2.2704,-2.1481,-2.0371,-1.943,-1.9265,-1.9265,-1.943,-1.9265,-1.9265,-1.943,-1.943,-1.943,-1.943,-1.943,-1.943,-1.943,-1.943,-1.943,-1.943,-1.943,-1.9492,-1.9693,-1.9987,-2.0281,-2.0588,-3.4434,-3.4297,-3.3984,-3.3691,-3.3906,-3.4609,-3.6035,-3.7598,-3.9434,-4.1719,-4.2519,-4.3711,-4.5879,-4.5879,-4.5644,-4.5488,-4.4453,-4.2832,-4.0508,-3.9297,-3.8144,-3.6953,-3.5957,-3.5293,-3.4961,-3.3437,-3.2148,-3.1113,-3.0391,-2.9961,-2.9785,-2.9355,-2.9297,-2.9626,-2.9609,-2.9844,-3.0254,-3.1172,-3.1484,-3.1328,-3.1172,-3.1348,-3.166,-3.1094,-3.0898,-3.0859,-3.0547,-3.0273,-3.0078,-3.0351,-3.0449,-3.0449,-3.0449,-3.0527,-3.0586,-3.0293,-3.041,-3.0644,-3.0644,-3.0762,-3.0781,-3.0312,-3.0,-2.957,-2.8711,-2.8965,-2.918,-2.8476,-2.9293,-2.9863,-2.9316,-2.8709,-2.8107,-2.7419,-2.6624,-2.5436,0.0,-2.2894,-2.2723,-2.3506,-2.3428,-2.348,-2.3875,-2.406,-2.4162,-2.4157,-2.4726,-2.5344,-2.5819,-2.5433,-2.4561,-2.3239,-2.2137,-2.0859,-1.9417,-1.9661,-1.9932,-2.0199,-1.9821,-1.9779,-1.9974,-1.9377,-1.9105,-1.9212,-1.9212,-1.9265,-1.943,-1.943,-1.943,-1.943,-1.943,-1.9479,-1.9653,-1.976,-2.0054,-2.0441,-3.5391,-3.4746,-3.4219,-3.4258,-3.4863,-3.5664,-3.6601,-3.8535,-4.0527,-4.2285,-4.3301,-4.4687,-4.6816,-4.7031,-4.6855,-4.6426,-4.6367,-4.4922,-4.1621,-4.1308,-4.0156,-3.7656,-3.7851,-3.7246,-3.5586,-3.5019,-3.373,-3.168,-3.1172,-3.0703,-3.0293,-2.9824,-2.9646,-2.9704,-3.0508,-3.0625,-3.0312,-3.2051,-3.2559,-3.2168,-3.1738,-3.1348,-3.0976,-3.0937,-3.1445,-3.2111,-3.1191,-3.0898,-3.0898,-3.0898,-3.0898,-3.0898,-3.0898,-3.0586,-3.0234,-3.0234,-3.0234,-3.0234,-3.0234,-3.0547,-3.0781,-3.0351,-3.0215,-2.998,-2.9141,-2.9609,-3.0098,-2.9668,-3.0293,-3.0918,-3.0859,-3.0488,-3.0039,-2.9646,-2.9101,-2.791,-2.5417,-2.4528,-2.4224,-2.4398,-2.3375,-2.3041,-2.4128,-2.4645,-2.4104,-2.222,-2.4317,-2.508,-2.3777,-2.4455,-2.4369,-2.3282,-2.233,-2.1073,-1.9649,-2.0308,-2.1013,-2.1684,-2.0614,-2.0479,-2.1022,-1.932,-1.8651,-1.8918,-1.8918,-1.9092,-1.943,-1.943,-1.943,-1.943,-1.943,-1.943,-1.9399,-1.9706,-2.0174,-2.0655,-3.5449,-3.5723,-3.6191,-3.6836,-3.5801,-3.5488,-3.7324,-3.8906,-4.0859,-4.3535,-4.5176,-4.6797,-4.8652,-4.8555,-4.8183,-4.7754,-4.7129,-4.6133,-4.4609,-4.3301,-4.2148,-4.1152,-4.0,-3.8887,-3.7773,-3.6094,-3.4785,-3.3887,-3.2187,-3.1465,-3.1641,-3.0547,-3.0039,-3.0059,-3.0644,-3.0625,-3.0312,-3.2051,-3.2734,-3.2617,-3.2519,-3.2402,-3.2226,-3.1601,-3.1699,-3.2111,-3.1191,-3.0898,-3.0898,-3.0898,-3.0898,-3.0898,-3.0898,-3.082,-3.0703,-3.0703,-3.0703,-3.0703,-3.0703,-3.0801,-3.0859,-3.0742,-3.0449,-3.0059,-2.9531,-3.0078,-3.0488,-2.9726,-3.0527,-3.1152,-3.0488,-3.0273,-2.9844,-2.8789,-2.7734,-2.6812,-2.6109,-2.5369,-2.5205,-2.6193,-2.5213,-2.4896,-2.6128,-2.6077,-2.5629,-2.4815,-2.5034,-2.4955,-2.4277,-2.532,-2.533,-2.3895,-2.4206,-2.3871,-2.2661,-2.2553,-2.2773,-2.3191,-2.1331,-2.0649,-2.1022,-1.932,-1.8651,-1.8918,-1.8918,-1.9092,-1.943,-1.943,-1.943,-1.943,-1.943,-1.943,-1.9484,-1.9933,-2.0214,-2.0414,-3.6504,-3.7187,-3.793,-3.8398,-3.7793,-3.7715,-3.9141,-4.0137,-4.1543,-4.3789,-4.5586,-4.7031,-4.8008,-4.8555,-4.8672,-4.8242,-4.7598,-4.6699,-4.5469,-4.4473,-4.3398,-4.2207,-4.1406,-4.0332,-3.8887,-3.7305,-3.6016,-3.5,-3.3027,-3.2109,-3.2209,-3.1035,-3.0293,-2.9961,-3.0605,-3.0625,-3.0312,-3.2051,-3.291,-3.3047,-3.2871,-3.2578,0.0,-3.1699,-3.1562,-3.1543,-3.1074,-3.0898,-3.0898,-3.0898,-3.0898,-3.0898,-3.0898,-3.0898,-3.0898,-3.0898,-3.0898,-3.0898,-3.0898,-3.0898,-3.0898,-3.0898,-3.0703,-3.0449,-3.0195,-3.0527,-3.0742,-3.0254,-3.0742,-3.1035,-3.0332,-3.0059,-2.9512,-2.8223,-2.7246,-2.6602,-2.6406,-2.5801,-2.5625,-2.6367,-2.5977,-2.5859,-2.6356,-2.5898,-2.543,-2.5128,-2.5098,-2.4883,-2.4434,-2.584,-2.5888,-2.4176,-2.5163,-2.5035,-2.3535,-2.4145,-2.4387,-2.4213,-2.2818,-2.2282,-2.2461,-2.0856,-1.9946,-1.9598,-1.9794,-1.9692,-1.943,-1.943,-1.943,-1.943,-1.943,-1.943,-1.9439,-2.0013,-2.0167,-2.0294,-3.7949,-3.875,-3.9355,-3.9297,-4.0156,-4.1074,-4.166,-4.2129,-4.2812,-4.3984,-4.5683,-4.6797,-4.6738,-4.8008,-4.8711,-4.832,-4.7851,-4.6953,-4.5449,-4.5156,-4.4141,-4.2129,-4.2285,-4.1465,-3.9414,-3.8418,-3.7148,-3.5566,-3.3711,-3.2578,-3.2148,-3.123,-3.043,-2.9785,-3.0547,-3.0723,-3.0547,-3.207,-3.2949,-3.332,-3.3008,-3.2402,-3.168,-3.168,-3.1387,-3.0976,-3.0976,-3.0937,-3.0898,-3.0898,-3.0898,-3.0898,-3.0898,-3.0898,-3.0898,-3.0898,-3.0898,-3.0898,-3.0898,-3.0898,-3.0898,-3.0898,-3.0898,-3.0898,-3.0898,-3.0898,-3.0898,-3.0898,-3.084,-3.0684,-3.0273,-2.9766,-2.9078,-2.7904,-2.7246,-2.6797,-2.6445,-2.6016,-2.5713,-2.5771,-2.6113,0.0,-2.5732,-2.4992,-2.457,-2.4512,-2.4863,-2.4863,-2.4355,-2.5879,-2.5907,-2.4032,-2.5181,-2.5035,-2.3305,-2.5105,-2.5649,-2.4965,-2.4512,-2.4311,-2.426,-2.2928,-2.1719,-2.0777,-2.0998,-2.057,-1.9649,-1.9475,-1.943,-1.943,-1.947,-1.9426,-1.9492,-2.008,-2.0294,-2.0334,-3.8516,-3.9453,-4.0176,-3.9844,-4.1367,-4.3144,-4.4648,-4.5234,-4.5723,-4.6289,-4.8203,-4.9355,-4.9004,-4.8906,-4.8828,-4.875,-4.8027,-4.7461,-4.7148,-4.5801,-4.4531,-4.3418,-4.2773,-4.1758,-4.0312,-3.873,-3.7441,-3.6445,-3.3984,-3.2578,-3.2148,-3.0898,-3.0449,-3.0664,-3.082,-3.123,-3.1836,-3.2148,-3.2519,-3.293,-3.3203,-3.3008,-3.2578,-3.2578,-3.209,-3.1406,-3.1406,-3.1191,-3.0898,-3.0898,-3.0898,-3.0898,-3.0898,-3.0898,-3.0898,-3.0898,-3.0898,-3.0898,-3.0898,-3.0898,-3.0898,-3.0898,-3.0898,-3.0898,-3.0898,-3.0898,-3.0898,-3.0898,-3.0586,-3.0293,-3.0215,-2.9277,-2.834,-2.7806,-2.7012,-2.6465,-2.6406,-2.6016,-2.583,-2.623,-2.6016,-2.5771,-2.5693,-2.5557,-2.5352,-2.498,-2.5067,-2.4773,-2.3945,-2.4863,-2.4726,-2.3255,-2.4032,-2.4228,-2.3723,-2.4911,-2.5595,-2.5721,-2.4765,-2.4311,-2.426,-2.2928,-2.2297,-2.2285,-2.1438,-2.116,-2.1145,-1.9924,-1.943,-1.9399,-1.9626,-1.972,-1.98,-2.0388,-2.0601,-2.0641,-4.0254,-4.0762,-4.1269,-4.1504,-4.3144,-4.4863,-4.6133,-4.7637,-4.8144,-4.6777,-4.7519,-4.8008,-4.7578,-4.832,-4.8867,-4.8867,-4.8066,-4.7578,-4.7578,-4.5976,-4.4629,-4.375,-4.2891,-4.1816,-4.0547,-3.9043,-3.7851,-3.6992,-3.4394,-3.291,-3.2461,-3.0918,-3.0312,-3.0527,-3.0527,-3.1133,-3.2229,-3.2229,-3.2539,-3.3144,-3.334,-3.3164,-3.2793,-3.2793,-3.2266,-3.1523,-3.1523,-3.1387,-3.1191,-3.0957,-3.0898,-3.0898,-3.0898,-3.0898,-3.0898,-3.0898,-3.0898,-3.0898,-3.0898,-3.0898,-3.0898,-3.0898,-3.0898,-3.0898,-3.0898,-3.0898,-3.0898,-3.0898,-3.0703,-3.0488,-3.0234,-2.916,-2.8301,-2.832,-2.7598,-2.7051,-2.7051,-2.6484,-2.6152,-2.6367,-2.5996,-2.5693,-2.5693,-2.5693,-2.5401,-2.4785,-2.5156,-2.4941,-2.3848,-2.4824,-2.5006,-2.4135,-2.5102,-2.5548,-2.5432,-2.6621,-2.6962,-2.6458,-2.5928,-2.5584,-2.5377,-2.4922,-2.4382,-2.3789,-2.3691,-2.2879,-2.1472,-2.004,-1.943,-1.9386,-1.9519,-1.9573,-1.9639,-2.0227,-2.0441,-2.0508,-4.2109,-4.2285,-4.2617,-4.3476,-4.5137,-4.6582,-4.7246,-4.9316,-4.9883,-4.7324,-4.707,-4.6933,-4.6406,-4.7851,-4.8867,-4.8867,-4.8066,-4.7578,-4.7578,-4.5976,-4.4668,-4.3887,-4.293,-4.1914,-4.082,-3.9414,-3.8203,-3.7168,-3.4824,-3.3301,-3.25,-3.1035,-3.0234,-3.0078,-3.0254,-3.0976,-3.2051,-3.2226,-3.2793,-3.3555,-3.3555,-3.3359,-3.3066,-3.2969,-3.2461,-3.1797,-3.1797,-3.1738,-3.1601,-3.1269,-3.1094,-3.1016,-3.0918,-3.0898,-3.0898,-3.0898,-3.0898,-3.0898,-3.0898,-3.0898,-3.0898,-3.0898,-3.0898,-3.0898,-3.0898,-3.0898,-3.0898,-3.0898,-3.0898,-3.0723,-3.0156,-2.9316,-2.875,-2.8906,-2.8281,-2.7826,-2.7728,-2.709,-2.6562,-2.6289,-2.6113,-2.581,-2.544,-2.5499,-2.5273,-2.4473,-2.5156,-2.5098,-2.3984,-2.4902,-2.5149,-2.4544,-2.5649,-2.6244,-2.6182,-2.7198,-2.7362,-2.6749,-2.6609,-2.6473,-2.6406,-2.6816,-2.6378,-2.5292,-2.5864,-2.4378,-2.1529,-2.0371,-1.9707,-1.943,-1.9439,-1.9492,-1.9613,-2.0134,-2.0361,-2.0481,-4.3359,-4.3867,-4.4414,-4.5273,-4.7168,-4.8594,-4.8672,-4.9883,-5.043,-4.9355,-4.957,-4.9492,-4.8652,-4.873,-4.8867,-4.8867,-4.8066,-4.7578,-4.7578,-4.5976,-4.4824,-4.4355,-4.3105,-4.2187,-4.1699,-4.0019,-3.8359,-3.6738,-3.5293,-3.3574,-3.1621,-3.1074,-3.0391,-2.9668,-3.0469,-3.1113,-3.1621,-3.2402,-3.3223,-3.4004,-3.4004,-3.3984,-3.3906,-3.3516,-3.3086,-3.2676,-3.2676,-3.2422,-3.2109,-3.207,-3.1797,-3.1387,-3.1016,-3.0898,-3.0898,-3.0898,-3.0898,-3.0898,-3.0898,-3.0898,-3.0898,-3.0898,-3.0898,-3.0898,-3.0898,-3.0898,-3.0898,-3.0898,-3.0898,-3.0625,-2.9785,-2.9844,-2.9785,-2.9043,-2.8535,-2.8105,-2.7767,-2.765,-2.7109,-2.5888,-2.6395,-2.6269,-2.4687,-2.4902,-2.4941,-2.4453,-2.4863,-2.4902,-2.4375,-2.4473,-2.3954,-2.2706,-2.3425,-2.3752,-2.3553,-2.367,-2.4493,-2.5973,-2.5321,-2.5517,-2.6406,-2.6816,-2.691,-2.6795,-2.6312,-2.4378,-2.1586,-2.1472,-2.0587,-1.9399,-1.9653,-1.992,-2.0187,-2.0508,-2.0802,-2.1029,-4.5566,-4.5586,-4.5898,-4.7012,-4.7891,-4.873,-4.9531,-5.0312,-5.0586,-5.0,-4.9844,-4.9551,-4.8926,-4.8867,-4.8867,-4.8867,-4.8066,-4.7578,-4.7578,-4.5976,-4.4844,-4.4414,-4.3125,-4.2226,-4.1816,-4.0605,-3.9277,-3.7812,-3.6523,-3.4922,-3.3027,-3.1836,-3.1074,-3.0762,-3.1387,-3.2168,-3.3047,-3.3144,-3.3672,-3.4434,-3.418,-3.4082,-3.4023,-3.3594,-3.3164,-3.2793,-3.2793,-3.2695,-3.25,-3.2246,-3.1875,-3.1484,-3.1328,-3.1094,-3.0898,-3.0898,-3.0898,-3.0898,-3.0898,-3.0898,-3.0898,-3.0898,-3.0898,-3.0898,-3.0898,-3.0898,-3.0898,-3.0898,-3.0664,-3.0449,-3.0371,-3.0059,-2.9883,-3.0078,-2.9297,-2.8691,-2.8789,-2.793,-2.6992,-2.6211,-2.5723,-2.5176,-2.4492,-2.457,-2.4824,-2.5176,-2.5117,-2.4883,-2.4434,-2.37,-2.3138,-2.2757,-2.2313,-2.2824,-2.4298,-2.3611,-2.4241,-2.6045,-2.5433,-2.5407,-2.5852,-2.6943,-2.7539,-2.774,-2.6569,-2.5426,-2.425,-2.3319,-2.204,-2.073,-2.1045,-2.067,-2.0027,-2.0508,-2.0748,-2.0869,-4.7207,-4.707,-4.7305,-4.873,-4.9062,-4.9433,-5.0234,-5.0625,-5.0605,-5.0058,-4.9726,-4.9355,-4.8906,-4.8867,-4.8867,-4.8867,-4.8183,-4.7715,-4.7578,-4.6094,-4.5019,-4.4609,-4.332,-4.2422,-4.1992,-4.1152,-4.0078,-3.875,-3.7734,-3.6289,-3.4434,-3.2949,-3.2266,-3.2285,-3.2715,-3.3496,-3.4453,-3.4258,-3.4609,-3.5234,-3.4824,-3.457,-3.4394,-3.3828,-3.3437,-3.3144,-3.3027,-3.2988,-3.293,-3.2637,-3.2246,-3.1875,-3.1738,-3.1426,-3.1074,-3.1074,-3.0996,-3.0898,-3.0898,-3.0898,-3.0898,-3.0898,-3.0898,-3.0898,-3.0898,-3.0898,-3.0898,-3.0898,-3.0625,-3.0508,-3.084,-3.0371,-3.0117,-3.0605,-2.9805,-2.918,-2.9355,-2.8223,-2.7148,-2.6465,-2.5566,-2.4805,-2.4277,-2.4238,-2.4551,-2.5245,-2.4707,-2.4221,-2.4096,-2.3037,-2.2369,-2.2311,-2.1588,-2.2231,-2.4315,-2.3158,-2.3523,-2.5426,-2.4479,-2.4522,-2.545,-2.7008,-2.7891,-2.8228,-2.6717,-2.5827,-2.5316,-2.3766,-2.2312,-2.1075,-2.1307,-2.0816,-2.0107,-2.0521,-2.0735,-2.0828,-4.7871,-4.8183,-4.873,-5.0469,-5.1113,-5.125,-5.0859,-5.0801,-5.0508,-4.9648,-4.9531,-4.9355,-4.8906,-4.8867,-4.8867,-4.8867,-4.8457,-4.8027,-4.7617,-4.6387,-4.5469,-4.5039,-4.3769,-4.2871,-4.2422,-4.1601,-4.0527,-3.9199,-3.8769,-3.7461,-3.5351,-3.4453,-3.4043,-3.4062,-3.4473,-3.4941,-3.541,-3.582,-3.625,-3.6601,-3.6172,-3.5742,-3.5273,-3.4394,-3.4062,-3.4004,-3.3574,-3.3418,-3.3418,-3.3418,-3.3125,-3.2715,-3.2285,-3.1855,-3.1504,-3.1504,-3.1211,-3.0898,-3.0898,-3.0898,-3.0898,-3.0898,-3.0898,-3.0898,-3.0898,-3.0898,-3.0898,-3.0898,-3.0879,-3.0879,-3.0898,-3.0879,-3.0723,-3.0273,-2.9844,-2.9414,-2.8984,-2.8555,-2.7812,-2.6543,-2.6387,-2.5684,-2.3965,-2.3789,-2.3965,-2.4394,-2.3186,-2.2691,-2.3281,-2.246,-2.1584,-2.0666,-2.1014,-2.1677,-2.2732,-2.1248,-2.1642,-2.3822,-2.1856,-2.2512,-2.545,-2.7008,-2.7891,-2.8228,-2.6717,-2.5261,-2.371,-2.2251,-2.0931,-1.9786,-1.9859,-2.0147,-2.0668,-2.0668,-2.0855,-2.1109,-4.9004,-4.9336,-4.9629,-4.9883,-5.0293,-5.043,-5.0,-4.9941,-4.9844,-4.957,-4.9258,-4.9023,-4.8867,-4.8867,-4.8867,-4.8867,-4.8203,-4.7715,-4.7598,-4.6113,-4.5176,-4.5039,-4.3769,-4.2871,-4.2441,-4.1894,-4.1113,-4.0098,-3.9687,-3.8516,-3.668,-3.6406,-3.6113,-3.5859,-3.6289,-3.6719,-3.7109,-3.6953,-3.6973,-3.7031,-3.6309,-3.5762,-3.5332,-3.4726,-3.4492,-3.4434,-3.4023,-3.3867,-3.3828,-3.3516,-3.332,-3.3203,-3.3066,-3.2539,-3.1894,-3.1601,-3.1426,-3.125,-3.0976,-3.0898,-3.0898,-3.0898,-3.0898,-3.0898,-3.0898,-3.0898,-3.0898,-3.0898,-3.0898,-3.0898,-3.0898,-3.0898,-3.0432,-2.8911,-2.9202,-2.8964,-2.7232,-2.7271,-2.7051,-2.6055,-2.5684,-2.5156,-2.4297,-2.4766,-2.4775,-2.3985,-2.3517,-2.3298,-2.3317,-2.1258,-1.9952,-1.9667,-1.9044,0.0,-2.1341,-2.0027,-2.0888,-2.3766,-2.2143,-2.2975,-2.5901,-2.6406,-2.666,-2.6771,-2.6318,-2.5206,-2.3766,-2.3263,-2.2271,-2.1061,-2.1509,-2.1092,-2.0414,-2.0828,-2.1029,-2.1109,-4.9277,-4.9629,-4.9844,-4.957,-4.9883,-5.0039,-4.959,-4.9531,-4.9473,-4.9297,-4.9023,-4.8867,-4.8867,-4.8711,-4.8672,-4.8848,-4.8223,-4.7754,-4.7598,-4.6269,-4.5351,-4.5039,-4.4082,-4.3223,-4.2441,-4.2168,-4.1621,-4.0762,-4.0176,-3.9414,-3.8496,-3.8164,-3.7969,-3.7891,-3.7969,-3.8164,-3.8379,-3.7949,-3.7676,-3.748,-3.6777,-3.625,-3.5801,-3.5195,-3.4961,-3.4902,-3.4473,-3.4316,-3.4238,-3.3809,-3.3769,-3.3848,-3.3516,-3.3184,-3.2773,-3.2168,-3.1777,-3.1465,-3.1191,-3.1016,-3.0937,-3.1094,-3.0996,-3.0898,-3.0898,-3.0898,-3.0898,-3.0898,-3.0898,-3.0704,-3.0079,-3.047,-3.012,-2.7671,-2.8594,-2.863,-2.5909,-2.5947,-2.5958,-2.5275,-2.4952,-2.4823,-2.4866,-2.5566,-2.5339,-2.38,-2.3326,-2.2717,-2.1805,-1.9962,-1.8823,-1.8614,-1.7836,-1.822,-1.9866,-1.8988,-1.9724,-2.1969,-2.1696,-2.3207,-2.61,-2.61,-2.61,-2.6045,-2.548,-2.4378,-2.2942,-2.2462,-2.178,-2.0989,-2.1575,-2.1241,-2.0454,-2.0935,-2.1109,-2.1109,-4.8867,-4.9199,-4.9492,-4.9492,-4.9824,-4.9941,-4.9551,-4.9492,-4.9336,-4.8906,-4.8867,-4.8867,-4.8867,-4.8496,-4.8398,-4.8789,-4.8379,-4.7949,-4.7558,-4.6738,-4.5898,-4.5058,-4.4629,-4.3789,-4.25,-4.2441,-4.2012,-4.1172,-4.0371,-4.0176,-4.0547,-3.9726,-3.9551,-3.9922,-3.9492,-3.9258,-3.918,-3.8789,-3.834,-3.7891,-3.75,-3.707,-3.6582,-3.5781,-3.5469,-3.5371,-3.4922,-3.4746,-3.4687,-3.4258,-3.4375,-3.4551,-3.3769,-3.3769,-3.3906,-3.3047,-3.2226,-3.1601,-3.1562,-3.1289,-3.1074,-3.1465,-3.125,-3.0918,-3.0898,-3.0898,-3.0898,-3.0898,-3.0898,-3.0392,-2.8724,-2.9648,-2.963,-2.6342,-2.7745,-2.8089,-2.4748,-2.459,-2.4677,-2.4248,-2.4212,-2.4542,-2.5399,-2.5875,-2.5434,-2.3591,-2.2553,-2.1151,-1.9203,-1.8675,-1.8189,-1.7621,-1.742,-1.7702,-1.8517,-1.8209,-1.8355,-1.8958,-2.0771,-2.3095,-2.5772,-2.5772,-2.5772,-2.5753,-2.43,-2.2862,-2.139,-2.0282,-1.9826,-1.9893,-2.0454,-2.0681,-2.0708,-2.1002,-2.1109,-2.1109,-4.8867,-4.8945,-4.9023,-4.9023,-4.9101,-4.9141,-4.9023,-4.9023,-4.8984,-4.8867,-4.8867,-4.8867,-4.8867,-4.8769,-4.8613,-4.8379,-4.7676,-4.7187,-4.709,-4.6289,-4.5586,-4.5039,-4.4629,-4.3945,-4.2949,-4.2598,-4.2012,-4.1172,-4.0976,-4.0918,-4.1016,-4.0801,-4.0586,-4.0371,-4.0254,-3.9824,-3.9199,-3.9101,-3.8613,-3.791,-3.7812,-3.7324,-3.6641,-3.6445,-3.6152,-3.582,-3.5391,-3.5234,-3.5156,-3.4707,-3.4609,-3.4668,-3.4453,-3.4238,-3.3906,-3.3047,-3.2656,-3.2422,-3.2109,-3.1934,-3.1894,-3.1992,-3.1699,-3.1289,-3.0957,-3.0898,-3.0898,-3.0898,-3.0898,-3.0392,-2.8724,-2.8724,-2.7813,-2.4086,-2.4738,-2.4777,-2.2122,-2.2592,-2.3193,-2.295,-2.2934,-2.3005,-2.3235,-2.3461,-2.2953,-2.139,-2.0953,-2.0008,-1.8355,-1.8181,-1.794,-1.7635,-1.7969,-1.8384,-1.8811,-1.8971,-1.9118,-1.9323,-2.0887,-2.1968,-2.2645,-2.2645,-2.2787,-2.298,-2.2579,-2.1701,-2.0493,-2.0214,-2.0134,-2.016,-2.0535,-2.0681,-2.0708,-2.1002,-2.1109,-2.1109,-4.8867,-4.8867,-4.8867,-4.8867,-4.8867,-4.8867,-4.8867,-4.8867,-4.8867,-4.8867,-4.8867,-4.8867,-4.8867,-4.8516,-4.8262,-4.8223,-4.7598,-4.7148,-4.6933,-4.6328,-4.5762,-4.5332,-4.4922,-4.4277,-4.3379,-4.2754,-4.2012,-4.1172,-4.1172,-4.1172,-4.1172,-4.1172,-4.1055,-4.082,-4.0605,-4.0254,-3.9785,-3.9375,-3.8926,-3.8476,-3.8086,-3.7656,-3.7226,-3.7031,-3.668,-3.6309,-3.6269,-3.6016,-3.5644,-3.5391,-3.5293,-3.5234,-3.4824,-3.4687,-3.4551,-3.3867,-3.3262,-3.2734,-3.2519,-3.2324,-3.2229,-3.2229,-3.1992,-3.1699,-3.1269,-3.1035,-3.0898,-3.0898,-3.0898,-3.0392,-2.8724,-2.8426,-2.72,-2.3488,-2.38,-2.344,-2.0427,-2.1027,-2.167,-2.1406,-2.1726,-2.2132,-2.2781,-2.3037,-2.2525,-2.0948,-2.0863,-2.0128,-1.8318,-1.8315,-1.8303,-1.8009,-1.8317,-1.8637,-1.8918,-1.9078,-1.9889,-2.1222,-2.1469,-2.2702,-2.4599,-2.3207,-2.2777,-2.299,-2.2296,-2.1744,-2.13,-2.0679,-2.0774,-2.1403,-2.1855,-2.1458,-2.0832,-2.1853,-2.179,-2.1109,-4.8867,-4.8867,-4.8867,-4.8867,-4.8867,-4.8867,-4.8867,-4.8867,-4.8867,-4.8867,-4.8867,-4.8867,-4.8867,-4.8144,-4.7793,-4.8086,-4.7734,-4.7324,-4.6953,-4.6543,-4.6113,-4.5703,-4.5254,-4.4609,-4.373,-4.2812,-4.1953,-4.1172,-4.1172,-4.1172,-4.1172,-4.1172,-4.1172,-4.1152,-4.0781,-4.0586,-4.0469,-3.9726,-3.9316,-3.9141,-3.8418,-3.8047,-3.7891,-3.7519,-3.7129,-3.6816,-3.7168,-3.6836,-3.6211,-3.6211,-3.6172,-3.5996,-3.5234,-3.5176,-3.5312,-3.4922,-3.3984,-3.3066,-3.3008,-3.2676,-3.2344,-3.2346,-3.2266,-3.2148,-3.1719,-3.1289,-3.0996,-3.0996,-3.0937,-3.0392,-2.8724,-2.8426,-2.727,-2.3672,-2.363,-2.2881,-1.9451,-1.9778,-2.0254,-1.9925,-2.0549,-2.1405,-2.2498,-2.2887,-2.2473,-2.1029,-2.1065,-2.04,-1.8626,-1.8784,-1.8811,-1.8557,-1.8557,-1.8691,-1.8985,-1.8985,-2.0357,-2.3102,-2.2071,-2.371,-2.7511,-2.471,-2.3828,-2.4335,-2.2779,-2.254,-2.3111,-2.1954,-2.2155,-2.3201,-2.3473,-2.273,-2.1616,-2.2802,-2.2466,-2.1411,-4.8867,-4.8867,-4.8867,-4.8867,-4.8867,-4.8867,-4.8867,-4.8867,-4.8867,-4.8867,-4.8867,-4.8867,-4.8867,-4.8418,-4.7988,-4.7715,-4.7285,-4.6992,-4.6933,-4.6543,-4.6113,-4.5703,-4.5254,-4.4609,-4.373,-4.2519,-4.166,-4.1172,-4.1172,-4.1172,-4.1172,-4.1172,-4.1172,-4.1172,-4.1094,-4.0859,-4.0508,-4.0371,-3.9883,-3.9199,-3.9062,-3.8574,-3.791,-3.7851,-3.7559,-3.7207,-3.7266,-3.7207,-3.7109,-3.7109,-3.6855,-3.6543,-3.6406,-3.5918,-3.5391,-3.5312,-3.4863,-3.4316,-3.3965,-3.3555,-3.3144,-3.2793,-3.2695,-3.2598,-3.2168,-3.1738,-3.1426,-3.1426,-3.1133,-3.0392,-2.8724,-2.8426,-2.727,-2.3672,-2.2625,-2.1517,-1.9594,-1.905,-1.8891,-1.9095,-1.9421,-1.974,-1.997,-1.9777,-1.9678,-1.9669,-1.926,-1.8957,-1.8851,-1.8905,-1.8905,-1.8865,-1.8851,-1.8998,-1.9292,-1.9292,-2.0186,-2.1907,-2.1669,-2.2645,-2.4433,-2.2702,-2.2991,-2.4696,-2.3265,-2.3681,-2.5456,-2.5262,-2.5323,-2.5351,-2.407,-2.4271,-2.4867,-2.2375,-2.2215,-2.3014,-4.8867,-4.8867,-4.8867,-4.8867,-4.8867,-4.8867,-4.8867,-4.8867,-4.8867,-4.8867,-4.8867,-4.8867,-4.8867,-4.8262,-4.7891,-4.791,-4.7109,-4.6699,-4.6914,-4.6543,-4.6113,-4.5703,-4.5254,-4.4394,-4.3047,-4.2226,-4.1601,-4.1172,-4.1172,-4.1172,-4.1172,-4.1172,-4.1172,-4.1172,-4.1172,-4.1055,-4.0859,-4.0625,-4.0156,-3.9551,-3.9297,-3.8828,-3.8281,-3.8281,-3.8008,-3.7656,-3.791,-3.7695,-3.7324,-3.7559,-3.7363,-3.7012,-3.7012,-3.6582,-3.6074,-3.6074,-3.5273,-3.4316,-3.4121,-3.375,-3.3379,-3.3184,-3.2969,-3.2734,-3.2559,-3.2168,-3.1797,-3.1562,-3.1367,-3.0917,-2.9941,-2.8307,-2.6533,-2.4743,-2.2243,-2.0256,-1.9475,-1.8865,-1.8597,-1.8891,-1.9185,-1.943,-1.943,-1.9239,-1.9225,-1.9417,-1.9118,-1.9025,-1.9158,-1.9158,-1.9158,-1.9158,-1.9158,-1.9225,-1.943,-2.0199,-2.1316,-2.2814,-2.3654,-2.482,-2.6173,-2.4932,-2.4969,-2.603,-2.4773,-2.5446,-2.7254,-2.6349,-2.653,-2.7194,-2.6486,-2.6106,-2.5802,-2.4286,-2.3683,-2.3387,-4.8867,-4.8867,-4.8867,-4.8867,-4.8867,-4.8867,-4.8867,-4.8867,-4.8867,-4.8867,-4.8867,-4.8867,-4.8867,-4.8086,-4.7715,-4.8027,-4.6992,-4.6445,-4.6758,-4.6484,-4.6113,-4.5703,-4.4961,-4.3906,-4.2461,-4.1914,-4.1504,-4.1172,-4.1172,-4.1172,-4.1172,-4.1172,-4.1172,-4.1172,-4.1172,-4.1172,-4.1152,-4.082,-4.043,-4.0,-3.9551,-3.918,-3.8867,-3.8652,-3.8437,-3.8242,-3.8496,-3.8144,-3.7637,-3.7969,-3.7793,-3.7441,-3.7441,-3.7148,-3.6816,-3.6816,-3.5723,-3.4512,-3.4414,-3.4062,-3.3691,-3.3594,-3.334,-3.3066,-3.2969,-3.2617,-3.2187,-3.1758,-3.1283,-3.0832,-3.041,-2.7931,-2.5808,-2.5147,-2.2244,-1.9891,-1.943,-1.8985,-1.8784,-1.8998,-1.9345,-1.9573,-1.9573,-1.9506,-1.9466,-1.9466,-1.947,-1.943,-1.943,-1.943,-1.9533,-1.9924,-1.9924,-2.0097,-2.0429,-2.1544,-2.2918,-2.4513,-2.5677,-2.7084,-2.854,-2.7401,-2.7189,-2.7742,-2.6637,-2.7221,-2.892,-2.7632,-2.7871,-2.892,-2.8545,-2.7871,-2.7073,-2.6288,-2.5436,-2.4486,-4.8867,-4.8867,-4.8867,-4.8867,-4.8867,-4.8867,-4.8867,-4.8867,-4.8867,-4.8867,-4.8867,-4.8867,-4.8867,-4.8086,-4.7598,-4.7617,-4.6816,-4.6308,-4.6348,-4.6328,-4.6113,-4.5703,-4.4101,-4.2969,-4.2441,-4.1641,-4.1211,-4.1172,-4.1172,-4.1172,-4.1172,-4.1172,-4.1172,-4.1172,-4.1172,-4.1172,-4.1172,-4.1133,-4.0879,-4.043,-4.0019,-3.9824,-3.9707,-3.8887,-3.8789,-3.9062,-3.8711,-3.8535,-3.8496,-3.8516,-3.8242,-3.7871,-3.7871,-3.7598,-3.7246,-3.7246,-3.6601,-3.5801,-3.541,-3.4961,-3.4512,-3.4121,-3.4004,-3.3867,-3.3457,-3.3047,-3.2637,-3.2207,-3.0592,-2.9137,-2.8677,-2.7194,-2.5384,-2.3612,-2.2542,-2.1365,-1.9631,-1.939,-1.9319,-1.939,-1.9826,-2.0174,-2.0174,-1.992,-1.9773,-1.9773,-1.9519,-1.943,-1.943,-1.943,-2.004,-2.1415,-2.1415,-2.2096,-2.3431,-2.3599,-2.4619,-2.6511,-2.6623,-2.766,-2.9473,-2.7938,-2.8236,-2.9909,-2.8471,-2.8904,-3.0704,-3.0587,-3.0587,-3.0587,-2.9039,-2.9275,-3.0157,-2.7134,-2.6893,-2.7811,-4.8867,-4.8867,-4.8867,-4.8867,-4.8867,-4.8867,-4.8867,-4.8867,-4.8867,-4.8867,-4.8867,-4.8867,-4.8867,-4.832,-4.7871,-4.7598,-4.7031,-4.6582,-4.6328,-4.5801,-4.5449,-4.5273,-4.3867,-4.2871,-4.2441,-4.1855,-4.1426,-4.1172,-4.1172,-4.1172,-4.1172,-4.1172,-4.1172,-4.1172,-4.1172,-4.1172,-4.1172,-4.1172,-4.0918,-4.0508,-4.0351,-4.0137,-3.9824,-3.9199,-3.9238,-3.957,-3.9121,-3.8965,-3.8965,-3.8965,-3.8672,-3.832,-3.832,-3.8027,-3.7637,-3.7363,-3.707,-3.6719,-3.6309,-3.5449,-3.4668,-3.4492,-3.4258,-3.4023,-3.3867,-3.3496,-3.2988,-3.2305,-3.1587,-3.0895,-3.0417,-2.797,-2.5818,-2.5365,-2.2825,-2.0787,-2.0281,-1.9867,-1.9706,-1.988,-2.0094,-2.0167,-2.0167,-2.0134,-2.0,-1.9813,-1.9693,-1.9559,-1.943,-2.0256,-2.187,-2.4305,-2.4378,-2.4312,-2.4225,-2.5125,-2.6119,-2.7076,-2.8052,-2.8893,-2.959,-2.924,-2.9508,-3.0215,-2.991,-3.0257,-3.0898,-3.0898,-3.0898,-3.084,-3.0216,-3.0333,-3.0645,-2.8307,-2.7871,-2.817,-4.8867,-4.8867,-4.8867,-4.8867,-4.875,-4.8691,-4.8828,-4.873,-4.8711,-4.8848,-4.8867,-4.8867,-4.8867,-4.8476,-4.8027,-4.7617,-4.7187,-4.6758,-4.6328,-4.5508,-4.4902,-4.4629,-4.3633,-4.2871,-4.2441,-4.2012,-4.1601,-4.1172,-4.1172,-4.1172,-4.1172,-4.1172,-4.1172,-4.1172,-4.1172,-4.1172,-4.1172,-4.1172,-4.0996,-4.0723,-4.0586,-4.043,-4.0234,-3.9648,-3.9707,-4.0039,-3.959,-3.9414,-3.9394,-3.9258,-3.9004,-3.875,-3.8613,-3.8359,-3.8047,-3.7617,-3.75,-3.7402,-3.6992,-3.6113,-3.5254,-3.498,-3.4707,-3.4414,-3.4141,-3.3848,-3.3379,-3.2539,-3.1976,-3.1474,-3.1035,-2.8314,-2.6076,-2.5775,-2.3108,-2.1011,-2.0583,-2.0267,-2.0147,-2.0347,-2.0454,-2.0508,-2.0508,-2.0428,-2.0436,-2.0662,-2.0538,-2.0578,-2.0773,-2.2209,-2.4039,-2.6226,-2.6738,-2.6774,-2.632,-2.7009,-2.766,-2.8236,-2.9295,-2.9844,-3.0,-3.0293,-3.041,-3.043,-3.0762,-3.0898,-3.0898,-3.0898,-3.0898,-3.0898,-3.0898,-3.0898,-3.0762,-2.9589,-2.9216,-2.9039,-4.8867,-4.8867,-4.8848,-4.8848,-4.8496,-4.8359,-4.8789,-4.8476,-4.8359,-4.8808,-4.8867,-4.8867,-4.8848,-4.8476,-4.8047,-4.7617,-4.7187,-4.6758,-4.6328,-4.5488,-4.4629,-4.375,-4.3301,-4.2871,-4.2441,-4.2031,-4.1601,-4.1172,-4.1172,-4.1172,-4.1172,-4.1172,-4.1172,-4.1172,-4.1172,-4.1172,-4.1172,-4.1172,-4.1172,-4.1133,-4.0703,-4.0781,-4.1074,-4.0234,-4.0156,-4.0469,-4.0059,-3.9902,-3.9824,-3.9375,-3.9199,-3.9141,-3.8711,-3.8574,-3.8496,-3.8047,-3.793,-3.7832,-3.7422,-3.6992,-3.6465,-3.5625,-3.541,-3.5156,-3.4277,-3.4082,-3.3828,-3.2969,-3.1552,-3.0257,-2.9795,-2.804,-2.5997,-2.4115,-2.3427,-2.243,-2.051,-2.0494,-2.0743,-2.0743,-2.0998,-2.1109,-2.1109,-2.0918,-2.1224,-2.2393,-2.2215,-2.2548,-2.3743,-2.5278,-2.6299,-2.6715,-2.8138,-2.9336,-3.0195,-2.9355,-2.9355,-3.0195,-3.0195,-3.0449,-3.0898,-3.0898,-3.0898,-3.0898,-3.0898,-3.0898,-3.0898,-3.0898,-3.0898,-3.0898,-3.0898,-3.0898,-3.0898,-3.0898,-3.0898,-3.0898,-4.875,-4.8613,-4.8398,-4.8398,-4.8301,-4.8242,-4.8379,-4.8281,-4.8359,-4.8808,-4.8867,-4.873,-4.8437,-4.8555,-4.8242,-4.7207,-4.7285,-4.6816,-4.5488,-4.5156,-4.4629,-4.375,-4.3594,-4.332,-4.2891,-4.2461,-4.2031,-4.1621,-4.1308,-4.1172,-4.1172,-4.1172,-4.1172,-4.1172,-4.1172,-4.1172,-4.1172,-4.1172,-4.1172,-4.1172,-4.1035,-4.1055,-4.1113,-4.0547,-4.0605,-4.0918,-4.0488,-4.0332,-4.0312,-4.0176,-3.9922,-3.9609,-3.916,-3.8809,-3.8555,-3.8418,-3.8379,-3.8281,-3.7851,-3.7637,-3.7344,-3.6504,-3.584,-3.5332,-3.5059,-3.4512,-3.3906,-3.3359,-3.2614,-3.2033,-3.1918,-3.0204,-2.8561,-2.8006,-2.657,-2.5242,-2.4389,-2.335,-2.3177,-2.4254,-2.3499,-2.2841,-2.2841,-2.2754,-2.2798,-2.29,-2.3728,-2.4639,-2.5772,-2.6563,-2.751,-2.8687,-2.9153,-2.9648,-3.0195,-2.9941,-3.0117,-3.0684,-3.0684,-3.0762,-3.0898,-3.0898,-3.0898,-3.0898,-3.0898,-3.0898,-3.0898,-3.0898,-3.0898,-3.0898,-3.0898,-3.0898,-3.0898,-3.0898,-3.0898,-3.0898,-4.873,-4.8652,-4.8418,-4.8242,-4.8066,-4.7949,-4.7949,-4.7812,-4.7851,-4.8301,-4.8359,-4.8262,-4.7988,-4.8203,-4.7969,-4.7012,-4.7012,-4.6562,-4.5371,-4.5117,-4.4707,-4.4004,-4.3808,-4.3496,-4.3086,-4.2812,-4.2402,-4.1797,-4.1543,-4.1348,-4.1172,-4.1172,-4.1172,-4.1172,-4.1172,-4.1172,-4.1172,-4.1172,-4.1172,-4.1172,-4.1172,-4.1172,-4.1152,-4.0879,-4.0937,-4.1133,-4.0879,-4.0781,-4.0762,-4.0586,-4.0234,-3.9844,-3.957,-3.9297,-3.9062,-3.8887,-3.8828,-3.873,-3.8301,-3.8047,-3.7812,-3.7285,-3.6523,-3.5801,-3.5469,-3.498,-3.4473,-3.4023,-3.3594,-3.3301,-3.3301,-3.2028,-3.0723,-3.0083,-2.8623,-2.7265,-2.6355,-2.5288,-2.4901,-2.5863,-2.513,-2.4532,-2.4532,-2.4532,-2.4637,-2.4951,-2.6162,-2.7184,-2.7828,-2.8089,-2.871,-2.9805,-2.9824,-3.0019,-3.0469,-3.0469,-3.0605,-3.0898,-3.0898,-3.0898,-3.0898,-3.0898,-3.0898,-3.0898,-3.0898,-3.0898,-3.0898,-3.0898,-3.0898,-3.0898,-3.0898,-3.0898,-3.0898,-3.0898,-3.0898,-3.0898,-4.8711,-4.8808,-4.8672,-4.8281,-4.7851,-4.7578,-4.7578,-4.7246,-4.7129,-4.7519,-4.7617,-4.7598,-4.7539,-4.7558,-4.7383,-4.6914,-4.6523,-4.6133,-4.5703,-4.5273,-4.4844,-4.4414,-4.3945,-4.3535,-4.3144,-4.3066,-4.2637,-4.1855,-4.1777,-4.1543,-4.1172,-4.1172,-4.1172,-4.1172,-4.1172,-4.1172,-4.1172,-4.1172,-4.1172,-4.1172,-4.1172,-4.1172,-4.1172,-4.1172,-4.1172,-4.1172,-4.1172,-4.1172,-4.1113,-4.0723,-4.0293,-3.9961,-3.9961,-3.9902,-3.9766,-3.9375,-3.9199,-3.9062,-3.873,-3.832,-3.7969,-3.793,-3.7344,-3.6562,-3.5703,-3.5449,-3.5273,-3.4844,-3.4434,-3.4121,-3.4082,-3.3437,-3.2416,-3.0843,-2.9934,-2.8814,-2.7227,-2.6583,-2.6288,-2.6409,-2.6288,-2.6227,-2.6227,-2.6227,-2.6679,-2.7692,-2.9013,-2.9724,-2.9685,-2.9668,-2.9863,-3.0254,-3.0254,-3.0469,-3.0879,-3.0898,-3.0898,-3.0898,-3.0898,-3.0898,-3.0898,-3.0898,-3.0898,-3.0898,-3.0898,-3.0898,-3.0898,-3.0898,-3.0898,-3.0898,-3.0898,-3.0898,-3.0898,-3.0898,-3.0898,-3.0898,-4.8203,-4.834,-4.832,-4.8223,-4.7851,-4.7578,-4.7578,-4.75,-4.748,-4.7578,-4.7871,-4.7812,-4.7148,-4.7383,-4.7266,-4.6504,-4.6348,-4.6133,-4.5703,-4.5273,-4.4844,-4.4414,-4.3945,-4.3672,-4.3574,-4.291,-4.248,-4.2285,-4.1621,-4.1269,-4.1172,-4.1172,-4.1172,-4.1172,-4.1172,-4.1172,-4.1172,-4.1172,-4.1172,-4.1172,-4.1172,-4.1172,-4.1172,-4.1172,-4.1172,-4.1172,-4.1172,-4.1172,-4.1152,-4.1074,-4.0742,-4.0391,-4.0391,-3.9902,-3.9394,-3.9668,-3.9258,-3.8769,-3.9004,-3.875,-3.8359,-3.8008,-3.7793,-3.7441,-3.6582,-3.5879,-3.5371,-3.5273,-3.4883,-3.4473,-3.4141,-3.3926,-3.3511,-3.2455,-3.1854,-3.1271,-3.0566,-2.8979,-2.8367,-2.9667,-2.8664,-2.7871,-2.7871,-2.7871,-2.7831,-2.7809,-2.9563,-3.0449,-3.0078,-3.041,-3.0644,-3.0742,-3.0742,-3.0781,-3.0898,-3.0898,-3.0898,-3.0898,-3.0898,-3.0898,-3.0898,-3.0898,-3.0898,-3.0898,-3.0898,-3.0898,-3.0898,-3.0898,-3.0898,-3.0898,-3.0898,-3.0898,-3.0898,-3.0898,-3.0898,-3.0898,-4.8047,-4.8203,-4.8144,-4.7949,-4.7734,-4.7441,-4.7031,-4.6973,-4.6973,-4.6973,-4.7168,-4.7129,-4.668,-4.6836,-4.6797,-4.6348,-4.6308,-4.6211,-4.5996,-4.5371,-4.4922,-4.4707,-4.4062,-4.3613,-4.3418,-4.2754,-4.2422,-4.2422,-4.1777,-4.1367,-4.1172,-4.1172,-4.1172,-4.1172,-4.1172,-4.1172,-4.1172,-4.1172,-4.1172,-4.1172,-4.1172,-4.1172,-4.1172,-4.1172,-4.1172,-4.1172,-4.1172,-4.1172,-4.1172,-4.1172,-4.1016,-4.084,-4.084,-4.0508,-4.0117,-3.9941,-3.957,-3.916,-3.8965,-3.875,-3.8516,-3.8301,-3.8086,-3.7754,-3.7109,-3.6621,-3.6309,-3.6309,-3.5781,-3.5254,-3.5039,-3.4492,-3.3926,-3.3476,-3.2715,-3.2168,-3.2129,-3.0825,-3.0187,-3.1073,-3.0443,-2.9796,-2.9608,-2.9589,-2.9514,-2.9289,-3.0276,-3.0781,-3.0547,-3.0762,-3.0898,-3.0898,-3.0898,-3.0898,-3.0898,-3.0898,-3.0898,-3.0898,-3.0898,-3.0898,-3.0898,-3.0898,-3.0898,-3.0898,-3.0898,-3.0898,-3.0898,-3.0898,-3.0898,-3.0898,-3.0898,-3.0898,-3.0898,-3.0898,-3.0898,-3.0898,-4.7851,-4.8047,-4.7988,-4.7637,-4.7519,-4.7226,-4.6523,-4.6406,-4.6387,-4.6308,-4.6367,-4.6387,-4.6308,-4.6308,-4.6308,-4.6308,-4.6308,-4.6308,-4.6308,-4.5508,-4.5019,-4.5019,-4.418,-4.3535,-4.3183,-4.2695,-4.2402,-4.2324,-4.1894,-4.1523,-4.1172,-4.1172,-4.1172,-4.1172,-4.1172,-4.1172,-4.1172,-4.1172,-4.1172,-4.1172,-4.1172,-4.1172,-4.1172,-4.1172,-4.1172,-4.1172,-4.1172,-4.1172,-4.1172,-4.1172,-4.1172,-4.1172,-4.1172,-4.1113,-4.0918,-4.0215,-3.9961,-3.9726,-3.8906,-3.8691,-3.8672,-3.8594,-3.8301,-3.7949,-3.7598,-3.7402,-3.7305,-3.7305,-3.668,-3.6113,-3.6035,-3.5078,-3.4258,-3.4101,-3.3125,-3.248,-3.2754,-3.2051,-3.1523,-3.1523,-3.1445,-3.1269,-3.0918,-3.0898,-3.0898,-3.0898,-3.0898,-3.0898,-3.0898,-3.0898,-3.0898,-3.0898,-3.0898,-3.0898,-3.0898,-3.0898,-3.0898,-3.0898,-3.0898,-3.0898,-3.0898,-3.0898,-3.0898,-3.0898,-3.0898,-3.0898,-3.0898,-3.0898,-3.0898,-3.0898,-3.0898,-3.0898,-3.0898,-3.0898,-3.0898,-3.0898,-4.707,-4.7402,-4.7656,-4.7598,-4.7266,-4.6973,-4.6855,-4.6836,-4.6719,-4.6348,-4.6621,-4.6699,-4.6348,-4.6308,-4.6308,-4.6308,-4.6308,-4.6308,-4.6308,-4.5508,-4.5019,-4.5019,-4.418,-4.3672,-4.3613,-4.2832,-4.2246,-4.1894,-4.1465,-4.123,-4.1172,-4.1172,-4.1172,-4.1172,-4.1172,-4.1172,-4.1172,-4.1172,-4.1172,-4.1172,-4.1172,-4.1172,-4.1172,-4.1172,-4.1172,-4.1172,-4.1172,-4.1172,-4.1172,-4.1172,-4.1172,-4.1172,-4.1172,-4.0918,-4.0586,-4.0469,-4.0176,-3.9785,-3.9258,-3.9121,-3.9023,-3.8672,-3.8535,-3.8476,-3.8418,-3.7832,-3.7305,-3.7305,-3.6914,-3.6465,-3.6094,-3.5586,-3.4961,-3.4199,-3.3613,-3.3144,-3.2832,-3.2051,-3.1523,-3.1523,-3.1191,-3.0957,-3.0898,-3.0898,-3.0898,-3.0898,-3.0898,-3.0898,-3.0898,-3.0898,-3.0898,-3.0898,-3.0898,-3.0898,-3.0898,-3.0898,-3.0898,-3.0898,-3.0898,-3.0898,-3.0898,-3.0898,-3.0898,-3.0898,-3.0898,-3.0898,-3.0898,-3.0898,-3.0898,-3.0898,-3.0898,-3.0898,-3.0898,-3.0898,-3.0898,-3.0898,-4.6875,-4.709,-4.7226,-4.7226,-4.7051,-4.6855,-4.6621,-4.6582,-4.6601,-4.6641,-4.6816,-4.6855,-4.668,-4.6445,-4.6308,-4.6308,-4.6308,-4.6308,-4.6308,-4.5508,-4.5019,-4.5019,-4.418,-4.3594,-4.3359,-4.2988,-4.2461,-4.1797,-4.1387,-4.1172,-4.1172,-4.1172,-4.1172,-4.1172,-4.1172,-4.1172,-4.1172,-4.1172,-4.1172,-4.1172,-4.1172,-4.1172,-4.1172,-4.1172,-4.1172,-4.1172,-4.1172,-4.1172,-4.1172,-4.1172,-4.1172,-4.1172,-4.1172,-4.1035,-4.084,-4.0586,-4.0391,-4.0156,-3.9707,-3.9394,-3.916,-3.8965,-3.875,-3.8574,-3.8574,-3.8281,-3.8008,-3.8008,-3.748,-3.6953,-3.6777,-3.5996,-3.5176,-3.4531,-3.3867,-3.3359,-3.3164,-3.2617,-3.2148,-3.1914,-3.1504,-3.1152,-3.0918,-3.0898,-3.0898,-3.0898,-3.0898,-3.0898,-3.0898,-3.0898,-3.0898,-3.0898,-3.0898,-3.0898,-3.0898,-3.0898,-3.0898,-3.0898,-3.0898,-3.0898,-3.0898,-3.0898,-3.0898,-3.0898,-3.0898,-3.0898,-3.0898,-3.0898,-3.0898,-3.0898,-3.0898,-3.0898,-3.0898,-3.0898,-3.0898,-3.0898]},{"header":{"parameterUnit":"m.s-1","parameterCategory":1,"la1":30.6,"la2":28.766,"lo1":-90.7593,"lo2":-88.6598,"dy":0.0162,"dx":0.0183,"nx":116,"ny":114,"refTime":"2024-05-12T18:00:00:Z","depth":0,"parameterNumber":3,"parameterNumberName":"V-component_of_WINDS"},"data":[0.0,0.0,0.0,0.0,0.0,0.0,0.0,0.0,0.0,0.0,0.0,0.0,0.0,0.0,0.0,0.0,0.0,0.0,0.0,0.0,0.0,0.0,0.0,0.0,0.0,0.0,0.0,0.0,0.0,0.0,0.0,0.0,0.0,0.0,0.0,0.0,0.0,0.0,0.0,0.0,0.0,0.0,0.0,0.0,0.0,0.0,0.0,0.0,0.0,0.0,0.0,0.0,0.0,0.0,0.0,0.0,0.0,0.0,0.0,0.0,0.0,0.0,0.0,0.0,0.0,0.0,0.0,0.0,0.0,0.0,0.0,0.0,0.0,0.0,0.0,0.0,0.0,0.0,0.0,0.0,0.0,0.0,0.0,0.0,0.0,0.0,0.0,0.0,0.0,0.0,0.0,0.0,0.0,0.0,0.0,0.0,0.0,0.0,0.0,0.0,0.0,0.0,0.0,0.0,0.0,0.0,0.0,0.0,0.0,0.0,0.0,0.0,0.0,0.0,0.0,0.0,0.0,0.0,0.0,0.0,0.0,0.0,0.0,0.0,0.0,0.0,0.0,0.0,0.0,0.0,0.0,0.0,0.0,0.0,0.0,0.0,0.0,0.0,0.0,0.0,0.0,0.0,0.0,0.0,0.0,0.0,0.0,0.0,0.0,0.0,0.0,0.0,0.0,0.0,0.0,0.0,0.0,0.0,0.0,0.0,0.0,0.0,0.0,0.0,0.0,0.0,0.0,0.0,0.0,0.0,0.0,0.0,0.0,0.0,0.0,0.0,0.0,0.0,0.0,0.0,0.0,0.0,0.0,0.0,0.0,0.0,0.0,0.0,0.0,0.0,0.0,0.0,0.0,0.0,0.0,0.0,0.0,0.0,0.0,0.0,0.0,0.0,0.0,0.0,0.0,0.0,0.0,0.0,0.0,0.0,0.0,0.0,0.0,0.0,0.0,0.0,0.0,0.0,0.0,0.0,0.0,0.0,0.0,0.0,0.0,0.0,0.0,0.0,0.0,0.0,0.0,0.0,0.0,0.0,0.0,0.0,0.0,0.0,0.0,0.0,0.0,0.0,0.0,0.0,0.0,0.0,0.0,0.0,0.0,0.0,0.0,0.0,0.0,0.0,0.0,0.0,0.0,0.0,0.0,0.0,0.0,0.0,0.0,0.0,0.0,0.0,0.0,0.0,0.0,0.0,0.0,0.0,0.0,0.0,0.0,0.0,0.0,0.0,0.0,0.0,0.0,0.0,0.0,0.0,0.0,0.0,0.0,0.0,0.0,0.0,0.0,0.0,0.0,0.0,0.0,0.0,0.0,0.0,0.0,0.0,0.0,0.0,0.0,0.0,0.0,0.0,0.0,0.0,0.0,0.0,0.0,0.0,0.0,0.0,0.0,0.0,0.0,0.0,0.0,0.0,0.0,0.0,0.0,0.0,0.0,0.0,0.0,0.0,0.0,0.0,0.0,0.0,0.0,0.0,0.0,0.0,0.0,0.0,0.0,0.0,0.0,0.0,0.0,0.0,0.0,0.0,0.0,0.0,0.0,0.0,0.0,0.0,0.0,0.0,0.0,0.0,0.0,0.0,0.0,0.0,0.0,0.0,0.0,0.0,0.0,0.0,0.0,0.0,0.0,0.0,0.0,0.0,0.0,0.0,0.0,0.0,0.0,0.0,0.0,0.0,0.0,0.0,0.0,0.0,0.0,0.0,0.0,0.0,0.0,0.0,0.0,0.0,0.0,0.0,0.0,0.0,0.0,0.0,0.0,0.0,0.0,0.0,0.0,0.0,0.0,0.0,0.0,0.0,0.0,0.0,0.0,0.0,0.0,0.0,0.0,0.0,0.0,0.0,0.0,0.0,0.0,0.0,0.0,0.0,0.0,0.0,0.0,0.0,0.0,0.0,0.0,0.0,0.0,0.0,0.0,0.0,0.0,0.0,0.0,0.0,0.0,0.0,0.0,0.0,0.0,0.0,0.0,0.0,0.0,0.0,0.0,0.0,0.0,0.0,0.0,0.0,0.0,0.0,0.0,0.0,0.0,0.0,0.0,0.0,0.0,0.0,0.0,0.0,0.0,0.0,0.0,0.0,0.0,0.0,0.0,0.0,0.0,0.0,0.0,0.0,0.0,0.0,0.0,0.0,0.0,0.0,0.0,0.0,0.0,0.0,0.0,0.0,0.0,0.0,0.0,0.0,0.0,0.0,0.0,0.0,0.0,0.0,0.0,0.0,0.0,0.0,0.0,0.0,0.0,0.0,0.0,0.0,0.0,0.0,0.0,0.0,0.0,0.0,0.0,0.0,0.0,0.0,0.0,0.0,0.0,0.0,0.0,0.0,0.0,0.0,0.0,0.0,0.0,0.0,0.0,0.0,0.0,0.0,0.0,0.0,0.0,0.0,0.0,0.0,0.0,0.0,0.0,0.0,0.0,0.0,0.0,0.0,0.0,0.0,0.0,0.0,0.0,0.0,0.0,0.0,0.0,0.0,0.0,0.0,0.0,0.0,0.0,0.0,0.0,0.0,0.0,0.0,0.0,0.0,0.0,0.0,0.0,0.0,0.0,0.0,0.0,0.0,0.0,0.0,0.0,0.0,0.0,0.0,0.0,0.0,0.0,0.0,0.0,0.0,0.0,0.0,0.0,0.0,0.0,0.0,0.0,0.0,0.0,0.0,0.0,0.0,0.0,0.0,0.0,0.0,0.0,0.0,0.0,0.0,0.0,0.0,0.0,0.0,0.0,0.0,0.0,0.0,0.0,0.0,0.0,0.0,0.0,0.0,0.0,0.0,0.0,0.0,0.0,0.0,0.0,0.0,0.0,0.0,0.0,0.0,0.0,0.0,0.0,0.0,0.0,0.0,0.0,0.0,0.0,0.0,0.0,0.0,0.0,0.0,0.0,0.0,0.0,0.0,0.0,0.0,0.0,0.0,0.0,0.0,0.0,0.0,0.0,0.0,0.0,0.0,0.0,0.0,0.0,0.0,0.0,0.0,0.0,0.0,0.0,0.0,0.0,0.0,0.0,0.0,0.0,0.0,0.0,0.0,0.0,0.0,0.0,0.0,0.0,0.0,0.0,0.0,0.0,0.0,0.0,0.0,0.0,0.0,0.0,0.0,0.0,0.0,0.0,0.0,0.0,0.0,0.0,0.0,0.0,0.0,0.0,0.0,0.0,0.0,0.0,0.0,0.0,0.0,0.0,0.0,0.0,0.0,0.0,0.0,0.0,0.0,0.0,0.0,0.0,0.0,0.0,0.0,0.0,0.0,0.0,0.0,0.0,0.0,0.0,0.0,0.0,0.0,0.0,0.0,0.0,0.0,0.0,0.0,0.0,0.0,0.0,0.0,0.0,0.0,0.0,0.0,0.0,0.0,0.0,0.0,0.0,0.0,0.0,0.0,0.0,0.0,0.0,0.0,0.0,0.0,0.0,0.0,0.0,0.0,0.0,0.0,0.0,0.0,0.0,0.0,0.0,0.0,0.0,0.0,0.0,0.0,0.0,0.0,0.0,0.0,0.0,0.0,0.0,0.0,0.0,0.0,0.0,0.0,0.0,0.0,0.0,0.0,0.0,0.0,0.0,0.0,0.0,0.0,0.0,0.0,0.0,0.0,0.0,0.0,0.0,0.0,0.0,0.0,0.0,0.0,0.0,0.0,0.0,0.0,0.0,0.0,0.0,0.0,0.0,0.0,0.0,0.0,0.0,0.0,0.0,0.0,0.0,0.0,0.0,0.0,0.0,0.0,0.0,0.0,0.0,0.0,0.0,0.0,0.0,0.0,0.0,0.0,0.0,0.0,0.0,0.0,0.0,0.0,0.0,0.0,0.0,0.0,0.0,0.0,0.0,0.0,0.0,0.0,0.0,0.0,0.0,0.0,0.0,0.0,0.0,0.0,0.0,0.0,0.0,0.0,0.0,0.0,0.0,0.0,0.0,0.0,0.0,0.0,0.0,0.0,0.0,0.0,0.0,0.0,0.0,0.0,0.0,0.0,0.0,0.0,0.0,0.0,0.0,0.0,0.0,0.0,0.0,0.0,0.0,0.0,0.0,0.0,0.0,0.0,0.0,0.0,0.0,0.0,0.0,0.0,0.0,0.0,0.0,0.0,0.0,0.0,0.0,0.0,0.0,0.0,0.0,0.0,0.0,0.0,0.0,0.0,0.0,0.0,0.0,0.0,0.0,0.0,0.0,0.0,0.0,0.0,0.0,0.0,0.0,0.0,0.0,0.0,0.0,0.0,0.0,0.0,0.0,0.0,0.0,0.0,0.0,0.0,0.0,0.0,0.0,0.0,0.0,0.0,0.0,0.0,0.0,0.0,0.0,0.0,0.0,0.0,0.0,0.0,0.0,0.0,0.0,0.0,0.0,0.0,0.0,0.0,0.0,0.0,0.0,0.0,0.0,0.0,0.0,0.0,0.0,0.0,0.0,0.0,0.0,0.0,0.0,0.0,0.0,0.0,0.0,0.0,0.0,0.0,0.0,0.0,0.0,0.0,0.0,0.0,0.0,0.0,0.0,0.0,0.0,0.0,0.0,0.0,0.0,0.0,0.0,0.0,0.0,0.0,0.0,0.0,0.0,0.0,0.0,0.0,0.0,0.0,0.0,0.0,0.0,0.0,0.0,0.0,0.0,0.0,0.0,0.0,0.0,0.0,0.0,0.0,0.0,0.0,0.0,0.0,0.0,0.0,0.0,0.0,0.0,0.0,0.0,0.0,0.0,0.0,0.0,0.0,0.0,0.0,0.0,0.0,0.0,0.0,0.0,0.0,0.0,0.0,0.0,0.0,0.0,0.0,0.0,0.0,0.0,0.0,0.0,0.0,0.0,0.0,0.0,0.0,0.0,0.0,0.0,0.0,0.0,0.0,0.0,0.0,0.0,0.0,0.0,0.0,0.0,0.0,0.0,0.0,0.0,0.0,0.0,0.0,0.0,0.0,0.0,0.0,0.0,0.0,0.0,0.0,0.0,0.0,0.0,0.0,0.0,0.0,0.0,0.0,0.0,0.0,0.0,0.0,0.0,0.0,0.0,0.0,0.0,0.0,0.0,0.0,0.0,0.0,0.0,0.0,0.0,0.0,0.0,0.0,0.0,0.0,0.0,0.0,0.0,0.0,0.0,0.0,0.0,0.0,0.0,0.0,0.0,0.0,0.0,0.0,0.0,0.0,0.0,0.0,0.0,0.0,0.0,0.0,0.0,0.0,0.0,0.0,0.0,0.0,0.0,0.0,0.0,0.0,0.0,0.0,0.0,0.0,0.0,0.0,0.0,0.0,0.0,0.0,0.0,0.0,0.0,0.0,0.0,0.0,0.0,0.0,0.0,0.0,0.0,0.0,0.0,0.0,0.0,0.0,0.0,0.0,0.0,0.0,0.0,0.0,0.0,0.0,0.0,0.0,0.0,0.0,0.0,0.0,0.0,0.0,0.0,0.0,0.0,0.0,0.0,0.0,0.0,0.0,0.0,0.0,0.0,0.0,0.0,0.0,0.0,0.0,0.0,0.0,0.0,0.0,0.0,0.0,0.0,0.0,0.0,0.0,0.0,0.0,0.0,0.0,0.0,0.0,0.0,0.0,0.0,0.0,0.0,0.0,0.0,0.0,0.0,0.0,0.0,0.0,0.0,0.0,0.0,0.0,0.0,0.0,0.0,0.0,0.0,0.0,0.0,0.0,0.0,0.0,0.0,0.0,0.0,0.0,0.0,0.0,0.0,0.0,0.0,0.0,0.0,0.0,0.0,0.0,0.0,0.0,0.0,0.0,0.0,0.0,0.0,0.0,0.0,0.0,0.0,0.0,0.0,0.0,0.0,0.0,0.0,0.0,0.0,0.0,0.0,0.0,0.0,0.0,0.0,0.0,0.0,0.0,0.0,0.0,0.0,0.0,0.0,0.0,0.0,0.0,0.0,0.0,0.0,0.0,0.0,0.0,0.0,0.0,0.0,0.0,0.0,0.0,0.0,0.0,0.0,0.0,0.0,0.0,0.0,0.0,0.0,0.0,0.0,0.0,0.0,0.0,0.0,0.0,0.0,0.0,0.0,0.0,0.0,0.0,0.0,0.0,0.0,0.0,0.0,0.0,0.0,0.0,0.0,0.0,0.0,0.0,3.991,3.8478,0.0,0.0,0.0,0.0,0.0,0.0,0.0,0.0,0.0,0.0,0.0,0.0,0.0,0.0,0.0,0.0,0.0,0.0,0.0,0.0,0.0,0.0,0.0,5.2523,5.2789,5.2865,5.3256,5.3482,5.3478,0.0,0.0,0.0,0.0,0.0,0.0,0.0,5.1344,5.1725,5.1725,5.1552,5.1171,5.041,4.8485,4.5698,0.0,0.0,0.0,0.0,0.0,0.0,0.0,0.0,0.0,0.0,0.0,0.0,0.0,0.0,0.0,0.0,0.0,0.0,0.0,0.0,0.0,0.0,0.0,0.0,0.0,0.0,0.0,0.0,0.0,0.0,0.0,0.0,0.0,0.0,0.0,0.0,0.0,0.0,0.0,0.0,0.0,0.0,0.0,0.0,0.0,0.0,0.0,0.0,0.0,0.0,0.0,0.0,0.0,0.0,0.0,0.0,0.0,0.0,0.0,0.0,0.0,0.0,0.0,0.0,0.0,0.0,0.0,0.0,0.0,0.0,4.4064,4.2118,0.0,0.0,0.0,0.0,0.0,0.0,0.0,0.0,0.0,0.0,0.0,0.0,0.0,0.0,0.0,0.0,0.0,0.0,0.0,0.0,0.0,5.3617,5.3686,5.382,5.3953,5.407,5.4197,5.4501,5.498,5.4331,5.41,5.4603,5.3894,5.3539,5.3681,5.3681,5.3823,5.4071,5.4418,5.4693,5.495,5.4881,5.2661,4.8812,4.8439,0.0,0.0,0.0,0.0,0.0,0.0,0.0,0.0,0.0,0.0,0.0,0.0,0.0,0.0,0.0,0.0,0.0,0.0,0.0,0.0,0.0,0.0,0.0,0.0,0.0,0.0,0.0,0.0,0.0,0.0,0.0,0.0,0.0,0.0,0.0,0.0,0.0,0.0,0.0,0.0,0.0,0.0,0.0,0.0,0.0,0.0,0.0,0.0,0.0,0.0,0.0,0.0,0.0,0.0,0.0,0.0,0.0,0.0,0.0,0.0,0.0,0.0,0.0,5.2773,5.3213,5.3653,5.3721,5.3619,5.3247,4.9557,4.7368,4.6343,4.4826,0.0,0.0,0.0,0.0,0.0,0.0,0.0,0.0,0.0,0.0,0.0,0.0,0.0,0.0,0.0,0.0,0.0,0.0,0.0,5.5295,5.5302,5.5902,5.6333,5.6374,5.6995,5.7158,5.6629,5.5898,5.5209,5.4638,5.3894,5.3787,5.4434,5.4434,5.5107,5.6454,5.7988,5.9396,6.0772,6.0083,5.8716,5.6586,5.1824,4.9262,4.8328,0.0,0.0,0.0,0.0,0.0,0.0,0.0,0.0,0.0,0.0,0.0,0.0,0.0,0.0,0.0,0.0,0.0,0.0,0.0,0.0,0.0,0.0,0.0,0.0,0.0,0.0,0.0,0.0,0.0,0.0,0.0,0.0,0.0,0.0,0.0,0.0,0.0,0.0,0.0,0.0,0.0,4.8048,4.821,0.0,0.0,0.0,0.0,0.0,0.0,0.0,0.0,0.0,0.0,0.0,0.0,0.0,5.5243,5.5784,5.778,5.8186,5.7036,5.9032,5.9641,5.9066,5.9066,5.8727,5.8048,5.7502,0.0,5.0281,4.8095,0.0,0.0,0.0,0.0,0.0,0.0,0.0,0.0,0.0,0.0,0.0,0.0,0.0,0.0,0.0,0.0,0.0,0.0,0.0,0.0,0.0,5.8548,6.0024,6.0002,6.2748,6.3211,6.0259,6.0186,5.9171,5.6609,5.6186,5.6186,5.6486,5.7416,5.9082,6.1616,6.3736,6.4916,6.517,6.48,6.3543,6.1494,5.8552,5.4894,5.084,5.0105,0.0,0.0,0.0,0.0,0.0,0.0,0.0,0.0,0.0,0.0,0.0,0.0,0.0,0.0,0.0,0.0,0.0,0.0,0.0,0.0,0.0,0.0,0.0,0.0,0.0,0.0,0.0,0.0,0.0,0.0,0.0,0.0,0.0,0.0,0.0,0.0,0.0,0.0,0.0,4.8173,4.9932,4.912,4.9729,4.9458,0.0,0.0,0.0,0.0,0.0,0.0,0.0,0.0,0.0,5.7611,5.8863,5.981,6.0588,6.1941,6.2516,6.2279,6.3294,6.3599,6.3226,6.3226,6.2854,6.2144,6.1738,6.0013,5.7169,5.3245,5.0688,4.9027,0.0,0.0,0.0,0.0,4.4302,4.4753,0.0,0.0,0.0,0.0,0.0,0.0,0.0,0.0,0.0,0.0,0.0,0.0,5.8474,6.1848,6.4128,6.4295,6.7482,6.7843,6.3883,6.3551,6.206,5.8954,5.8272,5.8107,5.829,6.0529,6.3356,6.6843,6.8862,6.9743,6.9559,6.9333,6.8182,6.6256,6.5218,6.0946,5.4482,5.379,5.1475,4.8212,0.0,0.0,0.0,0.0,0.0,0.0,0.0,0.0,0.0,0.0,0.0,0.0,0.0,0.0,0.0,0.0,0.0,0.0,0.0,0.0,0.0,0.0,0.0,0.0,0.0,0.0,0.0,0.0,0.0,0.0,0.0,0.0,0.0,0.0,0.0,0.0,0.0,5.0574,5.2232,5.0371,5.2495,5.2825,0.0,0.0,0.0,0.0,0.0,0.0,5.8253,5.8996,6.0182,6.2042,6.3396,6.4478,6.5222,6.5764,6.6203,6.6576,6.6576,6.644,6.6237,6.6237,6.5764,6.485,6.4309,6.3531,6.2313,5.7645,5.4634,5.2673,5.0459,4.8893,4.7864,4.7637,4.7671,4.8062,0.0,0.0,0.0,0.0,0.0,0.0,0.0,0.0,0.0,0.0,0.0,6.157,6.3259,6.6174,6.83,6.9075,6.9379,6.8716,6.6881,6.4131,6.2097,6.1065,5.9073,5.8364,5.9111,6.3,6.7026,7.0999,7.1908,7.3083,7.4515,7.3751,7.2944,7.1998,7.0421,6.6172,6.0042,5.7594,5.5212,5.2869,5.0642,0.0,0.0,0.0,0.0,0.0,0.0,0.0,0.0,0.0,0.0,0.0,0.0,0.0,0.0,0.0,0.0,0.0,0.0,0.0,0.0,0.0,0.0,0.0,0.0,0.0,0.0,0.0,0.0,0.0,0.0,0.0,0.0,0.0,0.0,0.0,0.0,0.0,0.0,5.3619,5.8497,0.0,0.0,0.0,0.0,5.8855,5.8998,5.9909,6.2029,6.2826,6.4546,6.7421,6.8335,6.9113,6.9857,6.9891,6.9586,6.8944,6.8944,6.8538,6.7793,6.7793,6.6981,6.5628,6.5595,6.4783,6.3226,6.008,5.8321,5.734,5.5107,5.4228,5.4059,5.3349,5.3551,5.3957,0.0,0.0,0.0,5.3203,5.3885,5.4583,5.5097,5.6088,5.7103,5.7937,6.0853,6.3651,6.5629,7.0972,7.454,7.4807,7.7141,7.6794,7.2617,6.9001,6.6244,6.4492,6.1777,6.2374,6.676,6.9668,7.2885,7.6443,7.7382,7.784,7.784,7.7172,7.613,7.4771,7.367,7.1354,6.8008,6.3951,5.9969,5.6231,5.4459,5.186,0.0,0.0,0.0,0.0,0.0,0.0,0.0,0.0,0.0,0.0,0.0,0.0,0.0,0.0,0.0,0.0,0.0,0.0,0.0,0.0,0.0,0.0,0.0,0.0,0.0,0.0,0.0,0.0,0.0,0.0,0.0,0.0,0.0,0.0,0.0,0.0,0.0,6.0569,6.3645,0.0,6.1707,6.1761,6.2659,6.4381,6.4738,6.6087,6.8829,6.8676,6.9214,7.0737,7.0601,7.0635,7.0906,7.0906,7.077,7.0534,7.0534,7.0128,6.935,6.8876,6.8098,6.7049,6.6102,6.5121,6.4106,6.255,6.0892,5.9133,5.7408,5.6427,5.5919,5.5209,5.5108,5.5243,0.0,5.3203,0.0,5.3203,5.3885,5.4656,5.5464,5.6271,5.756,5.9698,6.3334,6.6987,7.0289,7.6362,8.0302,8.057,8.2441,8.1551,7.67,7.2483,6.9152,6.6817,6.4843,6.6597,7.2491,7.4906,7.7423,8.0121,8.1069,8.0949,7.9826,7.9212,7.8168,7.681,7.6066,7.4992,7.3487,7.0036,6.5558,6.0725,5.8932,5.6746,5.4202,0.0,0.0,0.0,0.0,0.0,0.0,0.0,0.0,0.0,0.0,0.0,0.0,0.0,0.0,0.0,0.0,0.0,0.0,0.0,0.0,0.0,0.0,0.0,0.0,0.0,0.0,0.0,0.0,0.0,0.0,0.0,0.0,0.0,0.0,6.1506,6.5087,6.4745,6.8049,6.943,6.7043,6.7433,6.8491,6.9991,7.0043,7.0836,7.2768,7.2348,7.2259,7.2766,7.2056,7.1684,7.1684,7.1447,7.1312,7.1312,7.1312,7.077,6.9789,6.9316,6.8538,6.7489,6.6508,6.5493,6.4546,6.4072,6.255,6.0385,5.9133,5.8186,5.7476,5.6731,5.6461,5.6393,5.3209,5.3209,5.323,5.323,5.3891,5.4699,5.5508,5.6316,5.8201,6.2002,6.6648,7.1693,7.7258,8.2143,8.5286,8.6094,8.4632,8.2208,7.8784,7.4172,7.0424,6.7932,6.8278,7.0833,7.575,7.8306,8.0364,8.192,8.2713,8.2274,8.0603,7.9926,7.9145,7.8346,7.7688,7.6925,7.6146,7.5345,7.1855,6.6665,6.4016,6.2475,6.1215,0.0,0.0,0.0,0.0,0.0,0.0,0.0,0.0,0.0,0.0,0.0,0.0,0.0,0.0,0.0,0.0,0.0,0.0,0.0,0.0,0.0,0.0,0.0,0.0,0.0,0.0,0.0,0.0,0.0,0.0,0.0,0.0,0.0,6.0058,6.4401,6.7247,6.6053,7.1809,7.4805,7.2065,7.4196,7.5657,7.5511,7.4467,7.3782,7.3637,7.351,7.351,7.351,7.2766,7.2394,7.2394,7.1684,7.1312,7.1312,7.1312,7.0534,6.9147,6.9113,6.8267,6.6846,6.6812,6.5967,6.4613,6.4613,6.3294,6.1197,6.0419,5.9641,5.893,5.8152,5.7881,5.7645,5.3571,5.3403,5.3409,5.4043,5.4813,5.551,5.5946,5.7003,5.9009,6.2542,6.7614,7.3076,7.865,8.3737,8.7055,8.7902,8.6401,8.3978,8.0592,7.5398,7.1911,7.0763,7.4163,7.7817,8.1626,8.3372,8.5091,8.6776,8.5883,8.4931,8.3866,8.1986,8.0692,7.9865,7.9029,7.8554,7.8329,7.8104,7.7117,7.5194,6.9499,6.6035,6.3954,0.0,0.0,0.0,0.0,0.0,0.0,0.0,0.0,0.0,0.0,0.0,0.0,0.0,0.0,0.0,0.0,0.0,0.0,0.0,0.0,0.0,0.0,0.0,0.0,0.0,0.0,0.0,0.0,0.0,0.0,0.0,6.3148,6.6627,6.5698,6.9261,7.2735,7.4759,7.6456,7.7593,7.7987,7.733,7.7083,7.7553,7.6072,7.5429,7.5912,7.439,7.3747,7.4289,7.2563,7.1853,7.2394,7.1684,7.1312,7.1312,7.1312,7.0804,6.9857,6.935,6.8538,6.7557,6.7049,6.5967,6.4613,6.4613,6.2956,6.0419,6.0182,5.9641,5.893,5.8152,5.7543,5.6968,5.2714,5.269,5.2944,5.3789,5.4355,5.4974,5.5862,5.692,5.9156,6.3462,6.871,7.4298,8.0215,8.4439,8.7209,8.8055,8.5901,8.3093,7.9746,7.5794,7.438,7.6197,7.9604,8.306,8.6393,8.7627,8.8556,8.921,8.8327,8.7064,8.5532,8.3561,8.1989,8.0851,7.9713,7.9198,7.9198,7.9198,7.9198,7.885,7.4823,7.2032,6.9832,6.6092,6.431,6.3466,6.1043,6.0309,6.0089,5.7189,0.0,0.0,0.0,0.0,0.0,0.0,0.0,0.0,0.0,0.0,0.0,0.0,0.0,0.0,0.0,0.0,0.0,0.0,0.0,0.0,0.0,0.0,0.0,0.0,6.7936,7.15,7.1732,7.4086,7.6827,7.9764,8.0226,8.062,8.1416,8.0416,7.9655,7.96,7.8223,7.743,7.7567,7.6302,7.5423,7.5067,7.4062,7.3499,7.3488,7.2871,7.2575,7.2575,7.2575,7.1988,7.0953,7.0085,6.9337,6.8606,6.7404,6.645,6.5707,6.5397,6.3844,6.1599,0.0,0.0,0.0,0.0,5.6968,5.6258,5.1264,5.1549,5.2039,5.2906,5.3104,5.3685,5.5298,5.6247,5.8764,6.4466,6.9409,7.4867,8.1177,8.4055,8.594,8.6901,8.4016,8.09,7.79,7.6361,7.7707,8.2516,8.4593,8.7017,8.9979,9.0902,9.0941,9.0056,8.994,8.8709,8.6346,8.4843,8.3256,8.1576,8.0173,7.9478,7.9403,7.9403,7.9403,7.9403,7.9335,7.8449,7.6637,7.1685,7.0126,7.0273,6.7952,6.6243,6.4756,6.2217,0.0,0.0,0.0,0.0,0.0,0.0,0.0,0.0,0.0,0.0,0.0,0.0,0.0,0.0,0.0,0.0,0.0,0.0,0.0,0.0,0.0,0.0,0.0,0.0,7.2679,7.5909,7.7604,7.8662,7.9984,8.1966,8.2858,8.3255,8.3078,8.3074,8.2652,8.165,8.0605,7.9753,7.9102,7.8805,0.0,0.0,0.0,7.6137,7.5177,7.4585,7.4272,7.4272,7.4272,7.3567,7.2078,7.1175,7.0412,6.9743,6.7955,6.719,6.7265,6.6418,6.5178,6.3524,6.118,5.9324,5.7961,5.7179,5.6396,5.5615,5.1131,5.1185,5.1254,5.21,5.2513,5.3166,5.4532,5.5396,5.817,6.4375,6.8172,7.2558,7.8592,8.0939,8.267,8.4209,8.2477,8.1054,8.04,8.0669,8.2208,8.5247,8.8325,9.0287,9.0941,9.1787,9.1825,9.0941,9.0248,8.9325,8.8171,8.6471,8.4784,8.3132,8.2148,8.1346,8.0733,8.0733,8.0733,8.0698,8.0144,7.9085,7.7641,7.5929,7.4553,7.3334,7.1573,7.1237,7.1132,6.8068,6.7025,6.6476,6.3246,6.0309,0.0,0.0,0.0,0.0,0.0,0.0,0.0,0.0,0.0,0.0,0.0,0.0,0.0,0.0,0.0,0.0,0.0,0.0,0.0,7.1248,7.5212,7.8662,8.0938,8.2517,8.3141,8.2296,8.2643,8.3227,8.3835,8.3629,8.3413,8.3161,8.239,8.1917,8.174,8.0617,7.9752,7.936,7.762,7.6572,7.6296,7.4974,7.4272,7.4272,7.4272,0.0,7.2931,7.2107,7.1367,7.0593,6.8929,6.787,6.7265,6.6418,6.486,6.284,6.1741,6.0311,5.8771,5.8047,5.6885,5.5615,4.8088,4.9276,5.0424,5.1246,5.1557,5.2068,5.3074,5.4292,5.6706,6.1147,6.4518,6.8247,7.2885,7.4391,7.5731,7.7396,7.7001,7.7361,7.9092,8.1554,8.467,8.8479,9.1518,9.3095,9.3095,9.3518,9.3133,9.1864,9.1402,9.0325,8.8671,8.6901,8.5209,8.3516,8.2285,8.1477,8.1093,8.1093,8.1093,8.1077,8.0733,8.0159,7.9438,7.8409,7.7508,7.6699,7.589,7.5653,7.5266,7.2545,7.1417,7.0587,6.7489,6.5081,6.2732,0.0,0.0,0.0,0.0,0.0,0.0,0.0,0.0,0.0,0.0,0.0,0.0,0.0,0.0,6.3466,6.5485,0.0,7.1762,7.5028,7.8295,8.0975,8.259,8.4205,8.4903,8.4095,8.4564,8.49,8.4703,8.5062,8.5045,8.4492,8.4134,8.3741,8.3387,8.2242,8.118,8.0228,7.8921,7.7991,7.7408,7.6336,7.5789,7.5789,7.5789,7.5209,7.4018,7.3146,7.2391,7.16,6.9956,6.902,6.8569,6.6951,6.54,6.3914,6.3148,6.1557,5.9663,5.8924,5.7904,5.6789,4.4937,4.6837,4.876,4.9562,4.9926,5.0381,5.1318,5.2677,5.4641,5.7645,6.0568,6.3628,6.6976,6.7663,6.8586,7.0348,7.1781,7.411,7.7784,8.1977,8.6478,9.1248,9.3557,9.4672,9.4518,9.4518,9.3749,9.2249,9.2095,9.0864,8.8671,8.7094,8.5363,8.3516,8.217,8.14,8.1093,8.1093,8.1093,8.1093,8.1093,8.093,8.0553,7.9519,7.9296,7.9535,7.9425,7.8557,7.7304,7.5807,7.4597,7.3292,7.1172,6.9841,6.811,6.3358,6.3002,0.0,0.0,0.0,0.0,0.0,0.0,0.0,0.0,5.9758,6.108,6.3649,6.5888,6.8238,7.0991,7.334,7.5836,7.8809,8.1195,8.2957,8.3765,8.5123,8.604,8.604,8.6628,8.6643,8.5731,8.6464,8.6643,8.5731,8.5619,8.5366,8.4787,8.3917,8.2641,8.0866,8.0283,7.9479,7.8269,7.7623,7.7273,7.7273,7.7273,7.654,7.5109,7.417,7.3395,7.265,7.0756,6.9828,6.9449,6.7357,6.6035,6.5228,6.442,6.2676,6.0528,5.9627,5.8804,5.7954,4.4289,4.4571,4.5022,4.5787,4.675,4.7899,4.9287,4.9985,5.1982,5.6549,5.8164,6.0148,6.3495,6.3926,6.4782,6.6857,7.127,7.5836,8.0385,8.4632,8.8594,9.221,9.3287,9.3518,9.2787,9.2787,9.2326,9.1364,9.0556,8.9671,8.8671,8.7709,8.594,8.3593,8.3401,8.2477,8.1093,8.1093,8.1093,8.1093,8.1093,8.0344,7.9132,7.8981,7.9777,8.0822,8.0201,7.8204,7.6082,7.7452,7.6398,7.4758,7.5835,7.5139,7.3117,6.8921,6.5964,6.3282,5.9515,5.8854,5.9808,6.2365,6.2585,6.3833,0.0,7.0146,6.9633,7.2789,7.4221,7.5212,7.6283,7.7928,7.969,8.1489,8.3214,8.4609,8.5416,8.6297,8.6885,8.6885,8.6958,8.6925,8.6819,8.6925,8.6925,8.6819,8.6784,8.6748,8.6674,8.594,8.4735,8.3096,8.1648,8.0103,7.8542,7.7719,7.7273,7.7273,7.7273,7.6827,7.5946,7.5122,7.4315,7.345,7.1089,6.9256,6.7871,6.6916,6.6035,6.5228,6.442,6.3023,6.1295,5.9852,5.8801,5.7883,4.2298,4.266,4.2963,4.2916,4.4624,4.6203,4.6845,4.7874,4.9492,5.1962,5.3014,5.4375,5.661,5.7434,5.8473,6.0064,6.6052,7.18,7.664,8.3034,8.794,9.0864,9.2749,9.3095,9.1787,9.271,9.2287,9.0441,9.0594,8.9748,8.7902,8.6555,8.5093,8.3555,8.2593,8.1747,8.1093,8.1093,8.0871,8.0499,8.0499,7.9648,7.831,7.7838,7.7186,7.6522,7.6746,7.5346,0.0,7.3912,7.3392,7.2758,7.4023,7.3332,7.1484,6.8849,6.751,6.6476,6.464,6.3466,6.3209,6.5044,6.6292,6.7834,7.0917,7.1541,7.2275,7.5028,7.6644,7.7928,7.925,8.0424,8.1709,8.3324,8.4535,8.5563,8.6407,8.6811,8.6664,8.571,8.6004,8.6481,8.6958,8.6995,8.6995,8.6995,8.6995,8.6811,8.6334,8.5527,8.4352,8.2737,8.1122,7.9727,7.8589,7.7745,7.7273,7.7273,7.7273,7.6613,7.5395,7.5065,7.3964,7.2239,7.0734,6.9449,6.8274,6.6512,6.5595,6.5191,6.387,6.2915,6.2132,6.1039,5.9848,5.8658,4.0696,4.1144,4.1386,4.0942,4.2714,4.4319,4.4695,4.5764,4.6894,4.8079,4.8766,4.9648,5.1143,5.2017,5.3066,5.4473,6.0698,6.6771,7.2046,7.9574,8.5134,8.815,9.0426,9.1133,9.0171,9.1325,9.1171,8.9556,8.971,8.8863,8.7017,8.5324,8.4093,8.317,8.1977,8.1323,8.1093,8.0888,8.0517,8.0067,7.9662,7.8528,7.6954,7.566,7.347,7.1216,7.2874,7.1869,6.9754,6.9737,6.9432,6.9266,7.066,7.0438,6.9405,6.803,6.7432,6.7136,6.6806,6.6182,6.5999,6.7467,6.9633,7.1468,7.1688,7.301,7.4735,7.6717,7.8259,7.969,8.1085,8.2186,8.3324,8.4719,8.5783,8.6664,8.7252,8.6958,8.6151,8.4756,8.4719,8.5123,8.593,8.6407,8.6775,8.6995,8.6995,8.6664,8.582,8.5049,8.3765,8.1929,8.0498,7.9286,7.8259,7.7604,7.7273,7.7273,7.7273,7.643,7.4882,7.4221,7.2826,7.0917,7.011,6.9302,6.8421,6.6439,6.5521,6.5154,6.3723,6.2879,6.2365,6.1557,6.0529,5.9478,4.0138,4.0138,4.0172,4.0146,4.0781,4.1784,4.3148,4.3409,4.4209,4.6307,4.659,4.7216,4.8826,4.9028,4.9813,5.1658,5.6499,6.1964,6.7996,7.4446,7.9875,8.402,8.558,8.6709,8.7517,8.7555,8.7979,8.8748,8.7055,8.6209,8.6094,8.4401,8.317,8.2324,8.2285,8.1823,8.1061,8.0427,8.0125,7.999,7.8598,7.6747,7.4511,7.2098,6.8816,6.6033,6.9755,6.8062,6.4299,6.6049,6.5483,6.4422,6.6822,6.8068,6.8493,6.7658,6.5308,6.3172,6.398,6.5301,6.721,7.0367,7.2973,7.4955,7.5726,7.7194,7.8662,7.9507,8.0351,8.1195,8.2003,8.3471,8.4792,8.5637,8.7105,8.8133,8.8169,8.6811,8.5527,8.4682,8.3251,8.2627,8.3434,8.4903,8.6151,8.6958,8.6995,8.6664,8.582,8.5049,8.3508,8.1122,8.0241,7.8993,7.7347,7.731,7.7273,7.7273,7.7273,7.643,7.4845,7.2496,7.0954,7.0073,6.9302,6.8495,6.765,6.6806,6.5999,6.5228,6.4383,6.3062,6.152,6.075,6.0419,6.0126,3.8585,3.9391,3.9941,3.9415,4.0352,4.118,4.1187,4.2031,4.3065,4.4294,4.5259,0.0,0.0,0.0,0.0,0.0,5.3226,5.7573,6.2771,6.9037,7.3855,7.6775,8.1013,8.3164,8.2897,8.4513,8.5176,8.491,8.4339,8.3747,8.3177,8.2074,8.1368,8.1064,8.0494,8.0093,7.9827,7.9578,7.9267,7.8752,7.7242,7.5563,7.3702,7.0739,6.7115,6.3601,0.0,6.1777,6.0055,6.0662,6.0461,6.0262,6.2147,6.2221,6.1519,6.1223,6.2363,6.3943,6.5301,6.8054,7.1138,7.3817,7.5946,7.7561,7.8369,7.9396,8.0131,7.9837,7.958,7.9507,7.9764,8.0681,8.1856,8.3177,8.5673,8.7399,8.7399,8.7876,8.6921,8.3434,8.3471,8.3287,8.1966,8.3251,8.4756,8.6114,8.6187,8.5857,8.5049,8.4756,8.3251,8.0277,7.991,7.8993,7.731,7.7273,7.7273,7.7273,7.6209,7.5402,7.4845,7.2393,7.0881,7.0073,6.9265,6.8128,6.6843,6.6035,6.5228,6.442,6.3576,6.2585,6.1484,6.0713,6.0052,5.9465,0.0,3.9223,4.0018,3.9704,4.0528,0.0,0.0,0.0,0.0,0.0,0.0,0.0,0.0,0.0,0.0,0.0,0.0,5.2522,5.6957,6.2298,6.6565,6.9459,7.362,7.5854,7.5906,7.7184,7.8144,7.8714,7.8714,7.8836,7.9063,7.855,7.8323,7.8323,7.8036,7.79,7.79,7.7669,7.718,7.6372,7.4238,7.2492,7.077,6.754,6.431,0.0,5.8804,5.7409,5.6638,5.6051,5.6051,5.6528,5.785,5.8327,5.8547,5.9134,6.1557,6.4751,6.7834,7.0734,7.3634,7.668,7.8222,7.914,7.9653,8.0204,8.0424,7.991,7.8662,7.7708,7.7708,7.7892,7.8662,8.0608,8.3141,8.538,8.6811,8.7178,8.6334,8.3801,8.3618,8.3251,8.2003,8.2553,8.3654,8.5233,8.5637,8.5306,8.4242,8.3911,8.2517,7.9874,7.9507,7.8699,7.731,7.7273,7.7273,7.7273,7.5659,7.4918,7.4808,7.2092,7.0587,7.0036,6.8935,6.7724,6.6439,6.5632,6.4824,6.4016,6.3135,6.2328,6.1484,6.0713,5.9905,5.9074,0.0,0.0,4.0292,0.0,0.0,0.0,0.0,0.0,0.0,0.0,0.0,0.0,0.0,0.0,0.0,0.0,0.0,0.0,5.0819,5.447,5.8249,6.2122,6.3775,6.531,6.6902,6.6345,6.7523,7.0526,7.0615,7.1757,7.3862,7.3932,7.3948,7.3986,7.4755,7.5095,7.5095,7.4437,7.3738,7.2782,6.9821,6.7724,6.5962,6.2768,6.0529,5.8817,5.6492,5.5097,5.4179,5.2637,5.2747,5.3665,5.4509,5.6969,5.9808,6.1374,6.3135,6.5742,7.1101,7.3303,7.4992,7.8883,7.9837,7.9837,7.9837,7.98,7.9727,7.9507,7.7561,7.5799,7.5579,7.5102,7.5542,7.8002,8.0021,8.2627,8.6518,8.5196,8.4352,8.571,8.3875,8.2774,8.3471,8.2847,8.303,8.4535,8.5306,8.5049,8.3508,8.27,8.1489,7.9764,7.8993,7.8185,7.731,7.7237,7.7237,7.72,7.5616,7.4845,7.4735,7.1541,7.011,7.0,6.8385,6.721,6.6366,6.5632,6.4787,6.3943,6.3135,6.2328,6.1484,6.0713,5.9905,5.9074,0.0,0.0,0.0,0.0,0.0,0.0,0.0,0.0,0.0,0.0,0.0,0.0,0.0,0.0,0.0,0.0,0.0,0.0,4.5947,4.8633,5.1321,5.3933,5.7199,5.9382,6.0301,6.2031,6.3357,6.4147,6.5393,6.6337,6.6881,6.744,6.7694,6.7694,6.7912,6.832,6.8816,6.8629,6.8458,6.8088,6.6114,6.4677,6.3539,6.1484,5.9722,5.8143,5.6932,5.5574,5.4326,5.3922,5.5537,5.79,5.9318,6.1594,6.3943,6.4934,6.8091,7.1578,7.301,7.6203,7.9396,8.0424,8.0681,8.0681,8.0681,8.0241,7.8919,7.5873,7.3817,7.1615,6.8605,7.0367,7.2981,7.5469,8.0755,8.5343,8.7582,8.8904,8.8904,8.6921,8.6664,8.6261,8.527,8.4976,8.5049,8.5453,8.5123,8.4462,8.3471,8.3214,8.1819,7.8993,7.8699,7.8185,7.731,7.6717,7.6423,7.6387,7.4771,7.4001,7.3927,7.1284,7.011,7.0,6.8385,6.688,6.5595,6.5375,6.4457,6.3135,6.289,6.2328,6.1484,6.0713,5.9905,5.9074,0.0,0.0,0.0,0.0,0.0,0.0,0.0,0.0,0.0,0.0,0.0,0.0,0.0,0.0,0.0,0.0,0.0,0.0,0.0,4.4334,4.6061,4.7932,5.0159,5.1631,5.2335,5.3788,5.5206,5.6678,5.8247,5.9765,6.1158,6.1941,6.2266,6.2302,6.2688,6.3076,6.3471,6.3471,6.3414,0.0,0.0,6.0676,6.0089,5.9171,5.8253,5.7409,5.6969,5.6895,5.7152,5.785,5.9061,6.0713,6.3429,6.5228,6.6806,6.9009,7.1578,7.4074,7.5873,7.8626,8.1085,8.1452,8.1269,8.0608,7.9176,7.7928,7.6056,7.2349,6.9743,6.7467,6.5191,6.721,7.011,7.2899,7.8552,8.3801,8.7215,8.883,8.9417,8.8683,8.8683,8.839,8.7472,8.7068,8.6848,8.6848,8.5453,8.4095,8.2957,8.2186,8.0828,7.8662,7.8222,7.7818,7.7273,7.6864,7.646,7.6093,7.4845,7.4037,7.3634,7.1578,7.044,7.0036,6.8752,6.732,6.5815,6.5448,6.453,6.3319,6.2952,6.2108,6.1006,6.0566,5.9685,5.8621,0.0,0.0,0.0,0.0,0.0,0.0,0.0,0.0,0.0,0.0,4.2252,4.2895,4.3612,4.3713,0.0,0.0,0.0,0.0,0.0,0.0,4.2357,4.3665,4.3697,4.4015,4.4785,4.4851,4.6353,4.9289,5.0805,5.3087,5.6056,5.6834,5.7258,5.74,5.8166,5.8544,5.8633,5.8633,5.8573,5.8356,5.6923,5.6297,5.6195,0.0,5.6387,5.6528,5.6712,5.829,6.0566,6.2732,6.3209,6.3576,6.754,6.9045,7.0,7.3744,7.4882,7.5763,7.9286,8.0865,8.1636,8.2223,8.1672,8.0131,7.6717,7.4698,7.2496,6.8862,6.5888,6.3796,6.3356,6.4861,6.7357,7.0881,7.5469,8.0645,8.6518,8.7325,8.8169,9.0482,9.0152,8.9748,8.9748,8.8904,8.8316,8.8206,8.5967,8.3911,8.2296,8.0755,7.947,7.8479,7.7708,7.7273,7.7273,7.7163,7.6754,7.5946,7.5139,7.4331,7.3487,7.1872,7.077,7.0036,6.9155,6.7907,6.6439,6.5742,6.4934,6.4016,6.3282,6.1998,6.0566,6.0566,5.9538,5.8143,0.0,0.0,0.0,0.0,0.0,0.0,0.0,0.0,0.0,0.0,4.4485,4.4451,0.0,0.0,0.0,0.0,0.0,0.0,0.0,0.0,0.0,4.1067,4.1067,4.1371,4.2038,4.285,4.3867,4.5144,4.6782,4.8545,5.0423,5.1176,5.1859,5.2443,5.2611,5.3053,5.3648,5.3648,5.3598,5.3513,5.3238,5.3017,5.3,5.3639,0.0,0.0,5.6345,5.79,6.0175,6.5154,6.8091,7.022,7.3597,7.6056,7.8075,8.0131,8.1195,8.1893,8.259,8.3361,8.3838,8.3324,8.2113,7.9984,7.6019,7.3854,7.1027,6.5081,6.3404,6.2218,5.9538,6.2034,6.6219,7.1431,7.5836,8.1048,8.8023,8.9014,8.9638,9.1363,9.1473,9.1363,9.1363,9.0078,8.894,8.8243,8.5967,8.3911,8.2296,8.1305,7.98,7.7567,7.7384,7.7273,7.7273,7.6644,7.5909,7.5102,7.4294,7.3487,7.2642,7.1027,7.022,7.0,6.8531,6.7357,6.6476,6.6366,6.5411,6.409,6.3906,6.2842,6.1374,6.1374,6.0382,5.8964,0.0,0.0,0.0,0.0,0.0,0.0,0.0,4.2997,4.4418,4.709,4.7767,4.7733,4.6955,4.6515,4.5782,0.0,0.0,0.0,0.0,0.0,0.0,4.0553,4.0553,4.0485,4.0367,4.1116,4.2145,4.3409,0.0,4.6717,4.8289,4.9135,4.9729,5.0067,5.0067,5.0252,5.0647,5.0647,5.0818,5.1087,5.1087,5.1273,5.1761,0.0,0.0,0.0,5.7152,5.8731,6.0933,6.409,6.7907,7.2092,7.6607,7.8552,7.9653,8.2113,8.3104,8.3508,8.3911,8.4609,8.4939,8.3728,8.1893,7.8993,7.3634,7.0844,6.765,6.1557,6.0309,5.9832,5.829,6.097,6.4751,6.8715,7.312,7.8295,8.4756,8.6371,8.7986,9.0849,9.1179,9.1179,9.1179,9.0482,8.9344,8.7692,8.6114,8.4352,8.2296,8.0645,7.9213,7.8002,7.7561,7.7273,7.7273,7.6937,7.6313,7.5506,7.4698,7.3891,7.3083,7.1468,7.0513,7.0036,6.8825,6.7871,6.71,6.6659,6.5815,6.4677,6.4237,6.3062,6.1594,6.1594,6.086,5.9808,0.0,0.0,0.0,0.0,0.0,0.0,4.3274,4.4316,4.594,4.9052,5.0507,5.0608,4.9021,4.8037,4.6918,0.0,0.0,0.0,0.0,0.0,0.0,0.0,0.0,0.0,3.9619,0.0,0.0,4.2988,4.4481,0.0,0.0,0.0,0.0,0.0,4.9187,4.9154,4.9018,4.9018,4.9316,0.0,0.0,5.0474,5.1379,0.0,0.0,0.0,0.0,5.8951,6.0786,6.2291,6.5642,7.0183,7.5726,7.8112,7.936,8.1893,8.3251,8.4095,8.4903,8.571,8.593,8.4315,8.1966,7.8295,7.1615,6.8238,6.4861,5.9171,5.7997,5.7997,5.7997,6.0199,6.3025,6.5999,6.9816,7.4588,8.0791,8.3067,8.5527,8.9381,9.0152,9.0335,9.0335,9.0188,8.916,8.6921,8.5673,8.4132,8.2039,7.98,7.8589,7.8589,7.7781,7.7273,7.7273,7.7273,7.69,7.6093,7.5285,7.4478,7.3634,7.1872,7.0697,7.0036,6.9082,6.8274,6.7614,6.6843,6.6035,6.5228,6.442,6.3062,6.163,6.1777,6.1227,6.0419,0.0,0.0,0.0,0.0,0.0,0.0,4.3928,4.5128,4.6921,5.0541,5.115,5.1386,5.186,5.0642,4.9461,0.0,0.0,0.0,0.0,0.0,0.0,0.0,0.0,0.0,0.0,0.0,0.0,4.3623,4.47,0.0,0.0,0.0,0.0,0.0,0.0,4.9627,4.9018,4.9018,0.0,0.0,0.0,0.0,0.0,0.0,0.0,0.0,0.0,5.7042,5.7813,6.1533,6.2658,6.3356,6.8348,7.4404,7.9727,8.0021,8.27,8.5747,8.6554,8.7362,8.7582,8.5967,8.3214,7.8993,7.1762,6.8238,6.4861,5.9171,5.7997,5.7997,5.7997,5.8841,6.108,6.5742,6.7467,7.1019,7.8883,8.1415,8.3654,8.6958,8.8647,8.9492,8.9492,8.8867,8.7729,8.604,8.3801,8.2113,8.1158,7.9507,7.8589,7.8589,7.7781,7.7273,7.7273,7.7273,7.69,7.6093,7.5285,7.4478,7.3597,7.1284,7.0183,7.0,6.8458,6.776,6.7614,6.6843,6.6035,6.5228,6.442,6.3062,6.1704,6.2438,6.1741,6.0493,0.0,0.0,0.0,0.0,0.0,0.0,4.396,4.4803,4.6684,5.1251,5.186,5.2334,5.3551,5.2773,5.1285,4.9187,4.7295,0.0,0.0,0.0,0.0,0.0,0.0,0.0,0.0,0.0,4.2475,4.3455,4.5488,0.0,0.0,0.0,0.0,0.0,0.0,4.9695,4.9018,4.9018,0.0,0.0,0.0,0.0,0.0,0.0,0.0,0.0,0.0,0.0,5.6576,5.9053,6.0676,6.1777,6.2768,6.71,7.2569,7.6423,8.0094,8.3287,8.5086,8.6848,8.7692,8.56,8.1893,7.7268,7.1431,6.7063,6.3099,5.8877,5.7997,5.7997,5.7997,5.8253,5.9428,6.2365,6.3503,6.6182,7.2349,7.4625,7.7745,8.3434,8.5123,8.6554,8.85,8.839,8.7325,8.5233,8.3287,8.1856,8.1048,7.991,7.9103,7.8626,7.7781,7.7273,7.7273,7.7273,7.69,7.6093,7.5285,7.4478,7.3597,7.1211,7.011,7.0,6.8385,6.7687,6.7677,6.7357,6.6476,6.5264,6.4971,6.3796,6.2365,6.2695,6.2377,6.1887,0.0,0.0,0.0,0.0,0.0,3.9548,4.3548,4.4386,4.6376,5.132,5.1961,5.2638,5.4397,5.3518,5.2164,5.0473,4.8578,0.0,0.0,0.0,0.0,0.0,0.0,0.0,0.0,0.0,4.368,4.4306,4.6403,4.7866,0.0,0.0,5.1058,5.0439,0.0,0.0,0.0,0.0,0.0,0.0,0.0,0.0,0.0,0.0,0.0,0.0,0.0,0.0,0.0,0.0,0.0,6.0015,5.9134,6.1374,6.5521,7.1505,7.624,8.0094,8.2517,8.4939,8.6371,8.4682,8.0388,7.5365,7.0807,6.6145,6.1887,5.8657,5.7997,5.7997,5.7997,5.7997,5.8437,5.9832,6.0933,6.3135,6.7577,6.9779,7.312,7.8993,8.0608,8.2517,8.5747,8.6701,8.6444,8.4719,8.2884,8.1489,8.0681,7.9874,7.9176,7.8626,7.7781,7.7273,7.7273,7.7053,7.668,7.6093,7.5028,7.4258,7.3597,7.1211,7.011,7.0,6.8385,6.7687,6.765,6.7173,6.6329,6.5264,6.4751,6.3833,6.278,6.278,6.2658,6.2438,0.0,0.0,0.0,0.0,0.0,3.8147,4.2709,4.4034,4.6101,5.0614,5.1185,5.2097,5.4329,5.257,5.1826,5.3315,5.071,0.0,0.0,0.0,0.0,0.0,0.0,0.0,4.5186,4.5477,4.6005,4.6686,4.7406,4.8341,4.9341,5.1055,5.1655,5.1217,0.0,0.0,0.0,0.0,0.0,0.0,0.0,0.0,0.0,0.0,0.0,0.0,0.0,0.0,0.0,0.0,0.0,0.0,0.0,5.8584,6.0248,6.5154,7.1138,7.668,7.9176,8.1599,8.3471,8.3434,7.914,7.3891,6.9853,6.5742,6.1887,5.8657,5.7997,5.7997,5.7997,5.7997,5.8253,5.9074,6.0566,6.2732,6.6072,6.8605,7.1027,7.3487,7.5212,7.7488,8.0755,8.3251,8.4646,8.4609,8.237,8.0645,7.9837,7.9029,7.8589,7.8589,7.7781,7.7273,7.7273,7.6533,7.6093,7.6093,7.4478,7.3707,7.3597,7.1211,7.011,7.0,6.8385,6.7687,6.7577,6.5999,6.5338,6.5154,6.3466,6.2817,6.278,6.278,6.2291,6.1594,0.0,0.0,0.0,0.0,0.0,0.0,4.1265,4.2064,4.4042,4.906,4.9289,4.9999,5.2739,5.2367,5.2164,5.2638,5.0879,0.0,0.0,0.0,0.0,0.0,0.0,4.6848,4.7598,4.7521,4.7838,4.8574,4.992,5.076,5.1088,5.2422,5.264,5.1961,5.1961,5.1251,0.0,0.0,0.0,0.0,0.0,0.0,5.3551,0.0,0.0,0.0,0.0,0.0,0.0,0.0,0.0,0.0,0.0,0.0,0.0,6.0896,6.5705,7.077,7.2642,7.4918,7.6497,7.5395,7.2129,6.8531,6.6145,6.2879,5.9881,5.8327,5.7997,5.7997,5.7997,5.7997,5.8621,6.0529,6.1263,6.2548,6.5301,6.776,7.0807,7.4845,8.0204,8.3728,8.4242,8.4976,8.4719,8.3067,8.1746,8.0424,7.9029,7.8185,7.7708,7.7708,7.742,7.7017,7.6497,7.624,7.5542,7.4441,7.3927,7.312,7.2018,7.0697,6.9816,6.9192,6.7577,6.688,6.6806,6.5742,6.4971,6.442,6.3906,6.3319,6.278,6.278,6.2658,6.2365,0.0,0.0,0.0,0.0,0.0,0.0,3.9787,4.0474,4.2274,4.6712,4.734,4.8673,5.1929,5.2063,5.2232,5.3078,5.2063,0.0,0.0,0.0,0.0,0.0,4.778,4.7995,4.9194,4.8968,4.9317,5.0362,5.1592,5.2342,5.2745,5.3692,5.3851,5.3145,5.257,5.1792,0.0,0.0,0.0,0.0,0.0,0.0,5.3946,0.0,0.0,0.0,0.0,0.0,0.0,0.0,0.0,0.0,0.0,0.0,0.0,0.0,6.1484,6.5044,6.7614,6.9816,7.1248,7.0587,6.7981,6.5264,6.3906,6.1337,5.8964,5.818,5.7997,5.7997,5.7997,5.7997,5.8474,5.9979,6.075,6.1998,6.4494,6.6916,7.0257,7.5065,8.0755,8.4205,8.4022,8.4242,8.3801,8.2296,8.0901,7.9653,7.8662,7.7781,7.7163,7.6864,7.6864,7.6607,7.6093,7.5506,7.4698,7.367,7.3083,7.2275,7.1256,7.0146,6.9376,6.8825,6.7504,6.6769,0.0,6.5632,6.4824,6.4016,6.3392,6.2842,6.2328,6.2034,6.1679,6.1349,0.0,0.0,0.0,0.0,0.0,0.0,0.0,3.927,4.0862,4.3986,4.5656,4.7931,5.166,5.1555,5.2097,5.4228,5.3856,0.0,0.0,0.0,0.0,4.912,4.9086,4.9424,5.0135,5.0025,5.0674,5.2059,5.2578,5.3298,5.4245,5.4977,5.5095,5.4532,5.3112,5.2435,0.0,0.0,0.0,0.0,5.4296,5.4606,0.0,0.0,0.0,0.0,0.0,0.0,0.0,0.0,0.0,0.0,0.0,0.0,0.0,0.0,0.0,0.0,0.0,6.5925,6.7247,6.7944,6.5888,6.3429,6.2658,6.0725,0.0,5.8143,5.7997,5.8033,5.807,5.8033,5.807,5.8217,5.9575,6.1447,6.3906,6.6696,7.0146,7.4735,7.8185,8.0424,8.1048,8.1746,8.215,8.2039,7.991,7.8552,7.8516,7.7708,7.69,7.613,7.5983,7.5946,7.5946,7.4368,7.3597,7.3597,7.1982,7.1211,7.1174,6.9633,6.8862,6.8788,6.7907,6.71,6.6366,6.5485,6.464,6.3759,6.2218,6.1557,6.141,6.0676,5.9942,5.9258,0.0,0.0,0.0,0.0,0.0,0.0,0.0,0.0,0.0,0.0,4.4865,4.6801,4.9466,5.0642,5.1657,0.0,0.0,0.0,0.0,0.0,0.0,4.9864,4.983,5.0202,5.0947,5.2034,5.3077,5.3985,5.4647,5.5116,5.5329,5.5532,5.5235,5.4566,5.4228,5.3754,0.0,0.0,0.0,0.0,5.4296,5.4606,0.0,0.0,0.0,0.0,5.6616,5.7116,0.0,0.0,0.0,0.0,0.0,0.0,0.0,0.0,5.8143,5.8474,5.9465,0.0,6.1117,6.0676,5.9979,5.9391,0.0,5.8694,5.8217,5.8033,5.7997,5.818,5.8781,5.84,5.8584,6.0456,6.1594,6.3099,6.5595,7.1762,7.668,7.8442,8.2039,8.3728,8.2076,8.2076,8.1672,8.0461,7.925,7.8295,7.7671,7.6827,7.6313,7.6093,7.4918,7.4258,7.4258,7.3266,7.2789,7.2753,7.1138,7.0367,7.0367,6.9339,6.8568,6.7907,6.6476,6.5778,6.5485,6.3991,6.2915,6.2144,6.1741,6.1227,6.0676,6.0456,6.0272,6.0052,0.0,0.0,0.0,0.0,0.0,0.0,0.0,0.0,0.0,0.0,4.3556,4.5766,4.809,5.0081,5.1522,0.0,0.0,0.0,0.0,5.2131,5.1386,5.0642,5.0608,5.0947,5.1691,5.2536,5.3653,5.5108,5.5852,5.6393,5.6697,5.6697,5.6156,5.5074,5.4397,5.3653,0.0,0.0,0.0,0.0,5.4699,0.0,0.0,0.0,0.0,0.0,5.7401,5.7679,0.0,5.7997,5.7997,5.7997,0.0,0.0,0.0,0.0,5.7997,5.7997,5.7997,5.8584,5.9074,5.8657,5.8547,5.8547,5.8547,5.8253,5.7997,5.7997,5.7997,5.8143,5.8584,5.8914,5.9538,6.0823,6.2695,6.5191,6.8752,7.4294,7.8589,8.0167,8.259,8.3618,8.2333,8.1525,8.0571,7.9323,7.8479,7.7635,7.679,7.635,7.5763,7.5028,7.378,7.3156,7.3156,7.2349,7.1762,7.1394,7.0146,6.9559,6.9522,6.8715,6.7907,6.71,6.6219,6.5448,6.4677,6.3759,6.2915,6.2071,6.1337,6.0786,6.0309,5.9575,5.9318,5.9245,0.0,0.0,0.0,0.0,0.0,0.0,0.0,0.0,0.0,0.0,0.0,0.0,0.0,0.0,0.0,0.0,0.0,0.0,5.3518,5.2875,5.2198,5.1589,5.1454,5.1725,5.2469,5.2604,5.3653,5.5681,5.6664,5.7408,5.7881,5.8118,5.734,5.5683,5.4397,5.3348,5.2536,0.0,0.0,5.3783,5.5144,0.0,0.0,0.0,0.0,0.0,0.0,0.0,0.0,5.7997,5.7997,5.7997,5.7997,0.0,0.0,0.0,0.0,0.0,5.8143,5.9061,5.9808,5.9148,5.9111,5.9148,5.9038,5.851,5.7997,5.7997,5.7997,5.8107,5.8474,5.9648,6.0713,6.108,6.3906,6.7687,7.2386,7.5726,7.8479,8.0571,8.1636,8.2076,8.1856,8.0461,7.9323,7.8662,7.7671,7.6827,7.613,7.5873,7.5065,7.356,7.2753,7.2202,7.1945,7.1284,7.066,7.0073,6.9155,6.8788,6.8862,6.7944,6.7136,6.6476,6.6219,6.5338,6.409,6.3943,6.3392,6.2475,6.097,6.0309,6.0052,5.8547,5.7997,5.7997,0.0,0.0,0.0,0.0,0.0,0.0,0.0,0.0,0.0,0.0,0.0,0.0,0.0,0.0,0.0,0.0,0.0,0.0,5.3518,5.3382,5.3281,5.3145,5.2503,5.2503,5.3315,5.3923,5.4735,5.5681,5.7712,5.8389,5.7915,5.9167,5.8321,5.5716,5.548,5.46,5.3315,5.345,5.3848,5.4513,5.535,0.0,0.0,0.0,0.0,0.0,0.0,0.0,0.0,5.7997,5.7997,5.7997,5.7997,0.0,0.0,0.0,0.0,0.0,5.8817,6.1153,6.2511,5.9061,5.8694,5.9001,5.8327,5.8107,5.7997,5.7997,5.7997,5.8621,6.0676,6.1263,6.2108,6.42,6.7247,7.0807,7.4955,7.7781,7.9543,7.991,8.1305,8.1636,8.0277,7.9323,7.8736,7.8589,7.7157,7.624,7.6093,7.4808,7.3634,7.2716,7.1908,7.0844,6.9486,6.9339,6.9559,7.0073,6.8568,6.8238,6.8862,6.7357,6.6623,6.6402,6.5044,6.431,6.4016,6.3319,6.2511,6.1704,6.075,5.9979,5.9258,5.8327,5.7997,5.7997,0.0,0.0,0.0,0.0,0.0,0.0,0.0,0.0,0.0,0.0,0.0,0.0,0.0,0.0,0.0,0.0,5.2198,5.2841,5.2841,5.3281,5.3687,5.4059,5.3348,5.3315,5.4059,5.4803,5.5953,5.7473,5.8896,5.9844,6.0283,5.9336,5.7746,5.5683,5.4871,5.4126,5.3518,5.3518,5.3946,5.4665,0.0,0.0,0.0,0.0,0.0,0.0,0.0,0.0,0.0,0.0,5.6969,5.7262,5.6822,0.0,0.0,0.0,0.0,0.0,5.7813,5.9648,6.1227,6.0199,6.1887,6.3356,6.1667,6.13,6.1043,6.0126,5.9942,6.0419,6.1961,6.3356,6.5632,6.9816,7.2092,7.4147,7.6423,7.8148,7.9286,7.9727,8.0424,8.0608,7.9874,7.9066,7.8222,7.7304,7.6533,7.5726,7.4845,7.367,7.2679,7.1872,7.066,6.9669,6.8898,6.8458,6.8421,6.8788,6.8054,6.7871,6.8201,6.7026,6.6256,6.5778,6.4604,6.3833,6.3356,6.2989,6.2585,6.2144,6.0896,6.0162,5.9722,5.8474,5.7997,5.7997,0.0,0.0,0.0,0.0,0.0,0.0,0.0,0.0,0.0,0.0,0.0,0.0,0.0,0.0,0.0,0.0,5.1555,5.23,5.23,5.3044,5.3754,5.4329,5.3957,5.4262,5.5344,5.575,5.7137,5.9539,6.0452,6.1603,6.2854,6.0013,5.7814,5.6156,5.4668,5.3822,5.3518,5.3518,5.4009,5.4909,0.0,0.0,0.0,0.0,0.0,0.0,0.0,0.0,0.0,0.0,0.0,0.0,0.0,0.0,0.0,5.6271,5.6455,5.6895,5.7262,5.8547,6.0052,6.13,6.3649,6.5521,6.4824,6.42,6.3649,6.3135,6.2879,6.2989,6.3796,6.5962,6.9155,7.3854,7.5469,7.646,7.7488,7.8185,7.8883,7.969,7.9617,7.9507,7.9507,7.8772,7.7708,7.6203,7.5946,7.5212,7.378,7.2753,7.1872,7.1064,6.9633,6.8825,6.8605,6.8017,6.7687,6.7687,6.7504,6.7504,6.765,6.6659,6.5888,6.5264,6.4457,6.3613,6.278,6.278,6.2695,6.2401,6.097,6.0162,5.9685,5.8437,5.7997,5.7997,0.0,0.0,0.0,0.0,0.0,0.0,0.0,0.0,0.0,0.0,0.0,0.0,0.0,0.0,0.0,0.0,5.186,5.23,5.23,5.3044,5.3518,5.3585,5.416,5.5513,5.7611,5.7036,5.8186,6.1129,6.2584,6.3666,6.4377,6.211,5.9877,5.7679,5.6224,5.4803,5.3518,5.3518,5.4328,5.5638,5.5695,0.0,0.0,0.0,0.0,0.0,0.0,0.0,0.0,0.0,0.0,0.0,0.0,0.0,5.6932,5.7629,5.7336,5.7152,5.8597,6.0199,6.1447,6.1557,6.0713,6.097,6.5338,6.4567,6.3723,6.6659,6.6659,6.6402,6.7173,6.9339,7.1578,7.3487,7.5102,7.6644,7.8295,7.8552,7.8883,7.969,7.914,7.8699,7.8699,7.7928,7.7047,7.6166,7.5432,7.4625,7.3744,7.2239,7.1027,7.022,6.9339,6.8531,6.7797,6.7724,6.7687,6.7687,6.6953,6.699,6.7677,6.6109,6.5375,6.5264,6.4457,6.3613,6.278,6.278,6.2365,6.1594,6.075,5.9501,5.8143,5.8033,5.7997,5.7997,0.0,0.0,0.0,0.0,0.0,0.0,0.0,0.0,0.0,0.0,0.0,4.7289,4.9231,0.0,0.0,0.0,5.0777,5.1116,5.1589,5.2334,5.3179,5.4126,5.4025,5.4938,5.7171,5.8287,6.0114,6.2685,6.414,6.4546,6.3869,6.1163,5.893,5.7137,5.5209,5.4025,5.3518,5.3518,5.4359,5.5724,5.5724,5.6453,0.0,0.0,0.0,0.0,0.0,0.0,0.0,0.0,5.5023,5.5537,5.5133,5.5831,5.6675,5.5978,5.5904,5.6198,5.6785,5.8877,6.097,6.1484,6.152,6.256,6.699,6.8054,6.8605,7.033,7.044,7.0183,6.9963,7.2312,7.4478,7.5102,7.7011,7.8626,7.925,7.9323,7.9433,7.9764,7.9066,7.8589,7.8589,7.7378,7.624,7.5432,7.4625,7.3597,7.2275,7.1174,7.0183,6.9376,6.8568,6.776,6.6953,6.743,6.7173,6.6219,6.6916,6.7136,6.6916,6.5815,6.5301,6.5228,6.387,6.3099,6.278,6.278,6.2622,6.2218,6.0933,5.9722,5.8694,5.818,5.7997,5.7997,0.0,0.0,0.0,0.0,0.0,0.0,0.0,0.0,4.4437,0.0,0.0,0.0,0.0,4.9769,0.0,0.0,5.0439,5.0574,5.0845,5.1758,5.2773,5.3822,5.3856,5.4668,5.6427,5.8863,6.1231,6.3531,6.5222,6.5155,6.3463,6.0655,5.8693,5.7408,5.5179,5.4326,5.4497,5.3814,5.4352,5.5675,5.5446,5.6093,0.0,0.0,0.0,0.0,0.0,0.0,0.0,0.0,5.4142,5.4766,5.4436,5.5317,5.6235,5.5427,5.5537,5.6014,5.6271,5.7776,5.9648,6.119,6.2401,6.4347,6.8678,7.033,7.1615,7.3927,7.3597,7.2789,7.2496,7.3817,7.5139,7.5652,7.7561,7.8993,7.8993,7.8993,7.8993,7.8993,7.8295,7.7818,7.7818,7.6533,7.5395,7.4588,7.4001,7.301,7.1366,7.055,6.9743,6.8935,6.7871,6.7063,6.6512,6.6769,6.6256,6.4934,6.6292,6.6659,6.6109,6.5558,6.5154,6.4861,6.3723,6.3062,6.278,6.278,6.2658,6.2291,6.0933,6.0052,5.9478,5.8694,5.84,5.8327,0.0,0.0,0.0,0.0,0.0,0.0,0.0,0.0,4.5308,4.6757,4.7757,0.0,0.0,0.0,0.0,0.0,5.1185,5.0879,5.0135,5.1454,5.23,5.23,5.3754,5.4905,5.5647,5.8592,6.1197,6.3531,6.5696,6.5628,6.3429,6.1129,5.9674,5.8866,5.6675,5.6067,5.6621,5.4433,5.4338,5.5646,5.4884,5.5029,5.5633,0.0,0.0,0.0,0.0,0.0,0.0,0.0,5.3849,5.3628,5.6014,5.6235,5.5757,5.6565,5.6785,5.6969,5.7776,5.7409,5.7593,6.0823,6.2879,6.5411,7.0257,7.0697,7.1762,7.7451,7.6019,7.3964,7.4771,7.3634,7.3046,7.4661,7.6246,7.7273,7.7273,7.7273,7.7273,7.7273,7.6607,7.6093,7.6093,7.5359,7.4551,7.3744,7.367,7.2973,7.1394,7.0513,6.9706,6.8898,6.732,6.6476,6.6476,6.5705,6.4897,6.409,6.4897,6.5301,6.5301,6.5301,6.4861,6.409,6.409,6.3613,6.278,6.278,6.2328,6.152,6.075,6.0419,6.0309,5.9478,5.9184,5.9074,0.0,0.0,0.0,0.0,0.0,0.0,0.0,0.0,4.649,4.9036,4.9337,0.0,0.0,0.0,0.0,0.0,0.0,0.0,5.0845,5.0811,5.1217,5.2266,5.2739,5.3348,5.416,5.7036,6.0182,6.3531,6.3632,6.255,6.0317,5.8592,5.7103,5.5852,5.5213,5.4769,5.4428,5.3739,5.3964,5.4892,5.5238,5.58,5.6381,0.0,0.0,0.0,0.0,0.0,0.0,0.0,0.0,0.0,5.4876,5.6124,5.7116,5.6198,5.6345,5.6748,5.6381,5.7776,5.9832,6.1924,6.4971,6.8458,7.2165,7.323,7.4625,7.8626,7.7745,7.613,7.5799,7.5359,7.4992,7.4918,7.6246,7.7273,7.7273,7.7273,7.7273,7.7273,7.6607,7.6093,7.6093,7.4845,7.3964,7.3707,7.2642,7.1578,7.0513,6.9155,6.8017,6.7247,6.6219,6.5375,6.4824,6.5154,6.4604,6.3209,6.464,6.5007,6.4457,6.4457,6.431,6.4053,6.3466,6.3062,6.278,6.278,6.2658,6.2365,6.1557,6.1227,6.108,5.9698,5.9184,5.9074,0.0,0.0,0.0,0.0,0.0,0.0,4.7018,4.6872,4.7214,4.9303,5.0326,5.0989,0.0,0.0,0.0,0.0,0.0,0.0,5.0744,5.0338,5.0608,5.1826,5.2131,5.2942,5.4363,5.6697,5.8863,6.0858,6.1264,6.0317,5.8118,5.7814,5.69,5.5515,5.6405,5.6099,5.4799,5.4149,5.3952,5.4095,5.4616,5.5241,5.5892,0.0,0.0,0.0,0.0,0.0,0.0,0.0,0.0,0.0,5.4289,5.539,5.6492,5.6161,5.6418,5.6969,5.7776,5.9391,6.1594,6.4494,6.7577,7.0807,7.4331,7.6019,7.7488,7.98,7.8699,7.7237,7.7121,7.6276,7.5689,7.5836,7.665,7.7273,7.7273,7.7273,7.7163,7.6864,7.613,7.5506,7.5175,7.3707,7.2753,7.2753,7.1541,7.0477,6.9669,6.8385,6.732,6.6512,6.5411,6.4604,6.409,6.4237,6.3649,6.2365,6.3686,6.3723,6.2658,6.3649,6.3906,6.3539,6.3025,6.278,6.278,6.2475,6.2511,6.2707,6.1924,6.1594,6.1447,6.0162,5.9478,5.9074,0.0,0.0,4.2641,4.32,0.0,0.0,4.6531,4.7156,4.7626,4.851,5.072,5.19,0.0,0.0,0.0,5.2266,0.0,0.0,5.0135,5.0101,5.0439,5.1183,5.2063,5.3518,5.5683,5.7002,5.734,5.6596,5.8829,5.8761,5.663,5.8051,5.7949,5.6699,5.8839,5.8563,5.642,5.4991,5.3952,5.3235,5.3424,5.3846,5.4471,5.5131,0.0,0.0,0.0,0.0,0.0,0.0,0.0,0.0,5.4142,5.4436,5.4803,5.6271,5.6785,5.7593,6.0639,6.1667,6.2989,6.7907,7.0485,7.2797,7.6576,7.8589,7.9874,8.0645,7.9066,7.7781,7.8479,7.668,7.5616,7.7053,7.7237,7.7163,7.7163,7.7127,7.6827,7.6093,7.5212,7.4404,7.367,7.2129,7.1211,7.1211,7.0367,6.9596,6.8935,6.7907,6.7063,6.6402,6.4824,6.3943,6.387,6.3099,6.2291,6.1484,6.2254,6.1814,6.0493,6.2805,6.3392,6.256,6.2658,6.2658,6.2548,6.1777,6.1924,6.2511,6.1777,6.1484,6.1374,6.0603,5.9832,5.9074,0.0,0.0,4.314,4.326,0.0,0.0,4.6438,4.7162,4.811,5.0091,5.0994,5.1592,5.1967,5.1289,0.0,5.142,5.0777,0.0,0.0,5.0101,5.0439,5.1183,5.3078,5.46,5.5647,5.6021,5.5818,5.5074,5.7273,5.7239,5.5074,5.5987,5.5953,5.5108,5.6197,5.5757,5.4158,5.3191,5.2374,5.1765,5.2896,5.3423,5.3556,5.3705,5.3995,0.0,0.0,0.0,0.0,0.0,0.0,0.0,5.4142,5.484,5.539,5.5757,5.6748,5.818,6.0126,6.2071,6.4714,6.9596,7.3421,7.6393,7.7965,7.8589,7.8919,7.9066,7.9176,7.914,7.8662,7.7598,7.6907,7.7237,7.679,7.635,7.635,7.5836,7.5359,7.5175,7.3891,7.2973,7.2789,7.1284,7.0367,7.0367,6.9009,6.8421,6.8898,6.6329,6.5081,6.5558,6.3943,6.2768,6.2144,6.1961,6.1447,6.0676,6.0823,6.075,6.0456,6.1594,6.1704,6.097,6.1594,6.1484,6.0896,6.075,6.075,6.0896,6.075,6.0676,6.0566,5.9758,5.9331,5.9074,0.0,0.0,0.0,0.0,0.0,0.0,0.0,0.0,4.9061,4.9603,5.0893,5.1894,5.2266,5.1285,0.0,0.0,5.0541,0.0,0.0,0.0,5.0574,5.1691,5.3247,5.4262,5.4634,5.5006,5.4803,5.4059,5.5581,5.5547,5.4093,5.5209,5.531,5.4668,5.6122,5.5344,5.2942,5.2891,5.2021,5.0772,5.1903,5.2268,5.224,5.2562,5.2696,5.2564,5.172,0.0,0.0,0.0,0.0,0.0,0.0,0.0,5.4583,5.5354,5.6198,5.7519,6.0713,6.3356,6.6586,7.2202,7.5799,7.7928,7.7965,7.8589,7.8956,7.8148,7.8626,7.8956,7.8148,7.7635,7.7273,7.7273,7.6974,7.668,7.668,7.5983,7.5322,7.4955,7.3487,7.2349,7.1982,7.0477,6.9522,6.9522,6.8017,6.732,6.7724,6.5411,6.409,6.4127,6.2879,6.1851,6.1043,6.1043,6.0639,5.9832,6.0236,6.0199,5.9869,6.0676,6.0786,6.0419,6.086,6.0786,6.0382,5.9979,6.0052,6.0382,5.9979,5.9832,5.9795,5.9331,5.8964,5.8584,0.0,0.0,0.0,0.0,0.0,0.0,0.0,0.0,0.0,4.8524,5.0413,5.1932,5.2064,5.1217,5.0678,0.0,0.0,0.0,0.0,0.0,0.0,5.2435,5.3281,5.3754,5.389,5.4329,5.4296,5.3687,5.416,5.4296,5.4093,5.5209,5.5378,5.4871,5.6562,5.5446,5.2334,5.2604,5.1555,4.9788,5.043,5.0599,5.0505,5.1227,5.1129,5.0607,5.0578,5.1096,5.1793,5.1793,0.0,0.0,0.0,0.0,5.3298,5.4913,5.539,5.6381,6.0933,6.4604,6.8531,7.4404,7.7157,7.8185,7.7457,7.8369,7.8993,7.7567,7.8002,7.8332,7.7457,7.7273,7.7273,7.7273,7.7053,7.687,7.687,7.5946,7.5028,7.4368,7.2863,7.1615,7.0926,6.9449,6.8495,6.8495,6.699,6.6072,6.6072,6.453,6.3319,6.2622,6.1814,6.1006,6.0199,6.0199,5.9795,5.9001,5.9685,5.9648,5.9001,5.9685,5.9979,5.9979,6.0126,6.0126,5.9942,5.9258,5.9391,5.9905,5.9245,5.8964,5.8964,5.8964,5.8584,5.7997,0.0,0.0,0.0,0.0,0.0,0.0,0.0,0.0,0.0,0.0,4.9358,5.0391,5.1255,4.9528,4.8612,4.9255,4.8646,4.8477,4.912,0.0,0.0,5.3281,5.4059,5.4735,5.5377,5.4871,5.4532,5.4431,5.3923,5.46,5.6359,5.5919,5.5683,5.5547,5.5175,5.4025,5.2198,5.0371,4.9052,4.8199,4.8264,4.8244,4.8311,4.8864,4.9436,4.9916,4.9797,5.0288,5.0949,5.0949,5.1499,0.0,0.0,0.0,5.2491,5.4106,5.4546,5.5317,5.8744,6.453,7.0513,7.4147,7.6276,7.742,7.731,7.7457,7.7567,7.7347,7.8002,7.8332,7.7457,7.7273,7.7273,7.7273,7.6099,7.5249,7.5249,7.334,7.1908,7.177,7.0367,6.9339,6.9229,6.776,6.6806,6.6806,6.5338,6.442,6.442,6.2842,6.1887,6.1741,6.097,6.0162,5.9368,5.9368,5.8988,5.8143,5.8253,5.8253,5.8143,5.8253,5.8327,5.8364,5.9061,5.8988,5.8327,5.8217,5.8217,5.8327,5.8217,5.8143,5.8143,5.8143,5.8107,5.7997,0.0,0.0,0.0,0.0,0.0,0.0,0.0,0.0,0.0,0.0,0.0,4.9691,5.1053,4.9593,4.8477,4.8409,4.8075,4.821,4.8951,4.9999,5.1251,5.2773,5.3145,5.345,5.3788,5.3484,5.3315,5.3315,5.257,5.3991,5.7408,5.6664,5.6562,5.6867,5.575,5.4126,5.2198,5.0845,4.9357,4.7902,4.788,4.7533,4.7168,4.7377,4.7879,4.8461,4.8369,4.9131,5.0105,5.0105,5.0655,5.1316,5.1316,0.0,0.0,0.0,5.2711,5.4252,5.9735,6.4567,6.9192,7.378,7.5432,7.6173,7.709,7.7273,7.7273,7.7273,7.7598,7.7781,7.7347,7.6907,7.6644,7.6644,7.5652,7.4918,7.4918,7.323,7.1982,7.1982,7.0146,6.8715,6.8274,6.7173,6.6329,6.5852,6.4751,6.387,6.3392,6.2254,6.119,6.0272,5.9905,5.9355,5.8547,5.8547,5.8364,5.7997,5.7997,5.7997,5.7997,5.7997,5.7997,5.8033,5.8364,5.8327,5.7997,5.7997,5.7997,5.7997,5.7997,5.7997,5.7997,5.7997,5.7997,5.7997,0.0,0.0,0.0,0.0,0.0,0.0,0.0,0.0,0.0,0.0,0.0,4.9154,5.0659,0.0,0.0,0.0,4.7534,4.7665,4.8376,4.912,5.0101,5.142,5.1826,5.2029,5.2029,5.2198,5.2198,5.2029,5.1657,5.3788,5.8152,5.7611,5.8051,5.9235,5.7171,5.5006,5.2807,5.1285,4.9796,4.8376,4.7462,4.6664,4.6094,4.6246,4.6555,4.6932,4.7088,4.7846,4.8805,4.8985,4.9574,5.0252,5.0431,5.0508,0.0,0.0,0.0,5.3041,5.9281,6.2867,6.6121,7.1609,7.385,7.505,7.6575,7.7245,7.751,7.7335,7.7273,7.7237,7.7017,7.668,7.635,7.613,7.5432,7.4845,7.4625,7.3046,7.1908,7.1908,6.9926,6.8274,6.7467,6.6659,6.5778,6.4751,6.3906,6.2989,6.1936,6.1337,6.0346,5.8927,5.8914,5.8621,5.7997,5.7997,5.7997,5.7997,5.7997,5.7997,5.7997,5.7997,5.7997,5.7997,5.7997,5.7997,5.7997,5.7997,5.7997,5.7997,5.7997,5.7997,5.7997,5.7997,5.7997,5.7997,0.0,0.0,0.0,0.0,0.0,0.0,0.0,0.0,0.0,0.0,0.0,0.0,4.9678,4.8686,4.7939,4.7906,4.6616,4.6143,4.6853,4.7597,4.8376,4.9154,5.0507,0.0,5.1285,5.1961,5.1961,5.1285,5.1928,5.4532,5.8964,5.893,6.0452,6.3057,5.9404,5.6528,5.4228,5.0642,4.9458,4.9661,4.6206,4.4744,4.4788,4.5336,4.5554,4.5673,4.6257,4.6495,4.6648,4.7291,4.8063,4.8837,4.9451,4.9647,4.9831,0.0,0.0,0.0,5.5023,5.8067,6.1443,6.6453,7.0952,7.4423,7.5552,7.7047,7.8072,7.7457,7.7273,7.7053,7.6313,7.6754,7.698,7.624,7.5432,7.4625,7.3854,7.1725,7.022,7.022,6.8752,6.743,6.6623,6.5852,6.4714,6.3037,6.2181,6.1043,5.9478,5.9331,5.8951,5.8107,5.807,5.8033,5.7997,5.7997,5.7997,5.7997,5.7997,5.7997,5.7997,5.7997,5.7997,5.7997,5.7997,5.7997,5.7997,5.7997,5.7997,5.7997,5.7997,5.7997,5.7997,5.7997,5.7997,5.7997,0.0,0.0,0.0,0.0,0.0,0.0,0.0,0.0,0.0,0.0,0.0,0.0,0.0,4.8385,4.7733,4.7259,4.6718,4.6718,4.7462,4.8206,4.8951,4.9661,5.0676,5.1185,5.1185,5.1488,5.1488,5.1185,5.0541,5.2503,5.69,5.6393,5.7509,5.9844,5.849,5.6934,5.5074,5.1285,4.9593,4.9187,4.6921,4.5737,4.5258,4.5029,4.5169,4.552,4.5715,4.6088,4.6436,4.6682,4.6952,4.7209,4.7368,4.7425,4.7543,4.8246,4.8764,4.9921,5.3188,5.5579,5.8334,6.3208,6.7486,7.0859,7.2311,7.5128,7.727,7.6449,7.639,7.646,7.6166,7.5909,7.5506,7.4698,7.3891,7.3266,7.2973,7.1284,6.9926,6.9376,6.7907,6.6402,6.5081,6.42,6.3246,6.2108,6.1263,6.0346,5.9258,5.9184,5.8817,5.8033,5.7997,5.7997,5.7997,5.7997,5.7997,5.7997,5.7997,5.7997,5.7997,5.7997,5.7997,5.7997,5.7997,5.7997,5.7997,5.7997,5.7997,5.7997,5.7997,5.7997,5.7997,5.7997,5.7997,5.7997,0.0,0.0,0.0,4.814,0.0,4.7528,4.6753,4.6082,4.5985,4.6905,0.0,0.0,0.0,0.0,4.7869,4.7229,4.6921,4.7124,4.7838,4.8139,4.868,4.9695,5.0439,5.0947,5.1185,5.1185,5.1082,5.0845,4.9864,5.1285,5.4972,5.4702,5.5784,5.7848,5.6867,5.6292,5.5886,5.2604,5.0811,4.9898,4.7699,4.665,4.638,4.5872,4.6119,4.6612,4.6371,4.6419,4.6488,4.6214,4.5936,4.5788,4.6119,4.6153,4.6194,4.6579,4.7259,4.836,5.0562,5.2672,5.5381,6.0231,6.3714,6.6737,6.9802,7.2757,7.4848,7.4919,7.5273,7.549,7.5224,7.458,7.4001,7.3744,7.301,7.2496,7.2496,7.1101,6.9889,6.9376,6.765,6.5962,6.464,6.3466,6.2365,6.1263,6.0456,5.9648,5.8841,5.8804,5.8437,5.7629,5.785,5.774,5.7189,5.7446,5.7446,5.7189,5.7189,5.7189,5.7189,5.7483,5.7593,5.7593,5.7886,5.7997,5.7997,5.7997,5.7997,5.7997,5.7997,5.7997,5.7997,5.7997,5.7997,5.7997,5.1938,5.2069,5.1821,4.9365,4.8913,4.8543,4.7568,4.6783,4.6604,4.7233,0.0,0.0,0.0,0.0,0.0,4.8048,4.7327,4.7225,4.7939,4.7327,4.753,4.9018,4.9729,5.0473,5.1219,5.1219,5.0879,5.0135,5.0101,5.1217,5.3416,5.4126,5.5615,5.7611,5.4735,5.4668,5.6494,5.4262,5.2942,5.1995,4.8274,4.7259,4.7939,4.7872,4.8342,4.8883,4.8139,4.7428,4.6699,4.5826,4.5052,4.4679,4.5801,4.5992,4.581,4.581,4.6378,4.7038,0.0,0.0,0.0,5.7358,5.9627,6.2181,6.8039,6.9873,7.0922,7.2795,7.3787,7.4108,7.3441,7.2815,7.2679,7.345,7.2936,7.2422,7.2422,7.1064,7.0036,7.0,6.7907,6.6145,6.5301,6.3697,6.2108,6.0529,5.9648,5.8841,5.8033,5.796,5.7593,5.6822,5.7556,5.7189,5.5611,5.6418,5.6418,5.5596,5.5596,5.5596,5.5633,5.6418,5.6785,5.6859,5.7629,5.796,5.7997,5.7997,5.7997,5.7997,5.7997,5.7997,5.7997,5.7997,5.7997,5.7997,5.3606,5.3978,5.3903,5.1901,5.1128,5.066,5.0411,4.8643,4.7466,0.0,0.0,0.0,4.8525,4.9715,5.042,5.0306,5.0101,5.0067,5.0272,4.9593,4.9593,5.0574,5.0811,5.1251,5.1995,5.1995,5.1623,5.0913,5.0371,5.0405,5.1048,5.1251,5.2232,5.3822,5.301,5.2672,5.2604,5.0373,5.0574,5.1995,4.8274,4.7868,4.9323,4.7699,4.7564,4.8139,4.7361,4.7327,4.7492,4.668,4.6664,4.6703,4.5281,4.4314,4.3734,4.3775,4.4327,4.5143,4.623,0.0,0.0,0.0,0.0,0.0,6.0441,6.3364,6.6101,6.7784,6.889,6.9858,7.0843,7.0395,7.0146,7.0954,7.0917,7.077,7.077,6.9889,6.8788,6.7614,6.6402,6.5081,6.3624,6.2034,6.0896,6.0419,5.9134,5.8217,5.7997,5.7446,5.7042,5.6822,5.7042,5.6638,5.5633,5.6418,5.6418,5.5596,5.5596,5.5596,5.5633,5.5831,5.6235,5.6822,5.7042,5.7446,5.7997,5.7997,5.7997,5.7997,5.7997,5.7997,5.7997,5.7997,5.7997,5.7997,5.4501,5.5195,5.5463,5.3974,5.3357,5.3045,5.2869,5.1374,5.0236,0.0,0.0,0.0,5.0223,5.2222,5.3179,5.2266,5.186,5.1657,5.1657,5.098,5.0879,5.1623,5.1657,5.2029,5.2773,5.2469,5.1961,5.1185,5.0473,4.9932,4.9627,4.9627,5.027,5.1352,5.0744,5.0744,5.0982,4.8206,4.8511,5.0777,4.8917,4.912,5.0439,4.9458,4.956,5.0135,4.9357,4.9357,4.9526,4.8173,4.7742,4.7318,4.4665,4.4058,4.4198,4.3594,4.4195,4.5113,4.5279,4.6476,4.8129,5.0037,0.0,0.0,5.6319,5.8586,6.0795,6.3105,6.4596,6.5903,6.7197,6.7421,6.743,6.7577,6.7871,6.8568,6.9889,6.9412,6.8421,6.7136,6.5999,6.4787,6.3466,6.1557,6.0419,6.0419,5.8914,5.7997,5.7997,5.7262,5.6638,5.6308,5.6308,5.5757,5.462,5.539,5.539,5.4583,5.4583,5.4583,5.462,5.495,5.5354,5.5831,5.6161,5.6748,5.7483,5.7483,5.7703,5.7997,5.7997,5.7997,5.7997,5.7997,5.7997,5.7997,0.0,5.5886,5.6581,5.5833,5.5648,5.5545,5.5393,5.4535,5.3963,0.0,5.3665,5.3402,5.3827,5.5786,5.6224,5.416,5.3179,5.257,5.2334,5.1623,5.1488,5.2164,5.2198,5.257,5.3348,5.2739,5.2029,5.1185,5.0541,4.9796,4.9018,4.9018,4.9357,4.9898,4.8545,4.892,5.0507,4.7293,4.7022,4.8815,4.956,5.0439,5.1386,5.1961,5.2672,5.3247,5.2367,5.2164,5.1995,4.9932,4.8528,4.7162,4.4449,4.4759,4.5852,4.446,4.5081,4.5914,4.4624,4.5376,4.706,4.9284,4.9269,0.0,5.4122,5.4905,5.5621,5.8811,6.0634,6.1954,6.3019,6.4129,6.464,6.3796,6.453,6.6219,6.9155,6.9045,6.8348,6.7504,6.6182,6.4971,6.4163,6.1851,6.0419,6.0419,5.8841,5.7886,5.7886,5.7042,5.6198,5.5486,5.5464,5.473,5.3203,5.3995,5.3995,5.3203,5.3203,5.3203,5.3203,5.3959,5.4326,5.4436,5.5133,5.5978,5.6822,5.6822,5.7262,5.7997,5.7997,5.7997,5.7997,5.7997,5.7997,5.7997,5.6292,5.6596,5.7099,5.8133,5.7793,5.779,5.8911,5.6752,5.5653,5.7402,5.75,5.7869,5.9053,5.8796,5.8152,5.7137,5.5818,5.4262,5.2435,5.1623,5.1252,5.142,5.1388,5.1792,5.2536,5.301,5.2604,5.1185,5.1082,5.0304,4.9018,4.9018,4.9086,4.9187,4.8308,4.7834,4.7631,4.753,4.7394,4.7293,4.8037,4.9864,5.2063,5.1589,5.1894,5.2367,5.1014,5.1285,5.2131,5.1116,4.9452,4.764,4.6481,4.5546,4.4865,4.4592,4.4695,4.5138,4.5875,4.676,4.7553,4.7964,4.881,0.0,4.9964,5.0886,5.2375,5.4985,5.627,5.7597,5.9674,6.1323,6.2071,6.1263,6.2915,6.4787,6.6072,6.6659,6.6659,6.5852,6.5485,6.4971,6.4163,6.1851,6.0419,6.0419,5.8327,5.7042,5.7042,5.5647,5.4803,5.462,5.462,5.4179,5.3203,5.3995,5.3995,5.3203,5.3203,5.3203,5.3203,5.3371,5.3812,5.4399,5.4583,5.5464,5.6822,5.6822,5.7262,5.7997,5.7997,5.7997,5.7997,5.7997,5.7997,5.7997,5.6731,5.7103,5.7814,5.9302,5.9235,5.9641,6.1501,6.0102,5.9527,6.1368,6.1903,6.2003,6.1595,6.106,5.9776,5.7543,5.6359,5.4905,5.301,5.257,5.2367,5.2367,5.2367,5.2536,5.2875,5.3281,5.2942,5.1758,5.1386,5.0642,4.9526,4.9187,4.8612,4.7902,4.753,4.6955,4.6244,4.6244,4.6684,4.7496,4.892,5.0439,5.1792,5.2198,5.2334,5.2198,5.1454,5.1454,5.1589,5.0507,4.9833,4.9221,4.7394,4.7293,4.7665,4.6583,4.6515,4.6772,4.6703,4.6959,4.7317,4.7679,4.8247,0.0,0.0,4.8697,4.9782,5.1753,5.2463,5.3417,5.5775,5.753,5.8621,5.8621,5.9979,6.1484,6.2695,6.4604,6.5595,6.4787,6.4714,6.4383,6.3539,6.1594,6.0089,5.9245,5.7703,5.6822,5.6822,5.528,5.4399,5.4399,5.3995,5.3628,5.3203,5.3592,5.3592,5.3203,5.3203,5.3203,5.3203,5.3203,5.3445,5.3812,5.3812,5.4509,5.5611,5.5611,5.6088,5.6859,5.7666,5.7997,5.7997,5.7997,5.7997,5.7997,5.6799,5.7273,5.8152,5.9641,6.0013,6.0858,6.3159,6.2753,6.2753,6.4377,6.5358,6.529,6.3632,6.3057,6.1603,5.8558,5.6867,5.5412,5.4228,5.3585,5.3213,5.3078,5.3179,5.3281,5.3281,5.3281,5.2875,5.2097,5.1352,5.0608,4.9864,4.9289,4.8376,4.7192,4.6921,4.6616,4.6278,4.5399,4.6278,4.8511,5.0407,5.1083,5.1183,5.2706,5.2875,5.23,5.23,5.1657,5.0642,4.9729,5.0135,5.0608,4.8342,4.9086,5.0507,4.8954,4.8781,4.8815,4.7902,4.7631,4.7733,4.8037,4.8246,4.8258,0.0,0.0,0.0,4.9664,4.9973,5.062,5.2606,5.4159,5.5354,5.6014,5.6895,5.7997,5.9281,6.2034,6.3833,6.3649,6.3613,6.3319,6.2658,6.097,5.9344,5.7907,5.6901,5.6314,5.6347,5.4957,5.4179,5.4179,5.3555,5.3203,5.3203,5.3203,5.3203,5.3203,5.3203,5.3203,5.3203,5.3203,5.3203,5.3203,5.3203,5.3665,5.4399,5.4399,5.4876,5.5743,5.7189,5.7776,5.7776,5.7923,5.7997,5.7997,5.6799,5.6867,5.7408,5.8896,5.9674,6.0858,6.3159,6.2313,6.2178,6.4309,6.5831,6.6846,6.7218,6.5527,6.4174,6.3768,5.9404,5.6596,5.6427,5.3923,5.2131,5.1488,5.2097,5.2435,5.2435,5.2435,5.2063,5.132,5.0574,4.983,4.912,4.9052,4.8917,4.868,4.7361,4.7462,4.8545,4.7124,4.7834,4.9932,5.0845,5.0811,5.0371,5.186,5.2367,5.23,5.23,5.098,4.9424,5.0574,5.0642,5.027,5.0608,5.0033,4.9458,5.0541,4.9965,4.9255,5.0405,5.071,5.0405,4.9187,4.9859,5.0246,4.8183,0.0,4.9771,4.988,0.0,5.1066,5.2076,0.0,0.0,5.357,5.4876,5.5941,5.6147,5.7666,5.9575,6.163,6.1887,6.1851,6.1741,5.9648,5.7909,5.7102,5.555,5.4706,5.4737,5.3872,5.3314,5.3314,5.324,5.3203,5.3203,5.3203,5.3203,5.3203,5.3203,5.3203,5.3203,5.3203,5.3203,5.3203,5.3203,5.3665,5.4399,5.4399,5.4876,5.5684,5.6602,5.6932,5.7042,5.774,5.7997,5.7997,5.663,5.6799,5.7273,5.8761,5.9268,6.025,6.2516,6.414,6.5628,6.7015,6.8132,6.8876,6.918,6.7218,6.5696,6.5256,6.167,5.8863,5.7509,5.5446,5.3957,5.3213,5.3078,5.3213,5.3619,5.2773,5.2164,5.186,5.0676,4.9932,4.9627,4.9187,4.8781,4.8311,4.7733,4.78,4.8342,4.7699,4.824,4.9526,5.027,5.0371,5.0304,5.2266,5.2435,5.1623,5.1183,5.0135,4.9086,4.9729,5.0304,5.071,5.0608,5.1048,5.1555,5.1285,5.1082,5.098,5.115,5.1185,5.1082,5.0439,5.0439,5.0195,4.8801,4.828,4.8259,4.8643,0.0,0.0,0.0,0.0,0.0,0.0,5.3215,5.4363,5.484,5.5097,5.6271,5.9171,5.9501,5.9318,5.8877,5.7886,5.6825,5.5652,5.4435,5.3628,5.3223,5.281,5.2554,5.2554,5.2959,5.3203,5.3203,5.3203,5.3203,5.3203,5.3203,5.3203,5.3203,5.3203,5.3203,5.3203,5.3203,5.3408,5.3702,5.3702,5.3922,5.4289,5.5097,5.5684,5.6198,5.7005,5.7299,5.7373,5.6596,5.6799,5.7205,5.849,5.8863,5.9776,6.2042,6.4647,6.6948,6.8571,6.9045,6.9654,7.0669,6.9316,6.8199,6.7861,6.4918,6.2245,6.0148,5.7881,5.619,5.5243,5.4499,5.4262,5.4566,5.3078,5.2198,5.1995,5.0507,4.9898,5.0067,4.9357,4.8815,4.8511,4.8511,4.8748,4.9089,4.9089,4.9661,5.0574,5.0913,5.1014,5.1183,5.2638,5.2503,5.1454,5.0913,5.0236,4.9627,4.983,5.0642,5.1454,5.1116,5.1894,5.2706,5.1792,5.1758,5.1928,5.1589,5.1691,5.1758,5.1319,5.0811,5.0101,4.8951,4.8173,4.78,4.8139,4.8151,0.0,0.0,0.0,5.1251,5.1335,0.0,5.2862,5.3661,5.3098,5.3676,5.6653,5.7189,5.7299,5.7152,5.6356,5.5494,5.4652,5.3218,5.2251,5.1962,5.1848,5.1896,5.2112,5.2813,5.3203,5.3203,5.3004,5.3004,5.3203,5.3004,5.3004,5.3203,5.3203,5.3203,5.3203,5.3203,5.3203,5.3203,5.3203,5.3203,5.324,5.3849,5.4436,5.5097,5.6345,5.6932,5.7226,5.6799,5.6799,5.7036,5.778,5.8524,5.9776,6.2042,6.2482,6.3869,6.7455,6.7354,6.8301,7.1921,7.2259,7.2496,7.3172,6.9823,6.7049,6.5527,6.1332,5.8254,5.6799,5.6021,5.531,5.46,5.3078,5.1961,5.1251,4.9763,4.939,5.0067,4.9357,4.9357,5.0033,5.0033,5.0811,5.2164,5.2164,5.301,5.4363,5.3687,5.3382,5.3315,5.2604,5.23,5.2266,5.2232,5.1758,5.1251,5.1961,5.2232,5.2401,5.3145,5.2435,5.142,5.2063,5.1792,5.1386,5.2097,5.2841,5.3078,5.1589,5.1151,5.0608,4.8413,4.9018,4.9796,4.912,5.0647,5.2117,5.2151,5.2103,5.2077,5.2157,5.1555,0.0,0.0,5.1486,5.186,5.4224,5.5207,5.6271,5.7813,5.5218,5.3725,5.4445,5.1769,5.0368,5.1008,5.1024,5.1365,5.2076,5.2813,5.3203,5.3203,5.2417,5.2417,5.3167,5.2417,5.2454,5.3203,5.3203,5.3203,5.3203,5.3203,5.3203,5.3203,5.3203,5.3203,5.3203,5.3203,5.324,5.3534,5.5941,5.7299,5.796,5.8084,5.8254,5.8186,5.7915,5.8084,5.9201,6.1975,6.3632,6.6102,7.0331,7.1075,7.2665,7.642,7.6386,7.6183,7.6454,7.3477,7.0567,6.8098,6.4647,6.2279,6.1298,5.9099,5.8017,5.822,5.5344,5.345,5.2739,5.1217,5.0608,5.0811,5.0067,5.0135,5.0811,5.0304,5.0913,5.2334,5.2875,5.3416,5.3856,5.3585,5.4093,5.4837,5.3585,5.2773,5.23,5.23,5.1826,5.1319,5.2063,5.23,5.2367,5.2638,5.2706,5.2672,5.2367,5.2503,5.2773,5.3044,5.3281,5.3247,5.2198,5.1589,5.0745,4.9018,4.939,4.9729,4.8545,5.0048,5.129,5.0301,5.1277,5.1911,5.0893,5.1314,5.136,0.0,4.8794,4.8853,5.1215,5.2173,5.2855,5.3394,5.2452,5.1551,5.0858,4.9398,4.8456,4.8242,4.9071,4.9947,5.0695,5.186,5.2725,5.3203,5.2931,5.2931,5.3203,5.2931,5.2931,5.3203,5.3203,5.3203,5.3203,5.3203,5.3203,5.3203,5.3203,5.3203,5.3203,5.3203,5.3555,5.4106,5.4913,5.5721,5.6565,5.9641,5.9404,5.8863,5.8355,5.8727,5.9945,6.2415,6.5121,6.8301,7.2259,7.3646,7.5709,7.9464,7.9464,7.9058,7.8788,7.6995,7.4187,7.0161,6.8064,6.6068,6.4005,6.2279,6.1129,6.0554,5.7915,5.5683,5.389,5.2638,5.1894,5.1589,5.0845,5.0744,5.1185,5.1285,5.1691,5.2401,5.3991,5.4532,5.4262,5.3991,5.4296,5.4837,5.3856,5.3518,5.345,5.2909,5.2435,5.2097,5.257,5.2739,5.2739,5.2739,5.2875,5.2976,5.2469,5.2672,5.3078,5.3078,5.3281,5.3315,5.2503,5.1961,5.1217,4.9729,5.0168,5.0541,4.9323,5.061,5.1725,5.0777,5.1526,5.1901,5.063,5.1009,5.0739,0.0,4.7332,4.7111,4.8598,4.9674,5.0642,5.1492,5.0585,4.9539,4.8583,4.7373,4.6556,4.634,4.7707,4.8993,4.9978,5.1371,5.245,5.3167,5.241,5.2266,5.2791,5.1974,5.1864,5.2375,5.2349,5.2491,5.2784,5.2784,5.2931,5.3203,5.3203,5.3203,5.3203,5.3203,5.3518,5.3995,5.4289,5.5097,5.6161,6.1298,6.0182,5.9268,5.9336,6.0385,6.1772,6.3396,6.6745,7.0195,7.324,7.4999,7.7401,8.1088,8.146,8.1156,8.0412,8.031,7.7807,7.209,7.1548,6.9553,6.5222,6.5561,6.4512,6.1637,6.0655,5.8423,5.4871,5.3991,5.3179,5.2469,5.1657,5.1219,5.132,5.2841,5.3044,5.2503,5.5513,5.6393,5.5716,5.4972,5.4296,5.3653,5.3585,5.4465,5.5478,5.4025,5.3518,5.3518,5.3518,5.3518,5.3518,5.3518,5.2976,5.2367,5.2367,5.2367,5.2367,5.2367,5.2909,5.3315,5.257,5.2334,5.1928,5.0473,5.1285,5.2131,5.1386,5.2469,5.3551,5.345,5.2807,5.2029,5.1219,5.0405,4.9331,4.7803,4.6992,4.6533,4.6619,4.7793,4.9553,5.1891,4.9431,4.7692,4.7652,4.5734,4.4783,4.5312,4.6853,4.8346,4.9786,5.1202,5.2322,5.3082,5.0903,5.0574,5.2029,4.9767,4.9442,5.0908,5.0827,5.1242,5.1977,5.1977,5.2454,5.3203,5.3203,5.3203,5.3203,5.3203,5.3203,5.3298,5.4142,5.5427,5.6748,6.14,6.1873,6.2685,6.3802,6.2009,6.1467,6.4647,6.7387,7.077,7.5405,7.8247,8.1054,8.4268,8.4099,8.3456,8.2712,8.1629,7.9904,7.7266,7.4999,7.3003,7.1278,6.9282,6.7354,6.5425,6.2516,6.025,5.8693,5.575,5.4499,5.4803,5.2909,5.2029,5.2063,5.3078,5.3044,5.2503,5.5513,5.6697,5.6494,5.6325,5.6122,5.5818,5.4735,5.4905,5.5478,5.4025,5.3518,5.3518,5.3518,5.3518,5.3518,5.3518,5.3382,5.3179,5.3179,5.3179,5.3179,5.3179,5.3348,5.345,5.3247,5.2739,5.2063,5.115,5.2097,5.2807,5.1488,5.2875,5.3957,5.2807,5.2435,5.1691,4.9864,4.8037,4.6675,4.6266,4.5069,4.4892,4.6533,4.5603,4.5733,4.7997,4.7045,4.5998,4.5466,4.4361,4.3552,4.3129,4.5097,4.6653,4.7535,4.8951,5.0329,5.1654,5.0506,5.0407,5.1332,5.0101,5.0006,5.0908,5.0827,5.1242,5.1977,5.1977,5.2454,5.3203,5.3203,5.3203,5.3203,5.3203,5.3203,5.335,5.4766,5.5537,5.6088,6.3226,6.441,6.5696,6.6508,6.5459,6.5324,6.7793,6.9519,7.1954,7.5845,7.8957,8.146,8.3152,8.4099,8.4302,8.3558,8.2441,8.0885,7.8754,7.7029,7.5168,7.3105,7.1718,6.9857,6.7354,6.4613,6.2381,6.0622,5.7205,5.5615,5.5647,5.3754,5.2469,5.1894,5.301,5.3044,5.2503,5.5513,5.7002,5.7239,5.6934,5.6427,0.0,5.4905,5.4668,5.4634,5.3822,5.3518,5.3518,5.3518,5.3518,5.3518,5.3518,5.3518,5.3518,5.3518,5.3518,5.3518,5.3518,5.3518,5.3518,5.3518,5.3179,5.2739,5.23,5.2875,5.3247,5.2401,5.3247,5.3754,5.2536,5.2063,5.1116,4.8883,4.7192,4.6075,4.5737,4.4688,4.4384,4.5669,4.4993,4.479,4.5766,4.4857,4.4045,4.3633,4.347,4.3098,4.232,4.4756,4.6345,4.669,4.8466,4.9804,5.0616,5.0198,4.9863,4.9644,4.8795,4.8613,4.9004,4.9284,4.9996,5.1055,5.1398,5.2148,5.3203,5.3203,5.3203,5.3203,5.3203,5.3203,5.3408,5.4987,5.5596,5.5757,6.573,6.7117,6.8166,6.8064,6.9553,7.1142,7.2157,7.2969,7.4153,7.6183,7.9126,8.1054,8.0953,8.3152,8.437,8.3693,8.2881,8.1325,7.872,7.8213,7.6454,7.2969,7.324,7.1819,6.8267,6.6542,6.4343,6.1603,5.8389,5.6427,5.5683,5.4093,5.2706,5.1589,5.2909,5.3213,5.2909,5.5547,5.707,5.7712,5.7171,5.6122,5.4871,5.4871,5.4363,5.3653,5.3653,5.3585,5.3518,5.3518,5.3518,5.3518,5.3518,5.3518,5.3518,5.3518,5.3518,5.3518,5.3518,5.3518,5.3518,5.3518,5.3518,5.3518,5.3518,5.3518,5.3518,5.3518,5.3416,5.3145,5.2435,5.1555,5.0238,4.821,4.7192,4.6413,4.5805,4.506,4.4649,4.475,4.5229,0.0,4.4682,4.3396,4.2557,4.2455,4.3064,4.3064,4.2185,4.4823,4.638,4.6413,4.8501,4.9804,5.012,4.9943,4.9271,4.8085,4.7088,4.6576,4.6603,4.7272,4.8354,4.9699,5.0538,5.1724,5.3082,5.3146,5.3203,5.3203,5.3314,5.3371,5.3555,5.517,5.5757,5.5868,6.6711,6.8335,6.9586,6.9011,7.165,7.4728,7.7333,7.8348,7.9194,8.0175,8.349,8.5486,8.4877,8.4708,8.4573,8.4437,8.3186,8.2205,8.1663,7.9329,7.713,7.5202,7.4086,7.2326,6.9823,6.7083,6.485,6.3125,5.8863,5.6427,5.5683,5.3518,5.2739,5.3112,5.3382,5.4093,5.5141,5.5683,5.6325,5.7036,5.7509,5.7171,5.6427,5.6427,5.5581,5.4397,5.4397,5.4025,5.3518,5.3518,5.3518,5.3518,5.3518,5.3518,5.3518,5.3518,5.3518,5.3518,5.3518,5.3518,5.3518,5.3518,5.3518,5.3518,5.3518,5.3518,5.3518,5.3518,5.2976,5.2469,5.2334,5.071,4.9086,4.8041,4.6786,4.5838,4.5737,4.506,4.4852,4.5432,4.506,4.475,4.4615,4.4378,4.391,4.3267,4.3308,4.2801,4.1474,4.3064,4.4265,4.4792,4.6413,4.8461,5.0873,4.9691,4.9299,4.9673,4.7573,4.6576,4.6603,4.7272,4.809,4.9041,5.0353,5.1401,5.2335,5.2937,5.3203,5.3298,5.3922,5.4179,5.4399,5.6014,5.6602,5.6712,6.9722,7.0601,7.1481,7.1887,7.4728,7.7705,7.9904,8.2509,8.3389,8.1021,8.2306,8.3152,8.2408,8.3693,8.464,8.464,8.3253,8.2408,8.2408,7.9634,7.7299,7.5777,7.4289,7.2428,7.0229,6.7624,6.5561,6.4072,5.9573,5.7002,5.6224,5.3551,5.2503,5.2875,5.2875,5.3923,5.5681,5.5681,5.6359,5.7408,5.7746,5.7442,5.6799,5.6799,5.5886,5.46,5.46,5.4363,5.4025,5.3619,5.3518,5.3518,5.3518,5.3518,5.3518,5.3518,5.3518,5.3518,5.3518,5.3518,5.3518,5.3518,5.3518,5.3518,5.3518,5.3518,5.3518,5.3518,5.3179,5.2807,5.2367,5.0507,4.9018,4.9052,4.78,4.6853,4.6853,4.5872,4.5297,4.5669,4.5026,4.4615,4.4615,4.4615,4.4107,4.2929,4.3572,4.32,4.1305,4.2997,4.3973,4.3878,4.5754,4.7423,4.8855,4.9286,4.9145,4.8351,4.7261,4.6514,4.6137,4.6872,4.7595,4.8373,4.9809,5.1087,5.2159,5.2893,5.3203,5.3261,5.3628,5.3775,5.3959,5.5574,5.6161,5.6345,7.2935,7.324,7.3815,7.5303,7.8179,8.0682,8.1832,8.5418,8.6399,8.1968,8.1528,8.1291,8.0378,8.2881,8.464,8.464,8.3253,8.2408,8.2408,7.9634,7.7367,7.6014,7.4356,7.2597,7.0703,6.8267,6.617,6.4377,6.0317,5.7679,5.6292,5.3754,5.2367,5.2097,5.2401,5.3653,5.5513,5.5818,5.6799,5.8118,5.8118,5.778,5.7273,5.7103,5.6224,5.5074,5.5074,5.4972,5.4735,5.416,5.3856,5.3721,5.3551,5.3518,5.3518,5.3518,5.3518,5.3518,5.3518,5.3518,5.3518,5.3518,5.3518,5.3518,5.3518,5.3518,5.3518,5.3518,5.3518,5.3213,5.2232,5.0777,4.9796,5.0067,4.8984,4.8075,4.7906,4.6921,4.6007,4.5534,4.5229,4.4818,4.4175,4.4276,4.3775,4.2388,4.3572,4.347,4.1542,4.3132,4.3891,4.3382,4.545,4.6862,4.7478,4.9193,4.9236,4.752,4.7151,4.6554,4.5737,4.6447,4.7101,4.7693,4.929,5.0823,5.2136,5.2725,5.306,5.3203,5.3408,5.3555,5.3885,5.5317,5.5941,5.6271,7.51,7.598,7.6927,7.8416,8.1697,8.4167,8.4302,8.6399,8.7347,8.5486,8.5858,8.5723,8.4268,8.4403,8.464,8.464,8.3253,8.2408,8.2408,7.9634,7.7638,7.6826,7.4661,7.3071,7.2225,6.9316,6.644,6.3632,6.1129,5.8152,5.4769,5.3822,5.2638,5.1386,5.2773,5.389,5.4769,5.6122,5.7543,5.8896,5.8896,5.8863,5.8727,5.8051,5.7306,5.6596,5.6596,5.6156,5.5615,5.5547,5.5074,5.4363,5.3721,5.3518,5.3518,5.3518,5.3518,5.3518,5.3518,5.3518,5.3518,5.3518,5.3518,5.3518,5.3518,5.3518,5.3518,5.3518,5.3518,5.3044,5.1589,5.1691,5.1589,5.0304,4.9424,4.868,4.7973,4.777,4.6955,4.4953,4.5833,4.55,4.276,4.3132,4.32,4.2354,4.3064,4.3132,4.2219,4.2388,4.2773,4.3272,4.4879,4.6995,4.9658,4.9905,4.9942,4.9762,4.8384,4.6996,4.5737,4.6447,4.6844,4.7,4.9097,5.0823,5.2112,5.2159,5.2599,5.3298,5.3995,5.473,5.5464,5.6345,5.7152,5.7776,7.8923,7.8957,7.9498,8.1426,8.2949,8.4403,8.579,8.7144,8.7617,8.6602,8.6332,8.5824,8.4742,8.464,8.464,8.464,8.3253,8.2408,8.2408,7.9634,7.7671,7.6927,7.4695,7.3138,7.2428,7.0331,6.803,6.5493,6.326,6.0486,5.7205,5.5141,5.3822,5.3281,5.4363,5.5716,5.7239,5.7408,5.8321,5.9641,5.9201,5.9032,5.893,5.8186,5.7442,5.6799,5.6799,5.663,5.6292,5.5852,5.5209,5.4532,5.4262,5.3856,5.3518,5.3518,5.3518,5.3518,5.3518,5.3518,5.3518,5.3518,5.3518,5.3518,5.3518,5.3518,5.3518,5.3518,5.3112,5.2739,5.2604,5.2063,5.1758,5.2097,5.0744,4.9695,4.9864,4.8376,4.6752,4.5399,4.4553,4.3606,4.2422,4.2557,4.2997,4.3606,4.3504,4.3098,4.232,4.2646,4.3175,4.395,4.4876,4.641,4.8601,4.9501,4.9978,5.0033,4.8987,4.8163,4.7614,4.75,4.7699,4.8169,4.9447,5.0307,5.0841,5.1317,5.1922,5.2627,5.3426,5.42,5.5023,5.6345,5.7005,5.7336,8.1765,8.1528,8.1934,8.4403,8.4979,8.5621,8.7008,8.7685,8.7651,8.6704,8.6129,8.5486,8.4708,8.464,8.464,8.464,8.3456,8.2644,8.2408,7.9837,7.7976,7.7266,7.5033,7.3477,7.2732,7.1278,6.9417,6.7117,6.5358,6.2854,5.9641,5.707,5.5886,5.5919,5.6664,5.8017,5.9674,5.9336,5.9945,6.1028,6.0317,5.9877,5.9573,5.8592,5.7915,5.7408,5.7205,5.7137,5.7036,5.6528,5.5852,5.5209,5.4972,5.4431,5.3822,5.3822,5.3687,5.3518,5.3518,5.3518,5.3518,5.3518,5.3518,5.3518,5.3518,5.3518,5.3518,5.3518,5.3044,5.2841,5.3416,5.2604,5.2164,5.301,5.1623,5.0541,5.0845,4.8883,4.7022,4.5838,4.4282,4.2963,4.2049,4.1982,4.2523,4.3836,4.3559,4.325,4.2917,4.2875,4.3315,4.4265,4.4882,4.609,4.7979,4.924,5.0018,5.0307,4.9775,4.9318,4.8889,4.8226,4.8308,4.9015,4.9722,5.0146,5.0362,5.1112,5.1933,5.2826,5.3406,5.4228,5.5244,5.6381,5.6969,5.7226,8.2915,8.3456,8.4403,8.7414,8.8531,8.8767,8.8091,8.7989,8.7482,8.5993,8.579,8.5486,8.4708,8.464,8.464,8.464,8.393,8.3186,8.2475,8.0344,7.8754,7.801,7.5811,7.4255,7.3477,7.2056,7.0195,6.7895,6.7151,6.4884,6.1231,5.9674,5.8964,5.8998,5.9708,6.052,6.1332,6.2042,6.2787,6.3396,6.2651,6.1907,6.1095,5.9573,5.8998,5.8896,5.8152,5.7881,5.7881,5.7881,5.7374,5.6664,5.5919,5.5175,5.4566,5.4566,5.4059,5.3518,5.3518,5.3518,5.3518,5.3518,5.3518,5.3518,5.3518,5.3518,5.3518,5.3518,5.3484,5.3484,5.3518,5.3484,5.3213,5.2435,5.1691,5.0947,5.0202,4.9458,4.8173,4.5974,4.5703,4.4485,4.1508,4.1204,4.1508,4.2252,4.2927,4.3588,4.4249,4.2916,4.2707,4.4067,4.4809,4.6354,4.8749,4.9457,5.0223,5.1086,5.1024,5.0267,4.8889,4.8226,4.8308,4.9015,4.9722,5.039,5.1138,5.179,5.2967,5.4363,5.4378,5.5354,5.6785,5.6785,5.7299,5.7997,8.4877,8.5452,8.596,8.6399,8.711,8.7347,8.6602,8.6501,8.6332,8.5858,8.5317,8.4911,8.464,8.464,8.464,8.464,8.349,8.2644,8.2441,7.987,7.8247,7.801,7.5811,7.4255,7.351,7.2563,7.121,6.9451,6.8741,6.6711,6.3531,6.3057,6.255,6.211,6.2854,6.3599,6.4275,6.4005,6.4038,6.414,6.2888,6.1941,6.1197,6.0148,5.9742,5.9641,5.893,5.866,5.8592,5.8051,5.7712,5.7509,5.7273,5.6359,5.5243,5.4735,5.4431,5.4126,5.3653,5.3518,5.3518,5.3518,5.3518,5.3518,5.3518,5.3518,5.3518,5.3518,5.3518,5.3518,5.3518,5.3518,5.338,5.3109,5.2011,5.0934,5.0154,4.8571,4.6853,4.5128,4.4485,4.3572,4.2083,4.2895,4.379,4.4405,4.4699,4.4637,4.4318,4.4694,4.5078,4.5502,4.6695,0.0,4.9374,5.0679,5.1217,5.1112,5.1538,5.1002,4.9623,4.9401,4.9487,4.9693,4.989,5.0417,5.1112,5.1343,5.1993,5.2958,5.4083,5.5126,5.6088,5.7226,5.7776,5.7997,8.5351,8.596,8.6332,8.5858,8.6399,8.667,8.5892,8.579,8.5689,8.5384,8.4911,8.464,8.464,8.437,8.4302,8.4606,8.3524,8.2712,8.2441,8.0141,7.8551,7.801,7.6352,7.4864,7.351,7.3037,7.209,7.0601,6.9586,6.8267,6.6677,6.6102,6.5764,6.5628,6.5764,6.6102,6.6474,6.573,6.5256,6.4918,6.37,6.2787,6.2009,6.096,6.0554,6.0452,5.9708,5.9438,5.9302,5.8558,5.849,5.8626,5.8051,5.7476,5.6765,5.5716,5.504,5.4499,5.4025,5.3721,5.3585,5.3856,5.3687,5.3518,5.3518,5.3518,5.3518,5.3518,5.3518,5.3584,5.3848,5.3718,5.3646,5.4161,5.2526,5.1123,5.085,4.8672,4.6709,4.548,4.4899,4.4211,4.3288,4.4282,4.5131,4.5477,4.6028,4.594,4.5081,4.5501,4.6153,4.6953,4.7546,4.857,5.0112,5.0785,5.1216,5.1443,5.1897,5.1368,5.0004,5.0004,5.0004,5.0033,5.0279,5.0823,5.153,5.2124,5.2582,5.3113,5.4771,5.5696,5.6198,5.7519,5.7997,5.7997,8.464,8.5215,8.5723,8.5723,8.6298,8.6501,8.5824,8.5723,8.5452,8.4708,8.464,8.464,8.464,8.3998,8.3828,8.4505,8.3795,8.305,8.2374,8.0953,7.9498,7.8044,7.7299,7.5845,7.3612,7.351,7.2766,7.1312,6.9925,6.9586,7.0229,6.8808,6.8504,6.9147,6.8402,6.7996,6.7861,6.7184,6.6406,6.5628,6.4952,6.4208,6.3362,6.1975,6.1434,6.1264,6.0486,6.0182,6.008,5.9336,5.9539,5.9844,5.849,5.849,5.8727,5.7239,5.5818,5.4735,5.4668,5.4194,5.3822,5.4499,5.4126,5.3551,5.3518,5.3518,5.3518,5.3518,5.3518,5.3717,5.4451,5.4042,5.4008,5.5383,5.3156,5.1466,5.2031,4.959,4.753,4.6829,4.6759,4.6278,4.5007,4.5501,4.5883,4.5805,4.7019,4.7367,4.6504,4.5791,4.6323,4.825,4.77,4.847,5.0875,5.0198,5.0602,5.2087,5.2064,5.1419,5.0174,5.0174,5.0174,5.0272,5.0947,5.1651,5.2446,5.3888,5.4473,5.4656,5.6198,5.6822,5.6895,5.7703,5.7997,5.7997,8.464,8.4776,8.4911,8.4911,8.5046,8.5114,8.4911,8.4911,8.4843,8.464,8.464,8.464,8.464,8.4471,8.42,8.3795,8.2577,8.1731,8.1562,8.0175,7.8957,7.801,7.7299,7.6115,7.439,7.3781,7.2766,7.1312,7.0973,7.0872,7.1041,7.0669,7.0297,6.9925,6.9722,6.8977,6.7895,6.7726,6.688,6.5662,6.5493,6.4647,6.3463,6.3125,6.2618,6.2042,6.1298,6.1028,6.0892,6.0114,5.9945,6.0047,5.9674,5.9302,5.8727,5.7239,5.6562,5.6156,5.5615,5.531,5.5243,5.5412,5.4905,5.4194,5.3619,5.3518,5.3518,5.3518,5.3518,5.3717,5.4451,5.4451,5.4439,5.474,5.3202,5.1801,5.1335,4.9717,4.8489,4.8388,4.8352,4.8232,4.7904,4.7969,4.8257,4.8756,4.8478,4.8453,4.8769,4.8626,4.8466,4.8287,4.937,5.0508,5.1683,5.2123,5.2527,5.291,5.2354,5.191,5.1618,5.1618,5.194,5.2538,5.2711,5.3543,5.481,5.5163,5.5317,5.539,5.6418,5.6822,5.6895,5.7703,5.7997,5.7997,8.464,8.464,8.464,8.464,8.464,8.464,8.464,8.464,8.464,8.464,8.464,8.464,8.464,8.4031,8.3592,8.3524,8.2441,8.1663,8.1291,8.0242,7.9261,7.8517,7.7807,7.669,7.5134,7.4052,7.2766,7.1312,7.1312,7.1312,7.1312,7.1312,7.1109,7.0703,7.0331,6.9722,6.891,6.8199,6.7421,6.6643,6.5967,6.5222,6.4478,6.414,6.3531,6.2888,6.2821,6.2381,6.1738,6.1298,6.1129,6.1028,6.0317,6.008,5.9844,5.866,5.7611,5.6697,5.6325,5.5987,5.5681,5.5681,5.5412,5.4905,5.416,5.3754,5.3518,5.3518,5.3518,5.3717,5.4451,5.4606,5.4704,5.4999,5.3457,5.2034,5.1528,5.0145,4.9103,4.8792,4.9377,4.971,4.9416,4.9685,5.0004,5.0262,5.0213,5.0134,5.0158,5.0492,5.0288,4.9481,5.0325,5.1206,5.1977,5.2417,5.2324,5.1713,5.1992,5.1593,5.0716,5.1368,5.2072,5.2874,5.3171,5.3989,5.513,5.5866,5.5747,5.5216,5.6381,5.6825,5.685,5.7302,5.7703,5.7997,8.464,8.464,8.464,8.464,8.464,8.464,8.464,8.464,8.464,8.464,8.464,8.464,8.464,8.3389,8.278,8.3287,8.2678,8.1968,8.1325,8.0615,7.987,7.916,7.8382,7.7266,7.5743,7.4153,7.2665,7.1312,7.1312,7.1312,7.1312,7.1312,7.1312,7.1278,7.0635,7.0297,7.0094,6.8808,6.8098,6.7793,6.6542,6.5899,6.5628,6.4986,6.4309,6.3768,6.4377,6.3802,6.2719,6.2719,6.2651,6.2347,6.1028,6.0926,6.1163,6.0486,5.8863,5.7273,5.7171,5.6596,5.6021,5.5884,5.5886,5.5683,5.4938,5.4194,5.3687,5.3687,5.3585,5.3717,5.4451,5.4606,5.4844,5.56,5.3703,5.2155,5.2197,5.086,4.9661,4.9162,5.0385,5.1045,5.053,5.0955,5.1225,5.1243,5.1651,5.1623,5.1002,5.161,5.1683,5.0986,5.0986,5.1353,5.216,5.216,5.1514,5.0257,5.1527,5.1138,4.9376,5.0662,5.1686,5.2484,5.3178,5.3916,5.4777,5.6091,5.5886,5.4824,5.632,5.6792,5.6682,5.6973,5.7401,5.7844,8.464,8.464,8.464,8.464,8.464,8.464,8.464,8.464,8.464,8.464,8.464,8.464,8.464,8.3862,8.3118,8.2644,8.19,8.1393,8.1291,8.0615,7.987,7.916,7.8382,7.7266,7.5743,7.3646,7.2157,7.1312,7.1312,7.1312,7.1312,7.1312,7.1312,7.1312,7.1176,7.077,7.0161,6.9925,6.9079,6.7895,6.7658,6.6812,6.5662,6.5561,6.5053,6.4444,6.4546,6.4444,6.4275,6.4275,6.3835,6.3294,6.3057,6.2212,6.1298,6.1163,6.0385,5.9438,5.8829,5.8118,5.7408,5.6799,5.663,5.6461,5.5716,5.4972,5.4431,5.4431,5.3923,5.3717,5.4451,5.4606,5.4844,5.56,5.3626,5.2268,5.2935,5.1637,5.0863,5.1412,5.2291,5.2797,5.2711,5.2199,5.2111,5.2782,5.1684,5.1213,5.1793,5.194,5.194,5.183,5.1793,5.2197,5.3004,5.3004,5.2587,5.1766,5.1993,5.1618,5.0796,5.1593,5.2405,5.3264,5.3989,5.4789,5.5537,5.5755,5.5727,5.5628,5.6534,5.6491,5.6017,5.7352,5.7498,5.7141,8.464,8.464,8.464,8.464,8.464,8.464,8.464,8.464,8.464,8.464,8.464,8.464,8.464,8.3592,8.2949,8.2983,8.1596,8.0885,8.1257,8.0615,7.987,7.916,7.8382,7.6893,7.4559,7.3138,7.2056,7.1312,7.1312,7.1312,7.1312,7.1312,7.1312,7.1312,7.1312,7.1109,7.077,7.0364,6.9553,6.8504,6.8064,6.7252,6.6305,6.6305,6.5831,6.5222,6.5662,6.529,6.4647,6.5053,6.4715,6.4106,6.4106,6.3362,6.2482,6.2482,6.1095,5.9438,5.9099,5.8457,5.7814,5.7476,5.7103,5.6697,5.6393,5.5716,5.5074,5.4668,5.4329,5.4093,5.4014,5.4668,5.5161,5.5089,5.37,5.2769,5.3146,5.183,5.1096,5.1903,5.2711,5.3203,5.3203,5.2858,5.2821,5.3167,5.2527,5.227,5.2637,5.2637,5.2637,5.2637,5.2637,5.2821,5.3203,5.2791,5.2266,5.1544,5.1164,5.0608,5.0011,5.1119,5.2056,5.293,5.4046,5.4725,5.5114,5.5552,5.5466,5.5144,5.553,5.5667,5.5808,5.6527,5.6825,5.6989,8.464,8.464,8.464,8.464,8.464,8.464,8.464,8.464,8.464,8.464,8.464,8.464,8.464,8.3287,8.2644,8.3186,8.1393,8.0445,8.0987,8.0513,7.987,7.916,7.7874,7.6048,7.3544,7.2597,7.1887,7.1312,7.1312,7.1312,7.1312,7.1312,7.1312,7.1312,7.1312,7.1312,7.1278,7.0703,7.0026,6.9282,6.8504,6.7861,6.732,6.6948,6.6576,6.6237,6.6677,6.6068,6.5189,6.5764,6.5459,6.485,6.485,6.4343,6.3768,6.3768,6.1873,5.9776,5.9607,5.8998,5.8355,5.8186,5.7746,5.7273,5.7103,5.6494,5.575,5.5006,5.4873,5.4635,5.3886,5.4818,5.5504,5.4863,5.3869,5.32,5.3203,5.216,5.161,5.2197,5.3151,5.3775,5.3775,5.3592,5.3482,5.3482,5.3314,5.3203,5.3203,5.3203,5.3124,5.2937,5.2937,5.2872,5.2702,5.2172,5.1626,5.1105,5.053,5.0012,4.9557,5.0862,5.1815,5.2451,5.3719,5.4301,5.4391,5.4969,5.4848,5.4391,5.4544,5.4848,5.5203,5.5581,5.5976,5.6483,8.464,8.464,8.464,8.464,8.464,8.464,8.464,8.464,8.464,8.464,8.464,8.464,8.464,8.3287,8.2441,8.2475,8.1088,8.0209,8.0276,8.0242,7.987,7.916,7.6386,7.4424,7.351,7.2124,7.1379,7.1312,7.1312,7.1312,7.1312,7.1312,7.1312,7.1312,7.1312,7.1312,7.1312,7.1244,7.0804,7.0026,6.9316,6.8977,6.8774,6.7354,6.7184,6.7658,6.7049,6.6745,6.6677,6.6711,6.6237,6.5595,6.5595,6.5121,6.4512,6.4512,6.3396,6.2009,6.1332,6.0554,5.9776,5.9099,5.8896,5.866,5.7949,5.7239,5.6528,5.5784,5.5618,5.5381,5.4652,5.5144,5.5699,5.5626,5.4253,5.3215,5.3213,5.3093,5.3078,5.3093,5.4473,5.5427,5.5427,5.473,5.4326,5.4326,5.3628,5.3203,5.3203,5.3203,5.2893,5.2183,5.2183,5.1898,5.1266,5.1189,5.1184,5.12,5.1142,5.1077,5.1048,5.1859,5.2276,5.2329,5.3125,5.3513,5.3584,5.3651,5.3651,5.3651,5.4328,5.42,5.3849,5.5173,5.5291,5.4878,8.464,8.464,8.464,8.464,8.464,8.464,8.464,8.464,8.464,8.464,8.464,8.464,8.464,8.3693,8.2915,8.2441,8.146,8.0682,8.0242,7.9329,7.872,7.8416,7.598,7.4255,7.351,7.2496,7.1751,7.1312,7.1312,7.1312,7.1312,7.1312,7.1312,7.1312,7.1312,7.1312,7.1312,7.1312,7.0872,7.0161,6.9891,6.9519,6.8977,6.7895,6.7963,6.8538,6.776,6.7489,6.7489,6.7489,6.6981,6.6373,6.6373,6.5865,6.5189,6.4715,6.4208,6.3599,6.2888,6.14,6.0047,5.9742,5.9336,5.893,5.866,5.8017,5.7137,5.5953,5.5689,5.545,5.4733,5.5192,5.5844,5.6308,5.5446,5.4866,5.5346,5.4583,5.4142,5.462,5.5207,5.5596,5.5596,5.5317,5.495,5.4436,5.4106,5.3739,5.3203,5.2769,5.1994,5.0814,5.0823,5.1114,5.1803,5.1372,5.14,5.1874,5.1398,5.1199,5.1251,5.1945,5.2287,5.2334,5.3137,5.3479,5.3518,5.3518,5.3518,5.3551,5.3816,5.375,5.3618,5.4668,5.4848,5.4695,8.464,8.464,8.464,8.464,8.4437,8.4336,8.4573,8.4403,8.437,8.4606,8.464,8.464,8.464,8.3964,8.3186,8.2475,8.1731,8.0987,8.0242,7.8822,7.7773,7.7299,7.5574,7.4255,7.351,7.2766,7.2056,7.1312,7.1312,7.1312,7.1312,7.1312,7.1312,7.1312,7.1312,7.1312,7.1312,7.1312,7.1007,7.0534,7.0297,7.0026,6.9688,6.8673,6.8774,6.935,6.8571,6.8267,6.8233,6.7996,6.7557,6.7117,6.688,6.644,6.5899,6.5155,6.4952,6.4783,6.4072,6.255,6.1061,6.0588,6.0114,5.9607,5.9133,5.8626,5.7814,5.6359,5.6231,5.6201,5.5417,5.5719,5.6241,5.6723,5.6133,5.5825,5.6359,5.5684,5.5354,5.5904,5.6198,5.6345,5.6345,5.6124,5.5581,5.4537,5.4208,5.3608,5.2568,5.185,5.1114,5.0379,5.0154,5.0754,5.2218,5.1336,5.1344,5.2276,5.1779,5.1691,5.1961,5.2469,5.2672,5.2706,5.3281,5.3518,5.3518,5.3518,5.3518,5.3518,5.3518,5.3518,5.3551,5.4074,5.4232,5.4328,8.464,8.464,8.4606,8.4606,8.3998,8.3761,8.4505,8.3964,8.3761,8.4539,8.464,8.464,8.4606,8.3964,8.3219,8.2475,8.1731,8.0987,8.0242,7.8788,7.7299,7.5777,7.4999,7.4255,7.351,7.28,7.2056,7.1312,7.1312,7.1312,7.1312,7.1312,7.1312,7.1312,7.1312,7.1312,7.1312,7.1312,7.1312,7.1244,7.05,7.0635,7.1142,6.9688,6.9553,7.0094,6.9383,6.9113,6.8977,6.8199,6.7895,6.7793,6.7049,6.6812,6.6677,6.5899,6.5696,6.5527,6.4816,6.4072,6.3159,6.1704,6.1332,6.0892,5.937,5.9032,5.8592,5.7103,5.7364,5.7661,5.6932,5.686,5.688,5.6812,5.6212,5.5692,5.5595,5.6308,5.6799,5.6799,5.7496,5.7997,5.7997,5.7276,5.6204,5.4737,5.3797,5.264,5.1209,5.0425,5.0385,5.1182,5.0503,5.0811,5.23,5.0845,5.0845,5.23,5.23,5.2739,5.3518,5.3518,5.3518,5.3518,5.3518,5.3518,5.3518,5.3518,5.3518,5.3518,5.3518,5.3518,5.3518,5.3518,5.3518,5.3518,8.4437,8.42,8.3828,8.3828,8.3659,8.3558,8.3795,8.3625,8.3761,8.4539,8.464,8.4403,8.3896,8.4099,8.3558,8.1765,8.19,8.1088,7.8788,7.8213,7.7299,7.5777,7.5506,7.5033,7.4289,7.3544,7.28,7.209,7.1548,7.1312,7.1312,7.1312,7.1312,7.1312,7.1312,7.1312,7.1312,7.1312,7.1312,7.1312,7.1075,7.1109,7.121,7.0229,7.0331,7.0872,7.0128,6.9857,6.9823,6.9586,6.9147,6.8605,6.7827,6.7218,6.6779,6.6542,6.6474,6.6305,6.5561,6.5189,6.4681,6.3226,6.2076,6.1197,6.0723,5.9776,5.8727,5.778,5.7352,5.7052,5.6848,5.6805,5.6819,5.679,5.6657,5.6364,5.5758,5.6371,5.6653,5.6115,5.6732,5.7252,5.7252,5.7035,5.6428,5.5458,5.4086,5.2688,5.127,5.1437,5.1468,5.1225,5.1007,5.1352,5.23,5.186,5.2164,5.3145,5.3145,5.3281,5.3518,5.3518,5.3518,5.3518,5.3518,5.3518,5.3518,5.3518,5.3518,5.3518,5.3518,5.3518,5.3518,5.3518,5.3518,5.3518,8.4403,8.4268,8.3862,8.3558,8.3253,8.305,8.305,8.2813,8.2881,8.3659,8.3761,8.3592,8.3118,8.349,8.3084,8.1426,8.1426,8.0648,7.8585,7.8145,7.7435,7.6217,7.5879,7.5337,7.4627,7.4153,7.3443,7.2394,7.1954,7.1616,7.1312,7.1312,7.1312,7.1312,7.1312,7.1312,7.1312,7.1312,7.1312,7.1312,7.1312,7.1312,7.1278,7.0804,7.0906,7.1244,7.0804,7.0635,7.0601,7.0297,6.9688,6.9011,6.8538,6.8064,6.7658,6.7354,6.7252,6.7083,6.6339,6.5899,6.5493,6.458,6.326,6.2009,6.1434,6.0588,5.9708,5.893,5.8186,5.7679,5.7679,5.7189,5.6881,5.7178,5.6788,5.6369,5.6197,5.63,5.6259,5.578,5.6114,5.6421,5.6421,5.6421,5.5991,5.4909,5.3344,5.2082,5.1253,5.16,5.1794,5.1623,5.1657,5.1995,5.2773,5.2773,5.301,5.3518,5.3518,5.3518,5.3518,5.3518,5.3518,5.3518,5.3518,5.3518,5.3518,5.3518,5.3518,5.3518,5.3518,5.3518,5.3518,5.3518,5.3518,5.3518,8.437,8.4539,8.4302,8.3625,8.2881,8.2408,8.2408,8.1832,8.1629,8.2306,8.2475,8.2441,8.234,8.2374,8.2069,8.1257,8.0581,7.9904,7.916,7.8416,7.7671,7.6927,7.6115,7.5405,7.4728,7.4593,7.3849,7.2496,7.236,7.1954,7.1312,7.1312,7.1312,7.1312,7.1312,7.1312,7.1312,7.1312,7.1312,7.1312,7.1312,7.1312,7.1312,7.1312,7.1312,7.1312,7.1312,7.1312,7.121,7.0534,6.9789,6.9214,6.9214,6.9113,6.8876,6.8199,6.7895,6.7658,6.7083,6.6373,6.5764,6.5696,6.4681,6.3328,6.1839,6.14,6.1095,6.0351,5.9641,5.9099,5.9032,5.7915,5.715,5.7704,5.6595,5.5945,5.6605,5.6046,5.5581,5.5524,5.5581,5.561,5.561,5.561,5.5004,5.3623,5.2206,5.1354,5.1286,5.1386,5.1725,5.2401,5.2401,5.2773,5.3484,5.3518,5.3518,5.3518,5.3518,5.3518,5.3518,5.3518,5.3518,5.3518,5.3518,5.3518,5.3518,5.3518,5.3518,5.3518,5.3518,5.3518,5.3518,5.3518,5.3518,5.3518,8.349,8.3727,8.3693,8.3524,8.2881,8.2408,8.2408,8.2272,8.2238,8.2408,8.2915,8.2813,8.1663,8.2069,8.1866,8.0547,8.0276,7.9904,7.916,7.8416,7.7671,7.6927,7.6115,7.5642,7.5473,7.4322,7.3578,7.324,7.209,7.1481,7.1312,7.1312,7.1312,7.1312,7.1312,7.1312,7.1312,7.1312,7.1312,7.1312,7.1312,7.1312,7.1312,7.1312,7.1312,7.1312,7.1312,7.1312,7.1278,7.1142,7.0567,6.9958,6.9958,6.9113,6.8233,6.8707,6.7996,6.7151,6.7557,6.7117,6.644,6.5831,6.5459,6.485,6.3362,6.2144,6.1264,6.1095,6.0419,5.9708,5.9133,5.8761,5.8189,5.7218,5.6301,5.5553,5.5142,5.4934,5.4637,5.4076,5.4482,5.4848,5.4848,5.4848,5.4474,5.3563,5.3196,5.2739,5.2097,5.2672,5.3078,5.3247,5.3247,5.3315,5.3518,5.3518,5.3518,5.3518,5.3518,5.3518,5.3518,5.3518,5.3518,5.3518,5.3518,5.3518,5.3518,5.3518,5.3518,5.3518,5.3518,5.3518,5.3518,5.3518,5.3518,5.3518,8.3219,8.349,8.3389,8.305,8.2678,8.2171,8.146,8.1359,8.1359,8.1359,8.1697,8.1629,8.0851,8.1122,8.1054,8.0276,8.0209,8.004,7.9667,7.8585,7.7807,7.7435,7.6318,7.554,7.5202,7.4052,7.3477,7.3477,7.236,7.165,7.1312,7.1312,7.1312,7.1312,7.1312,7.1312,7.1312,7.1312,7.1312,7.1312,7.1312,7.1312,7.1312,7.1312,7.1312,7.1312,7.1312,7.1312,7.1312,7.1312,7.1041,7.0737,7.0737,7.0161,6.9485,6.918,6.8538,6.7827,6.7489,6.7117,6.6711,6.6339,6.5967,6.5392,6.4275,6.3429,6.2888,6.2888,6.1975,6.1061,6.0689,5.9742,5.8761,5.7983,5.6664,5.5716,5.5649,5.5042,5.4459,5.4093,5.436,5.4451,5.4108,5.4074,5.3937,5.3526,5.3513,5.3315,5.2909,5.3281,5.3518,5.3518,5.3518,5.3518,5.3518,5.3518,5.3518,5.3518,5.3518,5.3518,5.3518,5.3518,5.3518,5.3518,5.3518,5.3518,5.3518,5.3518,5.3518,5.3518,5.3518,5.3518,5.3518,5.3518,5.3518,5.3518,8.2881,8.3219,8.3118,8.2509,8.2306,8.1799,8.0581,8.0378,8.0344,8.0209,8.031,8.0344,8.0209,8.0209,8.0209,8.0209,8.0209,8.0209,8.0209,7.8822,7.7976,7.7976,7.6521,7.5405,7.4796,7.395,7.3443,7.3308,7.2563,7.1921,7.1312,7.1312,7.1312,7.1312,7.1312,7.1312,7.1312,7.1312,7.1312,7.1312,7.1312,7.1312,7.1312,7.1312,7.1312,7.1312,7.1312,7.1312,7.1312,7.1312,7.1312,7.1312,7.1312,7.121,7.0872,6.9654,6.9214,6.8808,6.7387,6.7015,6.6981,6.6846,6.6339,6.573,6.5121,6.4783,6.4613,6.4613,6.3531,6.255,6.2415,6.0757,5.9336,5.9066,5.7374,5.6258,5.6731,5.5513,5.46,5.46,5.4465,5.416,5.3551,5.3518,5.3518,5.3518,5.3518,5.3518,5.3518,5.3518,5.3518,5.3518,5.3518,5.3518,5.3518,5.3518,5.3518,5.3518,5.3518,5.3518,5.3518,5.3518,5.3518,5.3518,5.3518,5.3518,5.3518,5.3518,5.3518,5.3518,5.3518,5.3518,5.3518,5.3518,5.3518,5.3518,8.1528,8.2103,8.2543,8.2441,8.1866,8.1359,8.1156,8.1122,8.0919,8.0276,8.075,8.0885,8.0276,8.0209,8.0209,8.0209,8.0209,8.0209,8.0209,7.8822,7.7976,7.7976,7.6521,7.5642,7.554,7.4187,7.3172,7.2563,7.1819,7.1413,7.1312,7.1312,7.1312,7.1312,7.1312,7.1312,7.1312,7.1312,7.1312,7.1312,7.1312,7.1312,7.1312,7.1312,7.1312,7.1312,7.1312,7.1312,7.1312,7.1312,7.1312,7.1312,7.1312,7.0872,7.0297,7.0094,6.9586,6.891,6.7996,6.776,6.759,6.6981,6.6745,6.6643,6.6542,6.5527,6.4613,6.4613,6.3937,6.3159,6.2516,6.1637,6.0554,5.9235,5.822,5.7408,5.6867,5.5513,5.46,5.46,5.4025,5.3619,5.3518,5.3518,5.3518,5.3518,5.3518,5.3518,5.3518,5.3518,5.3518,5.3518,5.3518,5.3518,5.3518,5.3518,5.3518,5.3518,5.3518,5.3518,5.3518,5.3518,5.3518,5.3518,5.3518,5.3518,5.3518,5.3518,5.3518,5.3518,5.3518,5.3518,5.3518,5.3518,5.3518,5.3518,8.119,8.1562,8.1799,8.1799,8.1494,8.1156,8.075,8.0682,8.0716,8.0784,8.1088,8.1156,8.0851,8.0445,8.0209,8.0209,8.0209,8.0209,8.0209,7.8822,7.7976,7.7976,7.6521,7.5506,7.51,7.4458,7.3544,7.2394,7.1684,7.1312,7.1312,7.1312,7.1312,7.1312,7.1312,7.1312,7.1312,7.1312,7.1312,7.1312,7.1312,7.1312,7.1312,7.1312,7.1312,7.1312,7.1312,7.1312,7.1312,7.1312,7.1312,7.1312,7.1312,7.1075,7.0737,7.0297,6.9958,6.9553,6.8774,6.8233,6.7827,6.7489,6.7117,6.6812,6.6812,6.6305,6.5831,6.5831,6.4918,6.4005,6.37,6.2347,6.0926,5.981,5.866,5.778,5.7442,5.6494,5.5683,5.5277,5.4566,5.3957,5.3551,5.3518,5.3518,5.3518,5.3518,5.3518,5.3518,5.3518,5.3518,5.3518,5.3518,5.3518,5.3518,5.3518,5.3518,5.3518,5.3518,5.3518,5.3518,5.3518,5.3518,5.3518,5.3518,5.3518,5.3518,5.3518,5.3518,5.3518,5.3518,5.3518,5.3518,5.3518,5.3518,5.3518]}]]